<?xml version="1.0" encoding="UTF-8" standalone="no" ?>
<gpx xmlns="http://www.topografix.com/GPX/1/1" xmlns:xsi="http://www.w3.org/2001/XMLSchema-instance" xsi:schemaLocation="http://www.topografix.com/GPX/1/1 http://www.topografix.com/GPX/1/1/gpx.xsd" version="1.1" creator="VisuGPX - https://www.visugpx.com">
  <metadata>
    <name>Aix-Le Montaiguet</name>
    <desc><![CDATA[Boucle de 15.5 km, dénivelé cumulé 360 m au départ du Domaine de l'Arc]]></desc>
  </metadata>
  <trk>
    <name><![CDATA[Aix-Le Montaiguet_22 mars 2017]]></name>
    <trkseg>
      <trkpt lat="43.50871" lon="5.46607">
        <ele>188</ele>
        <time>2017-03-22T08:54:07Z</time>
      </trkpt>
      <trkpt lat="43.50862" lon="5.46606">
        <ele>185</ele>
        <time>2017-03-22T08:55:14Z</time>
      </trkpt>
      <trkpt lat="43.5087" lon="5.4661">
        <ele>191</ele>
        <time>2017-03-22T08:56:57Z</time>
      </trkpt>
      <trkpt lat="43.50871" lon="5.46622">
        <ele>192</ele>
        <time>2017-03-22T08:58:23Z</time>
      </trkpt>
      <trkpt lat="43.5087" lon="5.46633">
        <ele>192</ele>
        <time>2017-03-22T08:58:32Z</time>
      </trkpt>
      <trkpt lat="43.5087" lon="5.46645">
        <ele>192</ele>
        <time>2017-03-22T08:58:40Z</time>
      </trkpt>
      <trkpt lat="43.5087" lon="5.46657">
        <ele>193</ele>
        <time>2017-03-22T08:58:49Z</time>
      </trkpt>
      <trkpt lat="43.5087" lon="5.46669">
        <ele>193</ele>
        <time>2017-03-22T08:58:57Z</time>
      </trkpt>
      <trkpt lat="43.50872" lon="5.4668">
        <ele>191</ele>
        <time>2017-03-22T08:59:10Z</time>
      </trkpt>
      <trkpt lat="43.50874" lon="5.46691">
        <ele>190</ele>
        <time>2017-03-22T08:59:20Z</time>
      </trkpt>
      <trkpt lat="43.50877" lon="5.46701">
        <ele>191</ele>
        <time>2017-03-22T08:59:26Z</time>
      </trkpt>
      <trkpt lat="43.50878" lon="5.46711">
        <ele>193</ele>
        <time>2017-03-22T08:59:33Z</time>
      </trkpt>
      <trkpt lat="43.5088" lon="5.46723">
        <ele>196</ele>
        <time>2017-03-22T08:59:40Z</time>
      </trkpt>
      <trkpt lat="43.50879" lon="5.46734">
        <ele>192</ele>
        <time>2017-03-22T08:59:51Z</time>
      </trkpt>
      <trkpt lat="43.50879" lon="5.46746">
        <ele>192</ele>
        <time>2017-03-22T08:59:59Z</time>
      </trkpt>
      <trkpt lat="43.50879" lon="5.46757">
        <ele>192</ele>
        <time>2017-03-22T09:00:05Z</time>
      </trkpt>
      <trkpt lat="43.50875" lon="5.46766">
        <ele>192</ele>
        <time>2017-03-22T09:00:13Z</time>
      </trkpt>
      <trkpt lat="43.50867" lon="5.46771">
        <ele>192</ele>
        <time>2017-03-22T09:00:20Z</time>
      </trkpt>
      <trkpt lat="43.5086" lon="5.46775">
        <ele>190</ele>
        <time>2017-03-22T09:00:28Z</time>
      </trkpt>
      <trkpt lat="43.50852" lon="5.4678">
        <ele>190</ele>
        <time>2017-03-22T09:00:36Z</time>
      </trkpt>
      <trkpt lat="43.50848" lon="5.46789">
        <ele>191</ele>
        <time>2017-03-22T09:00:43Z</time>
      </trkpt>
      <trkpt lat="43.50843" lon="5.46799">
        <ele>190</ele>
        <time>2017-03-22T09:00:50Z</time>
      </trkpt>
      <trkpt lat="43.50836" lon="5.46805">
        <ele>190</ele>
        <time>2017-03-22T09:00:58Z</time>
      </trkpt>
      <trkpt lat="43.50827" lon="5.46806">
        <ele>191</ele>
        <time>2017-03-22T09:01:05Z</time>
      </trkpt>
      <trkpt lat="43.50819" lon="5.46804">
        <ele>192</ele>
        <time>2017-03-22T09:01:12Z</time>
      </trkpt>
      <trkpt lat="43.50811" lon="5.46799">
        <ele>195</ele>
        <time>2017-03-22T09:01:19Z</time>
      </trkpt>
      <trkpt lat="43.50804" lon="5.46795">
        <ele>196</ele>
        <time>2017-03-22T09:01:28Z</time>
      </trkpt>
      <trkpt lat="43.50796" lon="5.46795">
        <ele>195</ele>
        <time>2017-03-22T09:01:34Z</time>
      </trkpt>
      <trkpt lat="43.50789" lon="5.46797">
        <ele>196</ele>
        <time>2017-03-22T09:01:41Z</time>
      </trkpt>
      <trkpt lat="43.50781" lon="5.46797">
        <ele>196</ele>
        <time>2017-03-22T09:01:47Z</time>
      </trkpt>
      <trkpt lat="43.50773" lon="5.46802">
        <ele>197</ele>
        <time>2017-03-22T09:01:57Z</time>
      </trkpt>
      <trkpt lat="43.50767" lon="5.46812">
        <ele>194</ele>
        <time>2017-03-22T09:02:04Z</time>
      </trkpt>
      <trkpt lat="43.5076" lon="5.46817">
        <ele>191</ele>
        <time>2017-03-22T09:02:11Z</time>
      </trkpt>
      <trkpt lat="43.50751" lon="5.46817">
        <ele>193</ele>
        <time>2017-03-22T09:02:22Z</time>
      </trkpt>
      <trkpt lat="43.50745" lon="5.46809">
        <ele>191</ele>
        <time>2017-03-22T09:02:29Z</time>
      </trkpt>
      <trkpt lat="43.50739" lon="5.46804">
        <ele>190</ele>
        <time>2017-03-22T09:02:36Z</time>
      </trkpt>
      <trkpt lat="43.50735" lon="5.46794">
        <ele>188</ele>
        <time>2017-03-22T09:02:43Z</time>
      </trkpt>
      <trkpt lat="43.50729" lon="5.46786">
        <ele>185</ele>
        <time>2017-03-22T09:03:35Z</time>
      </trkpt>
      <trkpt lat="43.50725" lon="5.46775">
        <ele>186</ele>
        <time>2017-03-22T09:03:42Z</time>
      </trkpt>
      <trkpt lat="43.5072" lon="5.46765">
        <ele>187</ele>
        <time>2017-03-22T09:03:50Z</time>
      </trkpt>
      <trkpt lat="43.50716" lon="5.46756">
        <ele>187</ele>
        <time>2017-03-22T09:03:56Z</time>
      </trkpt>
      <trkpt lat="43.50714" lon="5.46744">
        <ele>189</ele>
        <time>2017-03-22T09:04:04Z</time>
      </trkpt>
      <trkpt lat="43.50709" lon="5.46735">
        <ele>189</ele>
        <time>2017-03-22T09:04:12Z</time>
      </trkpt>
      <trkpt lat="43.50704" lon="5.46725">
        <ele>186</ele>
        <time>2017-03-22T09:04:23Z</time>
      </trkpt>
      <trkpt lat="43.50702" lon="5.46713">
        <ele>185</ele>
        <time>2017-03-22T09:04:30Z</time>
      </trkpt>
      <trkpt lat="43.50698" lon="5.46704">
        <ele>185</ele>
        <time>2017-03-22T09:04:36Z</time>
      </trkpt>
      <trkpt lat="43.50695" lon="5.46694">
        <ele>184</ele>
        <time>2017-03-22T09:04:42Z</time>
      </trkpt>
      <trkpt lat="43.50692" lon="5.46682">
        <ele>186</ele>
        <time>2017-03-22T09:04:47Z</time>
      </trkpt>
      <trkpt lat="43.50691" lon="5.46671">
        <ele>187</ele>
        <time>2017-03-22T09:04:53Z</time>
      </trkpt>
      <trkpt lat="43.50686" lon="5.46662">
        <ele>188</ele>
        <time>2017-03-22T09:05:00Z</time>
      </trkpt>
      <trkpt lat="43.5069" lon="5.46652">
        <ele>189</ele>
        <time>2017-03-22T09:05:06Z</time>
      </trkpt>
      <trkpt lat="43.50691" lon="5.4664">
        <ele>189</ele>
        <time>2017-03-22T09:05:13Z</time>
      </trkpt>
      <trkpt lat="43.50693" lon="5.46629">
        <ele>194</ele>
        <time>2017-03-22T09:05:22Z</time>
      </trkpt>
      <trkpt lat="43.50694" lon="5.46618">
        <ele>191</ele>
        <time>2017-03-22T09:05:31Z</time>
      </trkpt>
      <trkpt lat="43.50696" lon="5.46607">
        <ele>193</ele>
        <time>2017-03-22T09:05:39Z</time>
      </trkpt>
      <trkpt lat="43.50696" lon="5.46595">
        <ele>192</ele>
        <time>2017-03-22T09:05:47Z</time>
      </trkpt>
      <trkpt lat="43.50695" lon="5.46583">
        <ele>190</ele>
        <time>2017-03-22T09:05:58Z</time>
      </trkpt>
      <trkpt lat="43.50695" lon="5.46573">
        <ele>190</ele>
        <time>2017-03-22T09:06:05Z</time>
      </trkpt>
      <trkpt lat="43.50693" lon="5.46562">
        <ele>189</ele>
        <time>2017-03-22T09:06:13Z</time>
      </trkpt>
      <trkpt lat="43.50687" lon="5.46555">
        <ele>191</ele>
        <time>2017-03-22T09:06:20Z</time>
      </trkpt>
      <trkpt lat="43.50679" lon="5.46554">
        <ele>190</ele>
        <time>2017-03-22T09:06:25Z</time>
      </trkpt>
      <trkpt lat="43.50673" lon="5.46547">
        <ele>194</ele>
        <time>2017-03-22T09:06:38Z</time>
      </trkpt>
      <trkpt lat="43.50666" lon="5.46539">
        <ele>195</ele>
        <time>2017-03-22T09:06:45Z</time>
      </trkpt>
      <trkpt lat="43.50661" lon="5.46531">
        <ele>189</ele>
        <time>2017-03-22T09:06:57Z</time>
      </trkpt>
      <trkpt lat="43.50659" lon="5.46519">
        <ele>190</ele>
        <time>2017-03-22T09:07:05Z</time>
      </trkpt>
      <trkpt lat="43.50658" lon="5.46508">
        <ele>191</ele>
        <time>2017-03-22T09:07:13Z</time>
      </trkpt>
      <trkpt lat="43.5066" lon="5.46496">
        <ele>192</ele>
        <time>2017-03-22T09:07:24Z</time>
      </trkpt>
      <trkpt lat="43.50659" lon="5.46484">
        <ele>192</ele>
        <time>2017-03-22T09:07:32Z</time>
      </trkpt>
      <trkpt lat="43.5066" lon="5.46473">
        <ele>192</ele>
        <time>2017-03-22T09:07:40Z</time>
      </trkpt>
      <trkpt lat="43.50662" lon="5.46461">
        <ele>190</ele>
        <time>2017-03-22T09:07:49Z</time>
      </trkpt>
      <trkpt lat="43.50662" lon="5.46449">
        <ele>191</ele>
        <time>2017-03-22T09:07:57Z</time>
      </trkpt>
      <trkpt lat="43.50661" lon="5.46438">
        <ele>187</ele>
        <time>2017-03-22T09:08:04Z</time>
      </trkpt>
      <trkpt lat="43.50659" lon="5.46427">
        <ele>183</ele>
        <time>2017-03-22T09:08:11Z</time>
      </trkpt>
      <trkpt lat="43.5066" lon="5.46416">
        <ele>182</ele>
        <time>2017-03-22T09:08:19Z</time>
      </trkpt>
      <trkpt lat="43.50662" lon="5.46406">
        <ele>184</ele>
        <time>2017-03-22T09:08:25Z</time>
      </trkpt>
      <trkpt lat="43.50669" lon="5.46399">
        <ele>189</ele>
        <time>2017-03-22T09:08:30Z</time>
      </trkpt>
      <trkpt lat="43.50674" lon="5.46389">
        <ele>191</ele>
        <time>2017-03-22T09:08:36Z</time>
      </trkpt>
      <trkpt lat="43.50677" lon="5.46379">
        <ele>190</ele>
        <time>2017-03-22T09:08:43Z</time>
      </trkpt>
      <trkpt lat="43.50678" lon="5.46367">
        <ele>191</ele>
        <time>2017-03-22T09:08:49Z</time>
      </trkpt>
      <trkpt lat="43.50676" lon="5.46356">
        <ele>190</ele>
        <time>2017-03-22T09:08:56Z</time>
      </trkpt>
      <trkpt lat="43.50679" lon="5.46347">
        <ele>191</ele>
        <time>2017-03-22T09:09:04Z</time>
      </trkpt>
      <trkpt lat="43.50679" lon="5.46336">
        <ele>188</ele>
        <time>2017-03-22T09:09:11Z</time>
      </trkpt>
      <trkpt lat="43.50683" lon="5.46329">
        <ele>189</ele>
        <time>2017-03-22T09:09:15Z</time>
      </trkpt>
      <trkpt lat="43.50687" lon="5.46318">
        <ele>189</ele>
        <time>2017-03-22T09:09:21Z</time>
      </trkpt>
      <trkpt lat="43.50685" lon="5.46307">
        <ele>188</ele>
        <time>2017-03-22T09:09:31Z</time>
      </trkpt>
      <trkpt lat="43.50691" lon="5.46298">
        <ele>192</ele>
        <time>2017-03-22T09:09:37Z</time>
      </trkpt>
      <trkpt lat="43.50692" lon="5.46287">
        <ele>188</ele>
        <time>2017-03-22T09:09:46Z</time>
      </trkpt>
      <trkpt lat="43.50696" lon="5.46277">
        <ele>188</ele>
        <time>2017-03-22T09:09:54Z</time>
      </trkpt>
      <trkpt lat="43.50702" lon="5.4627">
        <ele>187</ele>
        <time>2017-03-22T09:10:00Z</time>
      </trkpt>
      <trkpt lat="43.50708" lon="5.46261">
        <ele>188</ele>
        <time>2017-03-22T09:10:08Z</time>
      </trkpt>
      <trkpt lat="43.50711" lon="5.4625">
        <ele>191</ele>
        <time>2017-03-22T09:10:17Z</time>
      </trkpt>
      <trkpt lat="43.50716" lon="5.46243">
        <ele>188</ele>
        <time>2017-03-22T09:10:25Z</time>
      </trkpt>
      <trkpt lat="43.50723" lon="5.46238">
        <ele>193</ele>
        <time>2017-03-22T09:10:33Z</time>
      </trkpt>
      <trkpt lat="43.50729" lon="5.4623">
        <ele>193</ele>
        <time>2017-03-22T09:10:39Z</time>
      </trkpt>
      <trkpt lat="43.50735" lon="5.46222">
        <ele>194</ele>
        <time>2017-03-22T09:10:47Z</time>
      </trkpt>
      <trkpt lat="43.50738" lon="5.4621">
        <ele>192</ele>
        <time>2017-03-22T09:10:57Z</time>
      </trkpt>
      <trkpt lat="43.50744" lon="5.46202">
        <ele>191</ele>
        <time>2017-03-22T09:11:05Z</time>
      </trkpt>
      <trkpt lat="43.50749" lon="5.46192">
        <ele>187</ele>
        <time>2017-03-22T09:11:12Z</time>
      </trkpt>
      <trkpt lat="43.50754" lon="5.46182">
        <ele>186</ele>
        <time>2017-03-22T09:11:19Z</time>
      </trkpt>
      <trkpt lat="43.50759" lon="5.46171">
        <ele>185</ele>
        <time>2017-03-22T09:11:30Z</time>
      </trkpt>
      <trkpt lat="43.50764" lon="5.46163">
        <ele>184</ele>
        <time>2017-03-22T09:11:36Z</time>
      </trkpt>
      <trkpt lat="43.5077" lon="5.46154">
        <ele>186</ele>
        <time>2017-03-22T09:11:44Z</time>
      </trkpt>
      <trkpt lat="43.50777" lon="5.46149">
        <ele>188</ele>
        <time>2017-03-22T09:11:51Z</time>
      </trkpt>
      <trkpt lat="43.50783" lon="5.46141">
        <ele>190</ele>
        <time>2017-03-22T09:11:58Z</time>
      </trkpt>
      <trkpt lat="43.50789" lon="5.46134">
        <ele>188</ele>
        <time>2017-03-22T09:12:04Z</time>
      </trkpt>
      <trkpt lat="43.50795" lon="5.46125">
        <ele>187</ele>
        <time>2017-03-22T09:12:12Z</time>
      </trkpt>
      <trkpt lat="43.508" lon="5.46116">
        <ele>183</ele>
        <time>2017-03-22T09:12:20Z</time>
      </trkpt>
      <trkpt lat="43.50808" lon="5.46111">
        <ele>186</ele>
        <time>2017-03-22T09:12:25Z</time>
      </trkpt>
      <trkpt lat="43.50813" lon="5.46101">
        <ele>189</ele>
        <time>2017-03-22T09:12:35Z</time>
      </trkpt>
      <trkpt lat="43.5082" lon="5.46096">
        <ele>190</ele>
        <time>2017-03-22T09:12:42Z</time>
      </trkpt>
      <trkpt lat="43.50827" lon="5.4609">
        <ele>190</ele>
        <time>2017-03-22T09:12:51Z</time>
      </trkpt>
      <trkpt lat="43.50827" lon="5.46077">
        <ele>182</ele>
        <time>2017-03-22T09:13:19Z</time>
      </trkpt>
      <trkpt lat="43.50823" lon="5.46068">
        <ele>183</ele>
        <time>2017-03-22T09:13:32Z</time>
      </trkpt>
      <trkpt lat="43.50819" lon="5.46058">
        <ele>185</ele>
        <time>2017-03-22T09:13:40Z</time>
      </trkpt>
      <trkpt lat="43.50814" lon="5.46048">
        <ele>187</ele>
        <time>2017-03-22T09:13:50Z</time>
      </trkpt>
      <trkpt lat="43.50809" lon="5.46038">
        <ele>192</ele>
        <time>2017-03-22T09:14:00Z</time>
      </trkpt>
      <trkpt lat="43.50802" lon="5.46033">
        <ele>195</ele>
        <time>2017-03-22T09:14:09Z</time>
      </trkpt>
      <trkpt lat="43.50795" lon="5.46027">
        <ele>194</ele>
        <time>2017-03-22T09:14:17Z</time>
      </trkpt>
      <trkpt lat="43.50788" lon="5.46021">
        <ele>197</ele>
        <time>2017-03-22T09:14:25Z</time>
      </trkpt>
      <trkpt lat="43.50781" lon="5.46016">
        <ele>200</ele>
        <time>2017-03-22T09:14:33Z</time>
      </trkpt>
      <trkpt lat="43.50774" lon="5.46008">
        <ele>204</ele>
        <time>2017-03-22T09:14:46Z</time>
      </trkpt>
      <trkpt lat="43.50765" lon="5.46007">
        <ele>204</ele>
        <time>2017-03-22T09:15:01Z</time>
      </trkpt>
      <trkpt lat="43.50757" lon="5.46008">
        <ele>203</ele>
        <time>2017-03-22T09:15:10Z</time>
      </trkpt>
      <trkpt lat="43.5075" lon="5.46014">
        <ele>208</ele>
        <time>2017-03-22T09:15:19Z</time>
      </trkpt>
      <trkpt lat="43.50742" lon="5.46017">
        <ele>208</ele>
        <time>2017-03-22T09:15:26Z</time>
      </trkpt>
      <trkpt lat="43.50737" lon="5.46026">
        <ele>207</ele>
        <time>2017-03-22T09:15:38Z</time>
      </trkpt>
      <trkpt lat="43.50737" lon="5.46037">
        <ele>205</ele>
        <time>2017-03-22T09:15:44Z</time>
      </trkpt>
      <trkpt lat="43.50736" lon="5.46047">
        <ele>206</ele>
        <time>2017-03-22T09:15:49Z</time>
      </trkpt>
      <trkpt lat="43.50731" lon="5.46057">
        <ele>203</ele>
        <time>2017-03-22T09:15:57Z</time>
      </trkpt>
      <trkpt lat="43.50725" lon="5.46065">
        <ele>202</ele>
        <time>2017-03-22T09:16:10Z</time>
      </trkpt>
      <trkpt lat="43.50719" lon="5.46072">
        <ele>202</ele>
        <time>2017-03-22T09:16:19Z</time>
      </trkpt>
      <trkpt lat="43.50711" lon="5.46076">
        <ele>203</ele>
        <time>2017-03-22T09:16:27Z</time>
      </trkpt>
      <trkpt lat="43.50706" lon="5.46086">
        <ele>205</ele>
        <time>2017-03-22T09:16:33Z</time>
      </trkpt>
      <trkpt lat="43.50699" lon="5.46093">
        <ele>204</ele>
        <time>2017-03-22T09:16:40Z</time>
      </trkpt>
      <trkpt lat="43.50692" lon="5.46098">
        <ele>204</ele>
        <time>2017-03-22T09:16:46Z</time>
      </trkpt>
      <trkpt lat="43.50686" lon="5.46107">
        <ele>204</ele>
        <time>2017-03-22T09:16:54Z</time>
      </trkpt>
      <trkpt lat="43.50684" lon="5.46118">
        <ele>203</ele>
        <time>2017-03-22T09:17:01Z</time>
      </trkpt>
      <trkpt lat="43.5068" lon="5.46128">
        <ele>205</ele>
        <time>2017-03-22T09:17:09Z</time>
      </trkpt>
      <trkpt lat="43.50677" lon="5.46138">
        <ele>208</ele>
        <time>2017-03-22T09:17:16Z</time>
      </trkpt>
      <trkpt lat="43.50674" lon="5.46149">
        <ele>209</ele>
        <time>2017-03-22T09:17:23Z</time>
      </trkpt>
      <trkpt lat="43.50668" lon="5.46159">
        <ele>209</ele>
        <time>2017-03-22T09:17:30Z</time>
      </trkpt>
      <trkpt lat="43.50664" lon="5.46169">
        <ele>211</ele>
        <time>2017-03-22T09:17:39Z</time>
      </trkpt>
      <trkpt lat="43.50656" lon="5.46172">
        <ele>213</ele>
        <time>2017-03-22T09:17:48Z</time>
      </trkpt>
      <trkpt lat="43.50647" lon="5.46172">
        <ele>217</ele>
        <time>2017-03-22T09:17:58Z</time>
      </trkpt>
      <trkpt lat="43.50639" lon="5.46173">
        <ele>218</ele>
        <time>2017-03-22T09:18:06Z</time>
      </trkpt>
      <trkpt lat="43.5063" lon="5.46174">
        <ele>218</ele>
        <time>2017-03-22T09:18:15Z</time>
      </trkpt>
      <trkpt lat="43.50622" lon="5.46174">
        <ele>220</ele>
        <time>2017-03-22T09:18:35Z</time>
      </trkpt>
      <trkpt lat="43.50613" lon="5.46175">
        <ele>220</ele>
        <time>2017-03-22T09:18:44Z</time>
      </trkpt>
      <trkpt lat="43.50605" lon="5.46179">
        <ele>219</ele>
        <time>2017-03-22T09:18:57Z</time>
      </trkpt>
      <trkpt lat="43.50598" lon="5.46184">
        <ele>222</ele>
        <time>2017-03-22T09:19:06Z</time>
      </trkpt>
      <trkpt lat="43.5059" lon="5.46186">
        <ele>224</ele>
        <time>2017-03-22T09:19:16Z</time>
      </trkpt>
      <trkpt lat="43.50581" lon="5.46189">
        <ele>225</ele>
        <time>2017-03-22T09:19:26Z</time>
      </trkpt>
      <trkpt lat="43.50574" lon="5.46193">
        <ele>225</ele>
        <time>2017-03-22T09:19:35Z</time>
      </trkpt>
      <trkpt lat="43.50566" lon="5.46198">
        <ele>224</ele>
        <time>2017-03-22T09:19:45Z</time>
      </trkpt>
      <trkpt lat="43.50561" lon="5.46207">
        <ele>227</ele>
        <time>2017-03-22T09:19:54Z</time>
      </trkpt>
      <trkpt lat="43.50556" lon="5.46215">
        <ele>232</ele>
        <time>2017-03-22T09:20:02Z</time>
      </trkpt>
      <trkpt lat="43.5055" lon="5.46224">
        <ele>229</ele>
        <time>2017-03-22T09:20:12Z</time>
      </trkpt>
      <trkpt lat="43.50546" lon="5.46234">
        <ele>227</ele>
        <time>2017-03-22T09:20:21Z</time>
      </trkpt>
      <trkpt lat="43.50541" lon="5.46243">
        <ele>229</ele>
        <time>2017-03-22T09:20:40Z</time>
      </trkpt>
      <trkpt lat="43.50535" lon="5.46249">
        <ele>231</ele>
        <time>2017-03-22T09:20:48Z</time>
      </trkpt>
      <trkpt lat="43.50528" lon="5.46257">
        <ele>232</ele>
        <time>2017-03-22T09:20:56Z</time>
      </trkpt>
      <trkpt lat="43.50521" lon="5.46265">
        <ele>233</ele>
        <time>2017-03-22T09:21:05Z</time>
      </trkpt>
      <trkpt lat="43.50514" lon="5.46272">
        <ele>230</ele>
        <time>2017-03-22T09:21:15Z</time>
      </trkpt>
      <trkpt lat="43.50507" lon="5.46278">
        <ele>227</ele>
        <time>2017-03-22T09:21:27Z</time>
      </trkpt>
      <trkpt lat="43.50499" lon="5.46283">
        <ele>227</ele>
        <time>2017-03-22T09:21:37Z</time>
      </trkpt>
      <trkpt lat="43.50491" lon="5.46284">
        <ele>230</ele>
        <time>2017-03-22T09:21:44Z</time>
      </trkpt>
      <trkpt lat="43.50484" lon="5.46291">
        <ele>233</ele>
        <time>2017-03-22T09:21:55Z</time>
      </trkpt>
      <trkpt lat="43.50478" lon="5.463">
        <ele>236</ele>
        <time>2017-03-22T09:22:15Z</time>
      </trkpt>
      <trkpt lat="43.50478" lon="5.46311">
        <ele>242</ele>
        <time>2017-03-22T09:22:23Z</time>
      </trkpt>
      <trkpt lat="43.50476" lon="5.46323">
        <ele>243</ele>
        <time>2017-03-22T09:22:31Z</time>
      </trkpt>
      <trkpt lat="43.50472" lon="5.46332">
        <ele>242</ele>
        <time>2017-03-22T09:22:39Z</time>
      </trkpt>
      <trkpt lat="43.50466" lon="5.4634">
        <ele>239</ele>
        <time>2017-03-22T09:22:45Z</time>
      </trkpt>
      <trkpt lat="43.5046" lon="5.46349">
        <ele>237</ele>
        <time>2017-03-22T09:22:51Z</time>
      </trkpt>
      <trkpt lat="43.50455" lon="5.46358">
        <ele>239</ele>
        <time>2017-03-22T09:22:58Z</time>
      </trkpt>
      <trkpt lat="43.50453" lon="5.46369">
        <ele>239</ele>
        <time>2017-03-22T09:23:05Z</time>
      </trkpt>
      <trkpt lat="43.50449" lon="5.4638">
        <ele>239</ele>
        <time>2017-03-22T09:23:13Z</time>
      </trkpt>
      <trkpt lat="43.50446" lon="5.46389">
        <ele>236</ele>
        <time>2017-03-22T09:23:21Z</time>
      </trkpt>
      <trkpt lat="43.50441" lon="5.46397">
        <ele>239</ele>
        <time>2017-03-22T09:23:30Z</time>
      </trkpt>
      <trkpt lat="43.50434" lon="5.46403">
        <ele>238</ele>
        <time>2017-03-22T09:23:36Z</time>
      </trkpt>
      <trkpt lat="43.50427" lon="5.46409">
        <ele>238</ele>
        <time>2017-03-22T09:23:43Z</time>
      </trkpt>
      <trkpt lat="43.5042" lon="5.46416">
        <ele>240</ele>
        <time>2017-03-22T09:23:50Z</time>
      </trkpt>
      <trkpt lat="43.50414" lon="5.46422">
        <ele>237</ele>
        <time>2017-03-22T09:24:00Z</time>
      </trkpt>
      <trkpt lat="43.50405" lon="5.46424">
        <ele>238</ele>
        <time>2017-03-22T09:24:10Z</time>
      </trkpt>
      <trkpt lat="43.50399" lon="5.46418">
        <ele>235</ele>
        <time>2017-03-22T09:24:21Z</time>
      </trkpt>
      <trkpt lat="43.5039" lon="5.46415">
        <ele>233</ele>
        <time>2017-03-22T09:24:27Z</time>
      </trkpt>
      <trkpt lat="43.50381" lon="5.46413">
        <ele>233</ele>
        <time>2017-03-22T09:24:36Z</time>
      </trkpt>
      <trkpt lat="43.50373" lon="5.4641">
        <ele>232</ele>
        <time>2017-03-22T09:24:46Z</time>
      </trkpt>
      <trkpt lat="43.50366" lon="5.46409">
        <ele>234</ele>
        <time>2017-03-22T09:24:51Z</time>
      </trkpt>
      <trkpt lat="43.50359" lon="5.46405">
        <ele>236</ele>
        <time>2017-03-22T09:24:58Z</time>
      </trkpt>
      <trkpt lat="43.5035" lon="5.46402">
        <ele>235</ele>
        <time>2017-03-22T09:25:05Z</time>
      </trkpt>
      <trkpt lat="43.50343" lon="5.46401">
        <ele>235</ele>
        <time>2017-03-22T09:25:12Z</time>
      </trkpt>
      <trkpt lat="43.50334" lon="5.46398">
        <ele>235</ele>
        <time>2017-03-22T09:25:19Z</time>
      </trkpt>
      <trkpt lat="43.50326" lon="5.46395">
        <ele>235</ele>
        <time>2017-03-22T09:25:26Z</time>
      </trkpt>
      <trkpt lat="43.50319" lon="5.4639">
        <ele>237</ele>
        <time>2017-03-22T09:25:34Z</time>
      </trkpt>
      <trkpt lat="43.50311" lon="5.46388">
        <ele>237</ele>
        <time>2017-03-22T09:25:39Z</time>
      </trkpt>
      <trkpt lat="43.50305" lon="5.46384">
        <ele>234</ele>
        <time>2017-03-22T09:25:47Z</time>
      </trkpt>
      <trkpt lat="43.50297" lon="5.46381">
        <ele>235</ele>
        <time>2017-03-22T09:25:53Z</time>
      </trkpt>
      <trkpt lat="43.50289" lon="5.46379">
        <ele>236</ele>
        <time>2017-03-22T09:25:59Z</time>
      </trkpt>
      <trkpt lat="43.50281" lon="5.46377">
        <ele>236</ele>
        <time>2017-03-22T09:26:05Z</time>
      </trkpt>
      <trkpt lat="43.50274" lon="5.46372">
        <ele>238</ele>
        <time>2017-03-22T09:26:12Z</time>
      </trkpt>
      <trkpt lat="43.50266" lon="5.4637">
        <ele>237</ele>
        <time>2017-03-22T09:26:18Z</time>
      </trkpt>
      <trkpt lat="43.50259" lon="5.46364">
        <ele>240</ele>
        <time>2017-03-22T09:26:26Z</time>
      </trkpt>
      <trkpt lat="43.50251" lon="5.46361">
        <ele>237</ele>
        <time>2017-03-22T09:26:34Z</time>
      </trkpt>
      <trkpt lat="43.50243" lon="5.46357">
        <ele>236</ele>
        <time>2017-03-22T09:26:42Z</time>
      </trkpt>
      <trkpt lat="43.50236" lon="5.46353">
        <ele>234</ele>
        <time>2017-03-22T09:26:49Z</time>
      </trkpt>
      <trkpt lat="43.50228" lon="5.4635">
        <ele>234</ele>
        <time>2017-03-22T09:26:55Z</time>
      </trkpt>
      <trkpt lat="43.50221" lon="5.46345">
        <ele>235</ele>
        <time>2017-03-22T09:27:02Z</time>
      </trkpt>
      <trkpt lat="43.50213" lon="5.46345">
        <ele>238</ele>
        <time>2017-03-22T09:27:09Z</time>
      </trkpt>
      <trkpt lat="43.50205" lon="5.46339">
        <ele>235</ele>
        <time>2017-03-22T09:27:19Z</time>
      </trkpt>
      <trkpt lat="43.50197" lon="5.46337">
        <ele>232</ele>
        <time>2017-03-22T09:27:27Z</time>
      </trkpt>
      <trkpt lat="43.50188" lon="5.46335">
        <ele>232</ele>
        <time>2017-03-22T09:27:33Z</time>
      </trkpt>
      <trkpt lat="43.5018" lon="5.46338">
        <ele>235</ele>
        <time>2017-03-22T09:27:39Z</time>
      </trkpt>
      <trkpt lat="43.50173" lon="5.46339">
        <ele>232</ele>
        <time>2017-03-22T09:27:45Z</time>
      </trkpt>
      <trkpt lat="43.50164" lon="5.46342">
        <ele>233</ele>
        <time>2017-03-22T09:27:53Z</time>
      </trkpt>
      <trkpt lat="43.50156" lon="5.46343">
        <ele>234</ele>
        <time>2017-03-22T09:28:00Z</time>
      </trkpt>
      <trkpt lat="43.50147" lon="5.46343">
        <ele>232</ele>
        <time>2017-03-22T09:28:07Z</time>
      </trkpt>
      <trkpt lat="43.50139" lon="5.46345">
        <ele>232</ele>
        <time>2017-03-22T09:28:14Z</time>
      </trkpt>
      <trkpt lat="43.5013" lon="5.46348">
        <ele>234</ele>
        <time>2017-03-22T09:28:20Z</time>
      </trkpt>
      <trkpt lat="43.50125" lon="5.46358">
        <ele>243</ele>
        <time>2017-03-22T09:29:33Z</time>
      </trkpt>
      <trkpt lat="43.50118" lon="5.46353">
        <ele>233</ele>
        <time>2017-03-22T09:32:54Z</time>
      </trkpt>
      <trkpt lat="43.5011" lon="5.46357">
        <ele>233</ele>
        <time>2017-03-22T09:33:01Z</time>
      </trkpt>
      <trkpt lat="43.50102" lon="5.46359">
        <ele>237</ele>
        <time>2017-03-22T09:33:09Z</time>
      </trkpt>
      <trkpt lat="43.50095" lon="5.46364">
        <ele>240</ele>
        <time>2017-03-22T09:33:16Z</time>
      </trkpt>
      <trkpt lat="43.50088" lon="5.46371">
        <ele>241</ele>
        <time>2017-03-22T09:33:24Z</time>
      </trkpt>
      <trkpt lat="43.50081" lon="5.46376">
        <ele>245</ele>
        <time>2017-03-22T09:33:31Z</time>
      </trkpt>
      <trkpt lat="43.50073" lon="5.4638">
        <ele>247</ele>
        <time>2017-03-22T09:33:40Z</time>
      </trkpt>
      <trkpt lat="43.50065" lon="5.46382">
        <ele>244</ele>
        <time>2017-03-22T09:33:49Z</time>
      </trkpt>
      <trkpt lat="43.50057" lon="5.4638">
        <ele>245</ele>
        <time>2017-03-22T09:33:57Z</time>
      </trkpt>
      <trkpt lat="43.50049" lon="5.46379">
        <ele>247</ele>
        <time>2017-03-22T09:34:08Z</time>
      </trkpt>
      <trkpt lat="43.50041" lon="5.46382">
        <ele>245</ele>
        <time>2017-03-22T09:34:14Z</time>
      </trkpt>
      <trkpt lat="43.50033" lon="5.46387">
        <ele>244</ele>
        <time>2017-03-22T09:34:24Z</time>
      </trkpt>
      <trkpt lat="43.50025" lon="5.46382">
        <ele>244</ele>
        <time>2017-03-22T09:34:37Z</time>
      </trkpt>
      <trkpt lat="43.50017" lon="5.46378">
        <ele>246</ele>
        <time>2017-03-22T09:34:46Z</time>
      </trkpt>
      <trkpt lat="43.5001" lon="5.46375">
        <ele>244</ele>
        <time>2017-03-22T09:34:56Z</time>
      </trkpt>
      <trkpt lat="43.50001" lon="5.46373">
        <ele>243</ele>
        <time>2017-03-22T09:35:04Z</time>
      </trkpt>
      <trkpt lat="43.49992" lon="5.46375">
        <ele>245</ele>
        <time>2017-03-22T09:35:12Z</time>
      </trkpt>
      <trkpt lat="43.49984" lon="5.46373">
        <ele>245</ele>
        <time>2017-03-22T09:35:21Z</time>
      </trkpt>
      <trkpt lat="43.49976" lon="5.46368">
        <ele>247</ele>
        <time>2017-03-22T09:35:30Z</time>
      </trkpt>
      <trkpt lat="43.49968" lon="5.46364">
        <ele>246</ele>
        <time>2017-03-22T09:36:11Z</time>
      </trkpt>
      <trkpt lat="43.49964" lon="5.46354">
        <ele>246</ele>
        <time>2017-03-22T09:36:24Z</time>
      </trkpt>
      <trkpt lat="43.4996" lon="5.46342">
        <ele>250</ele>
        <time>2017-03-22T09:36:41Z</time>
      </trkpt>
      <trkpt lat="43.49956" lon="5.46332">
        <ele>251</ele>
        <time>2017-03-22T09:36:54Z</time>
      </trkpt>
      <trkpt lat="43.4995" lon="5.46324">
        <ele>251</ele>
        <time>2017-03-22T09:37:04Z</time>
      </trkpt>
      <trkpt lat="43.49946" lon="5.46313">
        <ele>251</ele>
        <time>2017-03-22T09:37:18Z</time>
      </trkpt>
      <trkpt lat="43.49943" lon="5.46302">
        <ele>253</ele>
        <time>2017-03-22T09:37:32Z</time>
      </trkpt>
      <trkpt lat="43.49937" lon="5.46294">
        <ele>253</ele>
        <time>2017-03-22T09:37:41Z</time>
      </trkpt>
      <trkpt lat="43.49935" lon="5.46283">
        <ele>254</ele>
        <time>2017-03-22T09:37:58Z</time>
      </trkpt>
      <trkpt lat="43.49931" lon="5.46273">
        <ele>255</ele>
        <time>2017-03-22T09:38:08Z</time>
      </trkpt>
      <trkpt lat="43.49927" lon="5.46262">
        <ele>261</ele>
        <time>2017-03-22T09:38:26Z</time>
      </trkpt>
      <trkpt lat="43.49923" lon="5.46251">
        <ele>267</ele>
        <time>2017-03-22T09:38:42Z</time>
      </trkpt>
      <trkpt lat="43.4992" lon="5.4624">
        <ele>268</ele>
        <time>2017-03-22T09:38:57Z</time>
      </trkpt>
      <trkpt lat="43.4992" lon="5.46228">
        <ele>271</ele>
        <time>2017-03-22T09:39:12Z</time>
      </trkpt>
      <trkpt lat="43.4992" lon="5.46216">
        <ele>274</ele>
        <time>2017-03-22T09:39:28Z</time>
      </trkpt>
      <trkpt lat="43.49915" lon="5.46206">
        <ele>275</ele>
        <time>2017-03-22T09:39:47Z</time>
      </trkpt>
      <trkpt lat="43.49908" lon="5.46201">
        <ele>272</ele>
        <time>2017-03-22T09:39:57Z</time>
      </trkpt>
      <trkpt lat="43.49899" lon="5.46198">
        <ele>272</ele>
        <time>2017-03-22T09:40:11Z</time>
      </trkpt>
      <trkpt lat="43.49893" lon="5.46191">
        <ele>272</ele>
        <time>2017-03-22T09:40:30Z</time>
      </trkpt>
      <trkpt lat="43.49885" lon="5.46187">
        <ele>281</ele>
        <time>2017-03-22T09:40:53Z</time>
      </trkpt>
      <trkpt lat="43.49881" lon="5.46176">
        <ele>282</ele>
        <time>2017-03-22T09:41:03Z</time>
      </trkpt>
      <trkpt lat="43.49876" lon="5.46166">
        <ele>285</ele>
        <time>2017-03-22T09:41:13Z</time>
      </trkpt>
      <trkpt lat="43.4987" lon="5.4616">
        <ele>284</ele>
        <time>2017-03-22T09:41:21Z</time>
      </trkpt>
      <trkpt lat="43.49864" lon="5.46151">
        <ele>283</ele>
        <time>2017-03-22T09:41:53Z</time>
      </trkpt>
      <trkpt lat="43.49861" lon="5.4614">
        <ele>283</ele>
        <time>2017-03-22T09:42:04Z</time>
      </trkpt>
      <trkpt lat="43.49858" lon="5.46128">
        <ele>284</ele>
        <time>2017-03-22T09:42:16Z</time>
      </trkpt>
      <trkpt lat="43.49855" lon="5.46117">
        <ele>288</ele>
        <time>2017-03-22T09:42:43Z</time>
      </trkpt>
      <trkpt lat="43.49849" lon="5.46109">
        <ele>291</ele>
        <time>2017-03-22T09:42:56Z</time>
      </trkpt>
      <trkpt lat="43.49842" lon="5.46102">
        <ele>292</ele>
        <time>2017-03-22T09:43:07Z</time>
      </trkpt>
      <trkpt lat="43.49833" lon="5.46103">
        <ele>299</ele>
        <time>2017-03-22T09:43:19Z</time>
      </trkpt>
      <trkpt lat="43.49824" lon="5.461">
        <ele>299</ele>
        <time>2017-03-22T09:43:29Z</time>
      </trkpt>
      <trkpt lat="43.49816" lon="5.46103">
        <ele>299</ele>
        <time>2017-03-22T09:43:43Z</time>
      </trkpt>
      <trkpt lat="43.49808" lon="5.461">
        <ele>302</ele>
        <time>2017-03-22T09:43:57Z</time>
      </trkpt>
      <trkpt lat="43.49799" lon="5.46102">
        <ele>301</ele>
        <time>2017-03-22T09:44:12Z</time>
      </trkpt>
      <trkpt lat="43.49791" lon="5.46096">
        <ele>303</ele>
        <time>2017-03-22T09:44:23Z</time>
      </trkpt>
      <trkpt lat="43.49787" lon="5.46087">
        <ele>303</ele>
        <time>2017-03-22T09:44:31Z</time>
      </trkpt>
      <trkpt lat="43.49779" lon="5.46081">
        <ele>303</ele>
        <time>2017-03-22T09:44:42Z</time>
      </trkpt>
      <trkpt lat="43.49772" lon="5.4608">
        <ele>304</ele>
        <time>2017-03-22T09:44:50Z</time>
      </trkpt>
      <trkpt lat="43.49764" lon="5.46077">
        <ele>302</ele>
        <time>2017-03-22T09:44:57Z</time>
      </trkpt>
      <trkpt lat="43.49756" lon="5.46077">
        <ele>301</ele>
        <time>2017-03-22T09:45:04Z</time>
      </trkpt>
      <trkpt lat="43.49748" lon="5.46079">
        <ele>302</ele>
        <time>2017-03-22T09:45:12Z</time>
      </trkpt>
      <trkpt lat="43.4974" lon="5.46079">
        <ele>304</ele>
        <time>2017-03-22T09:45:22Z</time>
      </trkpt>
      <trkpt lat="43.49732" lon="5.46082">
        <ele>303</ele>
        <time>2017-03-22T09:45:30Z</time>
      </trkpt>
      <trkpt lat="43.49724" lon="5.46085">
        <ele>304</ele>
        <time>2017-03-22T09:46:00Z</time>
      </trkpt>
      <trkpt lat="43.49719" lon="5.46096">
        <ele>304</ele>
        <time>2017-03-22T09:46:09Z</time>
      </trkpt>
      <trkpt lat="43.49719" lon="5.46107">
        <ele>304</ele>
        <time>2017-03-22T09:46:16Z</time>
      </trkpt>
      <trkpt lat="43.49723" lon="5.46117">
        <ele>308</ele>
        <time>2017-03-22T09:46:30Z</time>
      </trkpt>
      <trkpt lat="43.4973" lon="5.46125">
        <ele>309</ele>
        <time>2017-03-22T09:46:39Z</time>
      </trkpt>
      <trkpt lat="43.49733" lon="5.46135">
        <ele>310</ele>
        <time>2017-03-22T09:46:51Z</time>
      </trkpt>
      <trkpt lat="43.49733" lon="5.46147">
        <ele>314</ele>
        <time>2017-03-22T09:47:13Z</time>
      </trkpt>
      <trkpt lat="43.49726" lon="5.46154">
        <ele>311</ele>
        <time>2017-03-22T09:47:39Z</time>
      </trkpt>
      <trkpt lat="43.49721" lon="5.46164">
        <ele>317</ele>
        <time>2017-03-22T09:47:55Z</time>
      </trkpt>
      <trkpt lat="43.49713" lon="5.46169">
        <ele>318</ele>
        <time>2017-03-22T09:48:07Z</time>
      </trkpt>
      <trkpt lat="43.49707" lon="5.46176">
        <ele>321</ele>
        <time>2017-03-22T09:48:17Z</time>
      </trkpt>
      <trkpt lat="43.49699" lon="5.46182">
        <ele>323</ele>
        <time>2017-03-22T09:48:28Z</time>
      </trkpt>
      <trkpt lat="43.49692" lon="5.46188">
        <ele>326</ele>
        <time>2017-03-22T09:48:41Z</time>
      </trkpt>
      <trkpt lat="43.49684" lon="5.46191">
        <ele>325</ele>
        <time>2017-03-22T09:48:50Z</time>
      </trkpt>
      <trkpt lat="43.49683" lon="5.46202">
        <ele>323</ele>
        <time>2017-03-22T09:49:02Z</time>
      </trkpt>
      <trkpt lat="43.49676" lon="5.46208">
        <ele>328</ele>
        <time>2017-03-22T09:49:18Z</time>
      </trkpt>
      <trkpt lat="43.4967" lon="5.46217">
        <ele>330</ele>
        <time>2017-03-22T09:49:31Z</time>
      </trkpt>
      <trkpt lat="43.49665" lon="5.46227">
        <ele>334</ele>
        <time>2017-03-22T09:49:44Z</time>
      </trkpt>
      <trkpt lat="43.4966" lon="5.46237">
        <ele>339</ele>
        <time>2017-03-22T09:49:53Z</time>
      </trkpt>
      <trkpt lat="43.49657" lon="5.46248">
        <ele>338</ele>
        <time>2017-03-22T09:50:05Z</time>
      </trkpt>
      <trkpt lat="43.49656" lon="5.46261">
        <ele>335</ele>
        <time>2017-03-22T09:50:16Z</time>
      </trkpt>
      <trkpt lat="43.49653" lon="5.4627">
        <ele>344</ele>
        <time>2017-03-22T09:50:24Z</time>
      </trkpt>
      <trkpt lat="43.49652" lon="5.46282">
        <ele>345</ele>
        <time>2017-03-22T09:50:32Z</time>
      </trkpt>
      <trkpt lat="43.49651" lon="5.46294">
        <ele>345</ele>
        <time>2017-03-22T09:50:41Z</time>
      </trkpt>
      <trkpt lat="43.49659" lon="5.46293">
        <ele>344</ele>
        <time>2017-03-22T09:50:51Z</time>
      </trkpt>
      <trkpt lat="43.49666" lon="5.46285">
        <ele>343</ele>
        <time>2017-03-22T09:51:02Z</time>
      </trkpt>
      <trkpt lat="43.49658" lon="5.4629">
        <ele>339</ele>
        <time>2017-03-22T09:59:36Z</time>
      </trkpt>
      <trkpt lat="43.4965" lon="5.46294">
        <ele>336</ele>
        <time>2017-03-22T09:59:49Z</time>
      </trkpt>
      <trkpt lat="43.49642" lon="5.46299">
        <ele>345</ele>
        <time>2017-03-22T10:00:04Z</time>
      </trkpt>
      <trkpt lat="43.49634" lon="5.46297">
        <ele>342</ele>
        <time>2017-03-22T10:00:11Z</time>
      </trkpt>
      <trkpt lat="43.49625" lon="5.46296">
        <ele>338</ele>
        <time>2017-03-22T10:00:18Z</time>
      </trkpt>
      <trkpt lat="43.49616" lon="5.46295">
        <ele>336</ele>
        <time>2017-03-22T10:00:24Z</time>
      </trkpt>
      <trkpt lat="43.49608" lon="5.46298">
        <ele>337</ele>
        <time>2017-03-22T10:00:33Z</time>
      </trkpt>
      <trkpt lat="43.496" lon="5.46301">
        <ele>337</ele>
        <time>2017-03-22T10:00:42Z</time>
      </trkpt>
      <trkpt lat="43.49591" lon="5.46302">
        <ele>336</ele>
        <time>2017-03-22T10:00:50Z</time>
      </trkpt>
      <trkpt lat="43.49583" lon="5.46301">
        <ele>334</ele>
        <time>2017-03-22T10:00:56Z</time>
      </trkpt>
      <trkpt lat="43.49574" lon="5.46304">
        <ele>333</ele>
        <time>2017-03-22T10:01:05Z</time>
      </trkpt>
      <trkpt lat="43.49566" lon="5.46305">
        <ele>333</ele>
        <time>2017-03-22T10:01:12Z</time>
      </trkpt>
      <trkpt lat="43.49557" lon="5.46306">
        <ele>337</ele>
        <time>2017-03-22T10:01:23Z</time>
      </trkpt>
      <trkpt lat="43.49549" lon="5.46309">
        <ele>339</ele>
        <time>2017-03-22T10:01:32Z</time>
      </trkpt>
      <trkpt lat="43.49541" lon="5.46313">
        <ele>341</ele>
        <time>2017-03-22T10:01:42Z</time>
      </trkpt>
      <trkpt lat="43.49533" lon="5.46316">
        <ele>341</ele>
        <time>2017-03-22T10:01:52Z</time>
      </trkpt>
      <trkpt lat="43.49524" lon="5.46317">
        <ele>346</ele>
        <time>2017-03-22T10:02:03Z</time>
      </trkpt>
      <trkpt lat="43.49516" lon="5.46321">
        <ele>345</ele>
        <time>2017-03-22T10:02:12Z</time>
      </trkpt>
      <trkpt lat="43.49507" lon="5.46322">
        <ele>344</ele>
        <time>2017-03-22T10:02:21Z</time>
      </trkpt>
      <trkpt lat="43.49499" lon="5.46323">
        <ele>344</ele>
        <time>2017-03-22T10:02:28Z</time>
      </trkpt>
      <trkpt lat="43.49491" lon="5.46327">
        <ele>345</ele>
        <time>2017-03-22T10:02:38Z</time>
      </trkpt>
      <trkpt lat="43.49482" lon="5.4633">
        <ele>344</ele>
        <time>2017-03-22T10:02:47Z</time>
      </trkpt>
      <trkpt lat="43.49475" lon="5.46336">
        <ele>346</ele>
        <time>2017-03-22T10:02:58Z</time>
      </trkpt>
      <trkpt lat="43.49467" lon="5.46339">
        <ele>349</ele>
        <time>2017-03-22T10:03:04Z</time>
      </trkpt>
      <trkpt lat="43.49459" lon="5.46342">
        <ele>347</ele>
        <time>2017-03-22T10:03:12Z</time>
      </trkpt>
      <trkpt lat="43.49451" lon="5.46345">
        <ele>347</ele>
        <time>2017-03-22T10:03:19Z</time>
      </trkpt>
      <trkpt lat="43.49443" lon="5.46347">
        <ele>349</ele>
        <time>2017-03-22T10:03:27Z</time>
      </trkpt>
      <trkpt lat="43.49435" lon="5.46349">
        <ele>350</ele>
        <time>2017-03-22T10:03:36Z</time>
      </trkpt>
      <trkpt lat="43.49427" lon="5.46353">
        <ele>352</ele>
        <time>2017-03-22T10:03:45Z</time>
      </trkpt>
      <trkpt lat="43.49419" lon="5.46354">
        <ele>352</ele>
        <time>2017-03-22T10:03:52Z</time>
      </trkpt>
      <trkpt lat="43.49411" lon="5.46357">
        <ele>352</ele>
        <time>2017-03-22T10:03:58Z</time>
      </trkpt>
      <trkpt lat="43.49402" lon="5.4636">
        <ele>354</ele>
        <time>2017-03-22T10:04:07Z</time>
      </trkpt>
      <trkpt lat="43.49395" lon="5.46367">
        <ele>356</ele>
        <time>2017-03-22T10:05:01Z</time>
      </trkpt>
      <trkpt lat="43.49386" lon="5.46368">
        <ele>354</ele>
        <time>2017-03-22T10:05:12Z</time>
      </trkpt>
      <trkpt lat="43.49379" lon="5.46373">
        <ele>353</ele>
        <time>2017-03-22T10:05:28Z</time>
      </trkpt>
      <trkpt lat="43.4937" lon="5.46373">
        <ele>354</ele>
        <time>2017-03-22T10:05:35Z</time>
      </trkpt>
      <trkpt lat="43.49362" lon="5.46375">
        <ele>356</ele>
        <time>2017-03-22T10:05:45Z</time>
      </trkpt>
      <trkpt lat="43.49353" lon="5.46378">
        <ele>356</ele>
        <time>2017-03-22T10:06:24Z</time>
      </trkpt>
      <trkpt lat="43.49352" lon="5.46366">
        <ele>358</ele>
        <time>2017-03-22T10:06:42Z</time>
      </trkpt>
      <trkpt lat="43.49349" lon="5.46356">
        <ele>358</ele>
        <time>2017-03-22T10:06:58Z</time>
      </trkpt>
      <trkpt lat="43.49345" lon="5.46346">
        <ele>352</ele>
        <time>2017-03-22T10:07:05Z</time>
      </trkpt>
      <trkpt lat="43.49343" lon="5.46335">
        <ele>355</ele>
        <time>2017-03-22T10:07:20Z</time>
      </trkpt>
      <trkpt lat="43.49343" lon="5.46323">
        <ele>355</ele>
        <time>2017-03-22T10:07:28Z</time>
      </trkpt>
      <trkpt lat="43.49343" lon="5.46312">
        <ele>354</ele>
        <time>2017-03-22T10:07:38Z</time>
      </trkpt>
      <trkpt lat="43.49345" lon="5.46301">
        <ele>354</ele>
        <time>2017-03-22T10:07:48Z</time>
      </trkpt>
      <trkpt lat="43.49347" lon="5.46289">
        <ele>352</ele>
        <time>2017-03-22T10:07:57Z</time>
      </trkpt>
      <trkpt lat="43.49351" lon="5.46279">
        <ele>349</ele>
        <time>2017-03-22T10:08:05Z</time>
      </trkpt>
      <trkpt lat="43.49356" lon="5.46269">
        <ele>347</ele>
        <time>2017-03-22T10:08:14Z</time>
      </trkpt>
      <trkpt lat="43.49355" lon="5.46257">
        <ele>347</ele>
        <time>2017-03-22T10:08:31Z</time>
      </trkpt>
      <trkpt lat="43.49348" lon="5.46257">
        <ele>345</ele>
        <time>2017-03-22T10:08:42Z</time>
      </trkpt>
      <trkpt lat="43.49339" lon="5.46261">
        <ele>344</ele>
        <time>2017-03-22T10:08:50Z</time>
      </trkpt>
      <trkpt lat="43.49333" lon="5.4627">
        <ele>340</ele>
        <time>2017-03-22T10:08:59Z</time>
      </trkpt>
      <trkpt lat="43.49326" lon="5.46277">
        <ele>339</ele>
        <time>2017-03-22T10:09:08Z</time>
      </trkpt>
      <trkpt lat="43.49321" lon="5.46286">
        <ele>339</ele>
        <time>2017-03-22T10:09:15Z</time>
      </trkpt>
      <trkpt lat="43.49316" lon="5.46296">
        <ele>338</ele>
        <time>2017-03-22T10:09:25Z</time>
      </trkpt>
      <trkpt lat="43.49311" lon="5.46305">
        <ele>338</ele>
        <time>2017-03-22T10:09:32Z</time>
      </trkpt>
      <trkpt lat="43.49306" lon="5.46313">
        <ele>334</ele>
        <time>2017-03-22T10:09:41Z</time>
      </trkpt>
      <trkpt lat="43.49302" lon="5.46323">
        <ele>336</ele>
        <time>2017-03-22T10:09:48Z</time>
      </trkpt>
      <trkpt lat="43.49298" lon="5.46332">
        <ele>335</ele>
        <time>2017-03-22T10:09:55Z</time>
      </trkpt>
      <trkpt lat="43.49296" lon="5.46344">
        <ele>335</ele>
        <time>2017-03-22T10:10:03Z</time>
      </trkpt>
      <trkpt lat="43.49293" lon="5.46355">
        <ele>334</ele>
        <time>2017-03-22T10:10:10Z</time>
      </trkpt>
      <trkpt lat="43.4929" lon="5.46366">
        <ele>334</ele>
        <time>2017-03-22T10:10:18Z</time>
      </trkpt>
      <trkpt lat="43.49287" lon="5.46376">
        <ele>333</ele>
        <time>2017-03-22T10:10:26Z</time>
      </trkpt>
      <trkpt lat="43.49281" lon="5.46386">
        <ele>331</ele>
        <time>2017-03-22T10:10:35Z</time>
      </trkpt>
      <trkpt lat="43.49275" lon="5.46393">
        <ele>330</ele>
        <time>2017-03-22T10:10:43Z</time>
      </trkpt>
      <trkpt lat="43.49267" lon="5.46399">
        <ele>330</ele>
        <time>2017-03-22T10:10:50Z</time>
      </trkpt>
      <trkpt lat="43.4926" lon="5.46405">
        <ele>325</ele>
        <time>2017-03-22T10:10:58Z</time>
      </trkpt>
      <trkpt lat="43.49253" lon="5.46409">
        <ele>326</ele>
        <time>2017-03-22T10:11:07Z</time>
      </trkpt>
      <trkpt lat="43.49245" lon="5.46411">
        <ele>323</ele>
        <time>2017-03-22T10:11:14Z</time>
      </trkpt>
      <trkpt lat="43.49237" lon="5.46413">
        <ele>324</ele>
        <time>2017-03-22T10:11:19Z</time>
      </trkpt>
      <trkpt lat="43.4923" lon="5.46418">
        <ele>325</ele>
        <time>2017-03-22T10:11:25Z</time>
      </trkpt>
      <trkpt lat="43.49222" lon="5.46421">
        <ele>325</ele>
        <time>2017-03-22T10:11:34Z</time>
      </trkpt>
      <trkpt lat="43.49214" lon="5.46424">
        <ele>326</ele>
        <time>2017-03-22T10:11:40Z</time>
      </trkpt>
      <trkpt lat="43.49206" lon="5.46426">
        <ele>324</ele>
        <time>2017-03-22T10:11:46Z</time>
      </trkpt>
      <trkpt lat="43.49197" lon="5.46428">
        <ele>325</ele>
        <time>2017-03-22T10:11:54Z</time>
      </trkpt>
      <trkpt lat="43.49189" lon="5.46433">
        <ele>330</ele>
        <time>2017-03-22T10:12:16Z</time>
      </trkpt>
      <trkpt lat="43.49183" lon="5.4644">
        <ele>329</ele>
        <time>2017-03-22T10:12:24Z</time>
      </trkpt>
      <trkpt lat="43.49175" lon="5.46445">
        <ele>327</ele>
        <time>2017-03-22T10:12:31Z</time>
      </trkpt>
      <trkpt lat="43.49167" lon="5.46447">
        <ele>331</ele>
        <time>2017-03-22T10:12:47Z</time>
      </trkpt>
      <trkpt lat="43.4916" lon="5.46452">
        <ele>330</ele>
        <time>2017-03-22T10:12:52Z</time>
      </trkpt>
      <trkpt lat="43.49152" lon="5.46458">
        <ele>333</ele>
        <time>2017-03-22T10:13:00Z</time>
      </trkpt>
      <trkpt lat="43.49144" lon="5.46462">
        <ele>334</ele>
        <time>2017-03-22T10:13:08Z</time>
      </trkpt>
      <trkpt lat="43.49135" lon="5.46464">
        <ele>329</ele>
        <time>2017-03-22T10:13:17Z</time>
      </trkpt>
      <trkpt lat="43.49127" lon="5.46465">
        <ele>334</ele>
        <time>2017-03-22T10:13:24Z</time>
      </trkpt>
      <trkpt lat="43.49119" lon="5.46464">
        <ele>334</ele>
        <time>2017-03-22T10:13:30Z</time>
      </trkpt>
      <trkpt lat="43.4911" lon="5.46465">
        <ele>336</ele>
        <time>2017-03-22T10:13:39Z</time>
      </trkpt>
      <trkpt lat="43.49102" lon="5.46469">
        <ele>336</ele>
        <time>2017-03-22T10:13:48Z</time>
      </trkpt>
      <trkpt lat="43.49094" lon="5.46473">
        <ele>336</ele>
        <time>2017-03-22T10:13:56Z</time>
      </trkpt>
      <trkpt lat="43.49085" lon="5.46476">
        <ele>338</ele>
        <time>2017-03-22T10:14:05Z</time>
      </trkpt>
      <trkpt lat="43.49077" lon="5.46479">
        <ele>334</ele>
        <time>2017-03-22T10:14:14Z</time>
      </trkpt>
      <trkpt lat="43.49069" lon="5.46482">
        <ele>340</ele>
        <time>2017-03-22T10:14:24Z</time>
      </trkpt>
      <trkpt lat="43.4906" lon="5.46482">
        <ele>343</ele>
        <time>2017-03-22T10:14:31Z</time>
      </trkpt>
      <trkpt lat="43.49051" lon="5.46481">
        <ele>342</ele>
        <time>2017-03-22T10:14:39Z</time>
      </trkpt>
      <trkpt lat="43.49043" lon="5.46479">
        <ele>344</ele>
        <time>2017-03-22T10:14:47Z</time>
      </trkpt>
      <trkpt lat="43.49036" lon="5.46474">
        <ele>344</ele>
        <time>2017-03-22T10:14:56Z</time>
      </trkpt>
      <trkpt lat="43.49029" lon="5.46466">
        <ele>343</ele>
        <time>2017-03-22T10:15:04Z</time>
      </trkpt>
      <trkpt lat="43.49024" lon="5.46457">
        <ele>346</ele>
        <time>2017-03-22T10:15:13Z</time>
      </trkpt>
      <trkpt lat="43.49016" lon="5.46453">
        <ele>346</ele>
        <time>2017-03-22T10:15:35Z</time>
      </trkpt>
      <trkpt lat="43.49008" lon="5.46454">
        <ele>346</ele>
        <time>2017-03-22T10:15:44Z</time>
      </trkpt>
      <trkpt lat="43.48999" lon="5.46452">
        <ele>348</ele>
        <time>2017-03-22T10:15:52Z</time>
      </trkpt>
      <trkpt lat="43.48992" lon="5.46447">
        <ele>347</ele>
        <time>2017-03-22T10:16:01Z</time>
      </trkpt>
      <trkpt lat="43.48987" lon="5.46438">
        <ele>348</ele>
        <time>2017-03-22T10:16:08Z</time>
      </trkpt>
      <trkpt lat="43.48981" lon="5.4643">
        <ele>347</ele>
        <time>2017-03-22T10:16:15Z</time>
      </trkpt>
      <trkpt lat="43.48972" lon="5.46426">
        <ele>347</ele>
        <time>2017-03-22T10:16:22Z</time>
      </trkpt>
      <trkpt lat="43.48964" lon="5.46427">
        <ele>347</ele>
        <time>2017-03-22T10:16:30Z</time>
      </trkpt>
      <trkpt lat="43.48956" lon="5.46426">
        <ele>348</ele>
        <time>2017-03-22T10:16:37Z</time>
      </trkpt>
      <trkpt lat="43.48947" lon="5.46424">
        <ele>348</ele>
        <time>2017-03-22T10:16:44Z</time>
      </trkpt>
      <trkpt lat="43.48938" lon="5.46423">
        <ele>347</ele>
        <time>2017-03-22T10:16:52Z</time>
      </trkpt>
      <trkpt lat="43.48929" lon="5.46422">
        <ele>347</ele>
        <time>2017-03-22T10:17:01Z</time>
      </trkpt>
      <trkpt lat="43.48921" lon="5.4642">
        <ele>346</ele>
        <time>2017-03-22T10:17:08Z</time>
      </trkpt>
      <trkpt lat="43.48913" lon="5.46422">
        <ele>345</ele>
        <time>2017-03-22T10:17:17Z</time>
      </trkpt>
      <trkpt lat="43.48904" lon="5.46419">
        <ele>346</ele>
        <time>2017-03-22T10:17:26Z</time>
      </trkpt>
      <trkpt lat="43.48897" lon="5.46411">
        <ele>346</ele>
        <time>2017-03-22T10:18:16Z</time>
      </trkpt>
      <trkpt lat="43.4889" lon="5.46404">
        <ele>345</ele>
        <time>2017-03-22T10:18:30Z</time>
      </trkpt>
      <trkpt lat="43.48882" lon="5.46404">
        <ele>340</ele>
        <time>2017-03-22T10:18:40Z</time>
      </trkpt>
      <trkpt lat="43.48874" lon="5.46399">
        <ele>340</ele>
        <time>2017-03-22T10:18:49Z</time>
      </trkpt>
      <trkpt lat="43.48866" lon="5.46399">
        <ele>339</ele>
        <time>2017-03-22T10:18:56Z</time>
      </trkpt>
      <trkpt lat="43.48857" lon="5.46395">
        <ele>339</ele>
        <time>2017-03-22T10:19:04Z</time>
      </trkpt>
      <trkpt lat="43.48851" lon="5.46387">
        <ele>342</ele>
        <time>2017-03-22T10:19:15Z</time>
      </trkpt>
      <trkpt lat="43.48845" lon="5.46379">
        <ele>347</ele>
        <time>2017-03-22T10:19:28Z</time>
      </trkpt>
      <trkpt lat="43.48838" lon="5.46372">
        <ele>348</ele>
        <time>2017-03-22T10:19:38Z</time>
      </trkpt>
      <trkpt lat="43.4883" lon="5.46378">
        <ele>347</ele>
        <time>2017-03-22T10:19:46Z</time>
      </trkpt>
      <trkpt lat="43.48822" lon="5.46382">
        <ele>348</ele>
        <time>2017-03-22T10:19:54Z</time>
      </trkpt>
      <trkpt lat="43.48814" lon="5.46386">
        <ele>348</ele>
        <time>2017-03-22T10:20:03Z</time>
      </trkpt>
      <trkpt lat="43.48806" lon="5.46382">
        <ele>349</ele>
        <time>2017-03-22T10:20:13Z</time>
      </trkpt>
      <trkpt lat="43.48807" lon="5.4637">
        <ele>343</ele>
        <time>2017-03-22T10:20:23Z</time>
      </trkpt>
      <trkpt lat="43.48809" lon="5.46359">
        <ele>349</ele>
        <time>2017-03-22T10:20:31Z</time>
      </trkpt>
      <trkpt lat="43.48813" lon="5.46349">
        <ele>351</ele>
        <time>2017-03-22T10:20:39Z</time>
      </trkpt>
      <trkpt lat="43.48815" lon="5.46338">
        <ele>351</ele>
        <time>2017-03-22T10:20:47Z</time>
      </trkpt>
      <trkpt lat="43.48817" lon="5.46327">
        <ele>352</ele>
        <time>2017-03-22T10:20:54Z</time>
      </trkpt>
      <trkpt lat="43.48818" lon="5.46315">
        <ele>352</ele>
        <time>2017-03-22T10:21:02Z</time>
      </trkpt>
      <trkpt lat="43.48818" lon="5.46304">
        <ele>353</ele>
        <time>2017-03-22T10:21:09Z</time>
      </trkpt>
      <trkpt lat="43.48817" lon="5.46294">
        <ele>351</ele>
        <time>2017-03-22T10:21:16Z</time>
      </trkpt>
      <trkpt lat="43.48816" lon="5.46281">
        <ele>352</ele>
        <time>2017-03-22T10:21:23Z</time>
      </trkpt>
      <trkpt lat="43.48814" lon="5.4627">
        <ele>352</ele>
        <time>2017-03-22T10:21:31Z</time>
      </trkpt>
      <trkpt lat="43.48812" lon="5.46258">
        <ele>351</ele>
        <time>2017-03-22T10:21:39Z</time>
      </trkpt>
      <trkpt lat="43.4881" lon="5.46247">
        <ele>350</ele>
        <time>2017-03-22T10:21:46Z</time>
      </trkpt>
      <trkpt lat="43.48809" lon="5.46236">
        <ele>348</ele>
        <time>2017-03-22T10:21:55Z</time>
      </trkpt>
      <trkpt lat="43.48809" lon="5.46224">
        <ele>349</ele>
        <time>2017-03-22T10:22:03Z</time>
      </trkpt>
      <trkpt lat="43.48808" lon="5.46212">
        <ele>347</ele>
        <time>2017-03-22T10:22:12Z</time>
      </trkpt>
      <trkpt lat="43.48808" lon="5.46201">
        <ele>346</ele>
        <time>2017-03-22T10:22:20Z</time>
      </trkpt>
      <trkpt lat="43.48808" lon="5.4619">
        <ele>346</ele>
        <time>2017-03-22T10:22:27Z</time>
      </trkpt>
      <trkpt lat="43.4881" lon="5.46178">
        <ele>345</ele>
        <time>2017-03-22T10:22:35Z</time>
      </trkpt>
      <trkpt lat="43.48812" lon="5.46167">
        <ele>343</ele>
        <time>2017-03-22T10:22:44Z</time>
      </trkpt>
      <trkpt lat="43.48809" lon="5.46156">
        <ele>341</ele>
        <time>2017-03-22T10:22:52Z</time>
      </trkpt>
      <trkpt lat="43.48807" lon="5.46144">
        <ele>340</ele>
        <time>2017-03-22T10:23:01Z</time>
      </trkpt>
      <trkpt lat="43.48809" lon="5.46133">
        <ele>339</ele>
        <time>2017-03-22T10:23:10Z</time>
      </trkpt>
      <trkpt lat="43.48801" lon="5.46126">
        <ele>337</ele>
        <time>2017-03-22T10:23:18Z</time>
      </trkpt>
      <trkpt lat="43.48793" lon="5.46126">
        <ele>334</ele>
        <time>2017-03-22T10:23:27Z</time>
      </trkpt>
      <trkpt lat="43.48785" lon="5.46124">
        <ele>332</ele>
        <time>2017-03-22T10:23:38Z</time>
      </trkpt>
      <trkpt lat="43.48777" lon="5.4612">
        <ele>328</ele>
        <time>2017-03-22T10:23:54Z</time>
      </trkpt>
      <trkpt lat="43.48769" lon="5.46117">
        <ele>326</ele>
        <time>2017-03-22T10:24:10Z</time>
      </trkpt>
      <trkpt lat="43.48761" lon="5.46112">
        <ele>317</ele>
        <time>2017-03-22T10:24:41Z</time>
      </trkpt>
      <trkpt lat="43.48753" lon="5.46115">
        <ele>320</ele>
        <time>2017-03-22T10:24:54Z</time>
      </trkpt>
      <trkpt lat="43.48746" lon="5.46121">
        <ele>324</ele>
        <time>2017-03-22T10:27:54Z</time>
      </trkpt>
      <trkpt lat="43.48738" lon="5.4612">
        <ele>326</ele>
        <time>2017-03-22T10:28:10Z</time>
      </trkpt>
      <trkpt lat="43.4873" lon="5.46126">
        <ele>326</ele>
        <time>2017-03-22T10:28:24Z</time>
      </trkpt>
      <trkpt lat="43.48722" lon="5.46125">
        <ele>331</ele>
        <time>2017-03-22T10:28:35Z</time>
      </trkpt>
      <trkpt lat="43.48713" lon="5.46121">
        <ele>331</ele>
        <time>2017-03-22T10:28:54Z</time>
      </trkpt>
      <trkpt lat="43.48706" lon="5.46115">
        <ele>331</ele>
        <time>2017-03-22T10:29:01Z</time>
      </trkpt>
      <trkpt lat="43.48697" lon="5.46113">
        <ele>330</ele>
        <time>2017-03-22T10:29:11Z</time>
      </trkpt>
      <trkpt lat="43.48689" lon="5.46113">
        <ele>330</ele>
        <time>2017-03-22T10:29:19Z</time>
      </trkpt>
      <trkpt lat="43.48681" lon="5.46115">
        <ele>331</ele>
        <time>2017-03-22T10:29:27Z</time>
      </trkpt>
      <trkpt lat="43.48672" lon="5.46115">
        <ele>335</ele>
        <time>2017-03-22T10:29:38Z</time>
      </trkpt>
      <trkpt lat="43.48665" lon="5.4611">
        <ele>336</ele>
        <time>2017-03-22T10:29:46Z</time>
      </trkpt>
      <trkpt lat="43.48658" lon="5.46104">
        <ele>335</ele>
        <time>2017-03-22T10:29:55Z</time>
      </trkpt>
      <trkpt lat="43.48649" lon="5.46101">
        <ele>336</ele>
        <time>2017-03-22T10:30:03Z</time>
      </trkpt>
      <trkpt lat="43.48641" lon="5.46104">
        <ele>335</ele>
        <time>2017-03-22T10:30:11Z</time>
      </trkpt>
      <trkpt lat="43.48634" lon="5.46108">
        <ele>333</ele>
        <time>2017-03-22T10:30:18Z</time>
      </trkpt>
      <trkpt lat="43.48626" lon="5.46114">
        <ele>332</ele>
        <time>2017-03-22T10:30:27Z</time>
      </trkpt>
      <trkpt lat="43.48619" lon="5.46122">
        <ele>330</ele>
        <time>2017-03-22T10:30:34Z</time>
      </trkpt>
      <trkpt lat="43.48614" lon="5.46132">
        <ele>332</ele>
        <time>2017-03-22T10:30:45Z</time>
      </trkpt>
      <trkpt lat="43.48609" lon="5.46142">
        <ele>333</ele>
        <time>2017-03-22T10:30:55Z</time>
      </trkpt>
      <trkpt lat="43.48603" lon="5.4615">
        <ele>335</ele>
        <time>2017-03-22T10:31:03Z</time>
      </trkpt>
      <trkpt lat="43.48598" lon="5.46159">
        <ele>336</ele>
        <time>2017-03-22T10:31:10Z</time>
      </trkpt>
      <trkpt lat="43.48591" lon="5.46166">
        <ele>338</ele>
        <time>2017-03-22T10:31:18Z</time>
      </trkpt>
      <trkpt lat="43.48582" lon="5.46168">
        <ele>339</ele>
        <time>2017-03-22T10:31:27Z</time>
      </trkpt>
      <trkpt lat="43.48574" lon="5.46174">
        <ele>339</ele>
        <time>2017-03-22T10:31:36Z</time>
      </trkpt>
      <trkpt lat="43.48572" lon="5.46186">
        <ele>338</ele>
        <time>2017-03-22T10:31:48Z</time>
      </trkpt>
      <trkpt lat="43.48573" lon="5.46198">
        <ele>338</ele>
        <time>2017-03-22T10:32:00Z</time>
      </trkpt>
      <trkpt lat="43.48571" lon="5.46209">
        <ele>334</ele>
        <time>2017-03-22T10:32:09Z</time>
      </trkpt>
      <trkpt lat="43.48575" lon="5.4622">
        <ele>339</ele>
        <time>2017-03-22T10:32:21Z</time>
      </trkpt>
      <trkpt lat="43.48576" lon="5.46232">
        <ele>342</ele>
        <time>2017-03-22T10:32:33Z</time>
      </trkpt>
      <trkpt lat="43.4857" lon="5.4624">
        <ele>346</ele>
        <time>2017-03-22T10:32:52Z</time>
      </trkpt>
      <trkpt lat="43.48563" lon="5.46247">
        <ele>343</ele>
        <time>2017-03-22T10:33:00Z</time>
      </trkpt>
      <trkpt lat="43.48559" lon="5.46257">
        <ele>342</ele>
        <time>2017-03-22T10:33:10Z</time>
      </trkpt>
      <trkpt lat="43.48554" lon="5.46267">
        <ele>346</ele>
        <time>2017-03-22T10:33:49Z</time>
      </trkpt>
      <trkpt lat="43.48552" lon="5.46279">
        <ele>350</ele>
        <time>2017-03-22T10:34:17Z</time>
      </trkpt>
      <trkpt lat="43.48551" lon="5.46291">
        <ele>349</ele>
        <time>2017-03-22T10:34:29Z</time>
      </trkpt>
      <trkpt lat="43.48547" lon="5.46301">
        <ele>348</ele>
        <time>2017-03-22T10:34:36Z</time>
      </trkpt>
      <trkpt lat="43.48538" lon="5.46302">
        <ele>348</ele>
        <time>2017-03-22T10:34:53Z</time>
      </trkpt>
      <trkpt lat="43.48531" lon="5.46295">
        <ele>348</ele>
        <time>2017-03-22T10:35:08Z</time>
      </trkpt>
      <trkpt lat="43.48524" lon="5.46288">
        <ele>347</ele>
        <time>2017-03-22T10:35:17Z</time>
      </trkpt>
      <trkpt lat="43.48517" lon="5.46282">
        <ele>346</ele>
        <time>2017-03-22T10:35:27Z</time>
      </trkpt>
      <trkpt lat="43.4851" lon="5.46275">
        <ele>346</ele>
        <time>2017-03-22T10:35:35Z</time>
      </trkpt>
      <trkpt lat="43.48504" lon="5.46268">
        <ele>345</ele>
        <time>2017-03-22T10:35:45Z</time>
      </trkpt>
      <trkpt lat="43.48498" lon="5.46259">
        <ele>345</ele>
        <time>2017-03-22T10:35:53Z</time>
      </trkpt>
      <trkpt lat="43.48493" lon="5.46249">
        <ele>345</ele>
        <time>2017-03-22T10:36:01Z</time>
      </trkpt>
      <trkpt lat="43.48489" lon="5.4624">
        <ele>346</ele>
        <time>2017-03-22T10:36:29Z</time>
      </trkpt>
      <trkpt lat="43.48485" lon="5.4623">
        <ele>346</ele>
        <time>2017-03-22T10:36:36Z</time>
      </trkpt>
      <trkpt lat="43.48481" lon="5.46221">
        <ele>345</ele>
        <time>2017-03-22T10:36:44Z</time>
      </trkpt>
      <trkpt lat="43.48479" lon="5.46209">
        <ele>347</ele>
        <time>2017-03-22T10:37:18Z</time>
      </trkpt>
      <trkpt lat="43.48476" lon="5.46199">
        <ele>346</ele>
        <time>2017-03-22T10:37:29Z</time>
      </trkpt>
      <trkpt lat="43.48473" lon="5.46188">
        <ele>345</ele>
        <time>2017-03-22T10:38:12Z</time>
      </trkpt>
      <trkpt lat="43.48468" lon="5.46177">
        <ele>344</ele>
        <time>2017-03-22T10:38:22Z</time>
      </trkpt>
      <trkpt lat="43.48462" lon="5.46168">
        <ele>344</ele>
        <time>2017-03-22T10:38:32Z</time>
      </trkpt>
      <trkpt lat="43.48455" lon="5.46162">
        <ele>343</ele>
        <time>2017-03-22T10:39:02Z</time>
      </trkpt>
      <trkpt lat="43.48447" lon="5.46157">
        <ele>342</ele>
        <time>2017-03-22T10:39:12Z</time>
      </trkpt>
      <trkpt lat="43.48439" lon="5.46153">
        <ele>342</ele>
        <time>2017-03-22T10:39:21Z</time>
      </trkpt>
      <trkpt lat="43.48431" lon="5.4615">
        <ele>342</ele>
        <time>2017-03-22T10:39:30Z</time>
      </trkpt>
      <trkpt lat="43.48423" lon="5.46149">
        <ele>341</ele>
        <time>2017-03-22T10:39:39Z</time>
      </trkpt>
      <trkpt lat="43.48415" lon="5.46146">
        <ele>341</ele>
        <time>2017-03-22T10:39:49Z</time>
      </trkpt>
      <trkpt lat="43.48406" lon="5.46144">
        <ele>340</ele>
        <time>2017-03-22T10:40:00Z</time>
      </trkpt>
      <trkpt lat="43.48399" lon="5.4614">
        <ele>340</ele>
        <time>2017-03-22T10:40:09Z</time>
      </trkpt>
      <trkpt lat="43.48391" lon="5.46137">
        <ele>342</ele>
        <time>2017-03-22T10:40:17Z</time>
      </trkpt>
      <trkpt lat="43.48383" lon="5.46137">
        <ele>340</ele>
        <time>2017-03-22T10:40:27Z</time>
      </trkpt>
      <trkpt lat="43.48374" lon="5.46136">
        <ele>339</ele>
        <time>2017-03-22T10:40:54Z</time>
      </trkpt>
      <trkpt lat="43.48368" lon="5.46128">
        <ele>341</ele>
        <time>2017-03-22T10:42:33Z</time>
      </trkpt>
      <trkpt lat="43.48362" lon="5.46121">
        <ele>342</ele>
        <time>2017-03-22T10:42:40Z</time>
      </trkpt>
      <trkpt lat="43.48356" lon="5.46112">
        <ele>342</ele>
        <time>2017-03-22T10:42:48Z</time>
      </trkpt>
      <trkpt lat="43.48351" lon="5.46102">
        <ele>343</ele>
        <time>2017-03-22T10:42:57Z</time>
      </trkpt>
      <trkpt lat="43.48345" lon="5.46094">
        <ele>343</ele>
        <time>2017-03-22T10:43:05Z</time>
      </trkpt>
      <trkpt lat="43.4834" lon="5.46085">
        <ele>343</ele>
        <time>2017-03-22T10:43:13Z</time>
      </trkpt>
      <trkpt lat="43.48334" lon="5.46076">
        <ele>343</ele>
        <time>2017-03-22T10:43:22Z</time>
      </trkpt>
      <trkpt lat="43.4833" lon="5.46066">
        <ele>343</ele>
        <time>2017-03-22T10:43:31Z</time>
      </trkpt>
      <trkpt lat="43.48326" lon="5.46057">
        <ele>346</ele>
        <time>2017-03-22T10:43:39Z</time>
      </trkpt>
      <trkpt lat="43.48325" lon="5.46045">
        <ele>346</ele>
        <time>2017-03-22T10:43:48Z</time>
      </trkpt>
      <trkpt lat="43.48323" lon="5.46033">
        <ele>347</ele>
        <time>2017-03-22T10:43:57Z</time>
      </trkpt>
      <trkpt lat="43.48321" lon="5.46022">
        <ele>346</ele>
        <time>2017-03-22T10:44:04Z</time>
      </trkpt>
      <trkpt lat="43.48319" lon="5.4601">
        <ele>346</ele>
        <time>2017-03-22T10:44:11Z</time>
      </trkpt>
      <trkpt lat="43.48317" lon="5.45999">
        <ele>345</ele>
        <time>2017-03-22T10:44:18Z</time>
      </trkpt>
      <trkpt lat="43.48316" lon="5.45987">
        <ele>344</ele>
        <time>2017-03-22T10:44:26Z</time>
      </trkpt>
      <trkpt lat="43.48314" lon="5.45975">
        <ele>343</ele>
        <time>2017-03-22T10:44:34Z</time>
      </trkpt>
      <trkpt lat="43.48313" lon="5.45964">
        <ele>343</ele>
        <time>2017-03-22T10:44:41Z</time>
      </trkpt>
      <trkpt lat="43.48312" lon="5.45953">
        <ele>343</ele>
        <time>2017-03-22T10:44:48Z</time>
      </trkpt>
      <trkpt lat="43.4831" lon="5.45942">
        <ele>343</ele>
        <time>2017-03-22T10:44:56Z</time>
      </trkpt>
      <trkpt lat="43.48306" lon="5.45932">
        <ele>342</ele>
        <time>2017-03-22T10:45:02Z</time>
      </trkpt>
      <trkpt lat="43.48303" lon="5.45921">
        <ele>343</ele>
        <time>2017-03-22T10:45:09Z</time>
      </trkpt>
      <trkpt lat="43.48301" lon="5.45909">
        <ele>341</ele>
        <time>2017-03-22T10:45:18Z</time>
      </trkpt>
      <trkpt lat="43.48299" lon="5.45898">
        <ele>342</ele>
        <time>2017-03-22T10:45:25Z</time>
      </trkpt>
      <trkpt lat="43.48299" lon="5.45887">
        <ele>342</ele>
        <time>2017-03-22T10:45:31Z</time>
      </trkpt>
      <trkpt lat="43.48298" lon="5.45875">
        <ele>343</ele>
        <time>2017-03-22T10:45:38Z</time>
      </trkpt>
      <trkpt lat="43.48297" lon="5.45864">
        <ele>343</ele>
        <time>2017-03-22T10:45:44Z</time>
      </trkpt>
      <trkpt lat="43.48296" lon="5.45852">
        <ele>342</ele>
        <time>2017-03-22T10:45:52Z</time>
      </trkpt>
      <trkpt lat="43.48294" lon="5.45841">
        <ele>342</ele>
        <time>2017-03-22T10:45:58Z</time>
      </trkpt>
      <trkpt lat="43.48293" lon="5.4583">
        <ele>342</ele>
        <time>2017-03-22T10:46:06Z</time>
      </trkpt>
      <trkpt lat="43.48292" lon="5.45819">
        <ele>340</ele>
        <time>2017-03-22T10:46:14Z</time>
      </trkpt>
      <trkpt lat="43.48291" lon="5.45808">
        <ele>339</ele>
        <time>2017-03-22T10:46:26Z</time>
      </trkpt>
      <trkpt lat="43.48288" lon="5.45796">
        <ele>338</ele>
        <time>2017-03-22T10:46:35Z</time>
      </trkpt>
      <trkpt lat="43.48284" lon="5.45786">
        <ele>336</ele>
        <time>2017-03-22T10:46:43Z</time>
      </trkpt>
      <trkpt lat="43.48282" lon="5.45774">
        <ele>336</ele>
        <time>2017-03-22T10:46:51Z</time>
      </trkpt>
      <trkpt lat="43.48279" lon="5.45764">
        <ele>335</ele>
        <time>2017-03-22T10:46:58Z</time>
      </trkpt>
      <trkpt lat="43.48275" lon="5.45754">
        <ele>333</ele>
        <time>2017-03-22T10:47:05Z</time>
      </trkpt>
      <trkpt lat="43.4827" lon="5.45745">
        <ele>332</ele>
        <time>2017-03-22T10:47:13Z</time>
      </trkpt>
      <trkpt lat="43.4827" lon="5.45733">
        <ele>331</ele>
        <time>2017-03-22T10:47:23Z</time>
      </trkpt>
      <trkpt lat="43.48268" lon="5.45722">
        <ele>332</ele>
        <time>2017-03-22T10:47:31Z</time>
      </trkpt>
      <trkpt lat="43.48262" lon="5.45716">
        <ele>331</ele>
        <time>2017-03-22T10:47:38Z</time>
      </trkpt>
      <trkpt lat="43.48254" lon="5.45711">
        <ele>331</ele>
        <time>2017-03-22T10:47:44Z</time>
      </trkpt>
      <trkpt lat="43.48245" lon="5.45708">
        <ele>330</ele>
        <time>2017-03-22T10:47:52Z</time>
      </trkpt>
      <trkpt lat="43.48238" lon="5.45704">
        <ele>328</ele>
        <time>2017-03-22T10:47:59Z</time>
      </trkpt>
      <trkpt lat="43.4823" lon="5.45701">
        <ele>328</ele>
        <time>2017-03-22T10:48:06Z</time>
      </trkpt>
      <trkpt lat="43.48222" lon="5.45696">
        <ele>327</ele>
        <time>2017-03-22T10:48:14Z</time>
      </trkpt>
      <trkpt lat="43.48214" lon="5.45694">
        <ele>328</ele>
        <time>2017-03-22T10:48:22Z</time>
      </trkpt>
      <trkpt lat="43.48206" lon="5.45695">
        <ele>329</ele>
        <time>2017-03-22T10:48:29Z</time>
      </trkpt>
      <trkpt lat="43.48198" lon="5.45693">
        <ele>329</ele>
        <time>2017-03-22T10:48:38Z</time>
      </trkpt>
      <trkpt lat="43.48189" lon="5.45689">
        <ele>329</ele>
        <time>2017-03-22T10:48:47Z</time>
      </trkpt>
      <trkpt lat="43.48182" lon="5.45687">
        <ele>330</ele>
        <time>2017-03-22T10:48:55Z</time>
      </trkpt>
      <trkpt lat="43.48173" lon="5.45685">
        <ele>329</ele>
        <time>2017-03-22T10:49:03Z</time>
      </trkpt>
      <trkpt lat="43.48165" lon="5.45679">
        <ele>331</ele>
        <time>2017-03-22T10:49:12Z</time>
      </trkpt>
      <trkpt lat="43.48158" lon="5.45673">
        <ele>330</ele>
        <time>2017-03-22T10:49:20Z</time>
      </trkpt>
      <trkpt lat="43.48151" lon="5.45669">
        <ele>331</ele>
        <time>2017-03-22T10:49:28Z</time>
      </trkpt>
      <trkpt lat="43.48143" lon="5.45665">
        <ele>330</ele>
        <time>2017-03-22T10:49:36Z</time>
      </trkpt>
      <trkpt lat="43.48135" lon="5.45663">
        <ele>331</ele>
        <time>2017-03-22T10:49:43Z</time>
      </trkpt>
      <trkpt lat="43.48127" lon="5.4566">
        <ele>330</ele>
        <time>2017-03-22T10:49:51Z</time>
      </trkpt>
      <trkpt lat="43.48119" lon="5.45655">
        <ele>332</ele>
        <time>2017-03-22T10:49:59Z</time>
      </trkpt>
      <trkpt lat="43.48112" lon="5.45647">
        <ele>332</ele>
        <time>2017-03-22T10:50:06Z</time>
      </trkpt>
      <trkpt lat="43.48106" lon="5.45639">
        <ele>332</ele>
        <time>2017-03-22T10:50:14Z</time>
      </trkpt>
      <trkpt lat="43.48101" lon="5.45631">
        <ele>333</ele>
        <time>2017-03-22T10:50:21Z</time>
      </trkpt>
      <trkpt lat="43.48094" lon="5.45624">
        <ele>333</ele>
        <time>2017-03-22T10:50:28Z</time>
      </trkpt>
      <trkpt lat="43.48086" lon="5.4562">
        <ele>332</ele>
        <time>2017-03-22T10:50:36Z</time>
      </trkpt>
      <trkpt lat="43.48078" lon="5.45618">
        <ele>331</ele>
        <time>2017-03-22T10:50:43Z</time>
      </trkpt>
      <trkpt lat="43.4807" lon="5.45619">
        <ele>331</ele>
        <time>2017-03-22T10:50:52Z</time>
      </trkpt>
      <trkpt lat="43.48062" lon="5.45612">
        <ele>331</ele>
        <time>2017-03-22T10:51:01Z</time>
      </trkpt>
      <trkpt lat="43.48056" lon="5.45604">
        <ele>331</ele>
        <time>2017-03-22T10:51:08Z</time>
      </trkpt>
      <trkpt lat="43.48048" lon="5.45601">
        <ele>330</ele>
        <time>2017-03-22T10:51:17Z</time>
      </trkpt>
      <trkpt lat="43.4804" lon="5.45596">
        <ele>328</ele>
        <time>2017-03-22T10:51:25Z</time>
      </trkpt>
      <trkpt lat="43.48032" lon="5.45591">
        <ele>329</ele>
        <time>2017-03-22T10:51:34Z</time>
      </trkpt>
      <trkpt lat="43.48026" lon="5.45583">
        <ele>328</ele>
        <time>2017-03-22T10:51:45Z</time>
      </trkpt>
      <trkpt lat="43.4802" lon="5.45575">
        <ele>326</ele>
        <time>2017-03-22T10:51:55Z</time>
      </trkpt>
      <trkpt lat="43.48018" lon="5.45563">
        <ele>324</ele>
        <time>2017-03-22T10:52:05Z</time>
      </trkpt>
      <trkpt lat="43.48014" lon="5.45553">
        <ele>324</ele>
        <time>2017-03-22T10:52:12Z</time>
      </trkpt>
      <trkpt lat="43.48009" lon="5.45543">
        <ele>324</ele>
        <time>2017-03-22T10:52:20Z</time>
      </trkpt>
      <trkpt lat="43.48003" lon="5.45536">
        <ele>321</ele>
        <time>2017-03-22T10:52:30Z</time>
      </trkpt>
      <trkpt lat="43.47996" lon="5.45528">
        <ele>322</ele>
        <time>2017-03-22T10:52:38Z</time>
      </trkpt>
      <trkpt lat="43.47991" lon="5.4552">
        <ele>322</ele>
        <time>2017-03-22T10:52:45Z</time>
      </trkpt>
      <trkpt lat="43.47984" lon="5.45512">
        <ele>322</ele>
        <time>2017-03-22T10:52:54Z</time>
      </trkpt>
      <trkpt lat="43.47978" lon="5.45504">
        <ele>320</ele>
        <time>2017-03-22T10:53:03Z</time>
      </trkpt>
      <trkpt lat="43.47971" lon="5.45497">
        <ele>319</ele>
        <time>2017-03-22T10:53:11Z</time>
      </trkpt>
      <trkpt lat="43.47966" lon="5.45488">
        <ele>319</ele>
        <time>2017-03-22T10:53:18Z</time>
      </trkpt>
      <trkpt lat="43.47959" lon="5.45479">
        <ele>320</ele>
        <time>2017-03-22T10:53:27Z</time>
      </trkpt>
      <trkpt lat="43.47953" lon="5.45471">
        <ele>319</ele>
        <time>2017-03-22T10:53:35Z</time>
      </trkpt>
      <trkpt lat="43.47948" lon="5.45463">
        <ele>320</ele>
        <time>2017-03-22T10:53:42Z</time>
      </trkpt>
      <trkpt lat="43.47943" lon="5.45454">
        <ele>320</ele>
        <time>2017-03-22T10:53:50Z</time>
      </trkpt>
      <trkpt lat="43.47937" lon="5.45445">
        <ele>320</ele>
        <time>2017-03-22T10:53:57Z</time>
      </trkpt>
      <trkpt lat="43.47932" lon="5.45436">
        <ele>319</ele>
        <time>2017-03-22T10:54:04Z</time>
      </trkpt>
      <trkpt lat="43.47926" lon="5.45427">
        <ele>318</ele>
        <time>2017-03-22T10:54:12Z</time>
      </trkpt>
      <trkpt lat="43.47921" lon="5.45419">
        <ele>318</ele>
        <time>2017-03-22T10:54:19Z</time>
      </trkpt>
      <trkpt lat="43.47914" lon="5.45412">
        <ele>317</ele>
        <time>2017-03-22T10:54:27Z</time>
      </trkpt>
      <trkpt lat="43.47908" lon="5.45403">
        <ele>315</ele>
        <time>2017-03-22T10:54:35Z</time>
      </trkpt>
      <trkpt lat="43.47902" lon="5.45395">
        <ele>315</ele>
        <time>2017-03-22T10:54:42Z</time>
      </trkpt>
      <trkpt lat="43.47895" lon="5.4539">
        <ele>315</ele>
        <time>2017-03-22T10:54:50Z</time>
      </trkpt>
      <trkpt lat="43.47889" lon="5.45383">
        <ele>316</ele>
        <time>2017-03-22T10:54:58Z</time>
      </trkpt>
      <trkpt lat="43.47882" lon="5.45376">
        <ele>313</ele>
        <time>2017-03-22T10:55:07Z</time>
      </trkpt>
      <trkpt lat="43.47876" lon="5.45369">
        <ele>314</ele>
        <time>2017-03-22T10:55:16Z</time>
      </trkpt>
      <trkpt lat="43.47869" lon="5.45361">
        <ele>314</ele>
        <time>2017-03-22T10:55:24Z</time>
      </trkpt>
      <trkpt lat="43.47863" lon="5.45354">
        <ele>313</ele>
        <time>2017-03-22T10:55:31Z</time>
      </trkpt>
      <trkpt lat="43.47857" lon="5.45346">
        <ele>313</ele>
        <time>2017-03-22T10:55:40Z</time>
      </trkpt>
      <trkpt lat="43.4785" lon="5.45338">
        <ele>313</ele>
        <time>2017-03-22T10:55:48Z</time>
      </trkpt>
      <trkpt lat="43.47843" lon="5.45332">
        <ele>311</ele>
        <time>2017-03-22T10:55:57Z</time>
      </trkpt>
      <trkpt lat="43.47835" lon="5.45325">
        <ele>310</ele>
        <time>2017-03-22T10:56:05Z</time>
      </trkpt>
      <trkpt lat="43.47828" lon="5.45319">
        <ele>309</ele>
        <time>2017-03-22T10:56:12Z</time>
      </trkpt>
      <trkpt lat="43.47821" lon="5.45313">
        <ele>309</ele>
        <time>2017-03-22T10:56:20Z</time>
      </trkpt>
      <trkpt lat="43.47813" lon="5.45309">
        <ele>309</ele>
        <time>2017-03-22T10:56:27Z</time>
      </trkpt>
      <trkpt lat="43.47806" lon="5.45302">
        <ele>310</ele>
        <time>2017-03-22T10:56:35Z</time>
      </trkpt>
      <trkpt lat="43.47798" lon="5.45297">
        <ele>310</ele>
        <time>2017-03-22T10:56:43Z</time>
      </trkpt>
      <trkpt lat="43.47792" lon="5.4529">
        <ele>312</ele>
        <time>2017-03-22T10:56:51Z</time>
      </trkpt>
      <trkpt lat="43.47785" lon="5.45282">
        <ele>311</ele>
        <time>2017-03-22T10:57:00Z</time>
      </trkpt>
      <trkpt lat="43.4778" lon="5.45273">
        <ele>311</ele>
        <time>2017-03-22T10:57:08Z</time>
      </trkpt>
      <trkpt lat="43.47776" lon="5.45264">
        <ele>311</ele>
        <time>2017-03-22T10:57:16Z</time>
      </trkpt>
      <trkpt lat="43.4777" lon="5.45255">
        <ele>312</ele>
        <time>2017-03-22T10:57:25Z</time>
      </trkpt>
      <trkpt lat="43.47764" lon="5.45245">
        <ele>313</ele>
        <time>2017-03-22T10:57:36Z</time>
      </trkpt>
      <trkpt lat="43.47762" lon="5.45234">
        <ele>310</ele>
        <time>2017-03-22T10:57:55Z</time>
      </trkpt>
      <trkpt lat="43.47761" lon="5.45222">
        <ele>309</ele>
        <time>2017-03-22T10:58:05Z</time>
      </trkpt>
      <trkpt lat="43.47754" lon="5.45214">
        <ele>307</ele>
        <time>2017-03-22T10:59:29Z</time>
      </trkpt>
      <trkpt lat="43.47748" lon="5.45205">
        <ele>312</ele>
        <time>2017-03-22T10:59:42Z</time>
      </trkpt>
      <trkpt lat="43.47747" lon="5.45194">
        <ele>308</ele>
        <time>2017-03-22T11:00:03Z</time>
      </trkpt>
      <trkpt lat="43.47752" lon="5.45185">
        <ele>314</ele>
        <time>2017-03-22T11:00:17Z</time>
      </trkpt>
      <trkpt lat="43.47757" lon="5.45175">
        <ele>312</ele>
        <time>2017-03-22T11:00:24Z</time>
      </trkpt>
      <trkpt lat="43.47762" lon="5.45166">
        <ele>313</ele>
        <time>2017-03-22T11:00:34Z</time>
      </trkpt>
      <trkpt lat="43.47767" lon="5.45158">
        <ele>313</ele>
        <time>2017-03-22T11:00:43Z</time>
      </trkpt>
      <trkpt lat="43.47772" lon="5.45149">
        <ele>313</ele>
        <time>2017-03-22T11:00:51Z</time>
      </trkpt>
      <trkpt lat="43.47778" lon="5.45142">
        <ele>315</ele>
        <time>2017-03-22T11:00:59Z</time>
      </trkpt>
      <trkpt lat="43.47784" lon="5.45133">
        <ele>317</ele>
        <time>2017-03-22T11:01:08Z</time>
      </trkpt>
      <trkpt lat="43.47788" lon="5.45123">
        <ele>317</ele>
        <time>2017-03-22T11:01:20Z</time>
      </trkpt>
      <trkpt lat="43.47791" lon="5.45111">
        <ele>316</ele>
        <time>2017-03-22T11:01:33Z</time>
      </trkpt>
      <trkpt lat="43.47797" lon="5.45103">
        <ele>317</ele>
        <time>2017-03-22T11:01:42Z</time>
      </trkpt>
      <trkpt lat="43.47801" lon="5.45092">
        <ele>320</ele>
        <time>2017-03-22T11:01:54Z</time>
      </trkpt>
      <trkpt lat="43.47806" lon="5.45082">
        <ele>320</ele>
        <time>2017-03-22T11:02:06Z</time>
      </trkpt>
      <trkpt lat="43.47807" lon="5.4507">
        <ele>324</ele>
        <time>2017-03-22T11:02:19Z</time>
      </trkpt>
      <trkpt lat="43.47808" lon="5.45059">
        <ele>324</ele>
        <time>2017-03-22T11:02:29Z</time>
      </trkpt>
      <trkpt lat="43.47809" lon="5.45049">
        <ele>324</ele>
        <time>2017-03-22T11:02:36Z</time>
      </trkpt>
      <trkpt lat="43.47807" lon="5.45038">
        <ele>325</ele>
        <time>2017-03-22T11:02:43Z</time>
      </trkpt>
      <trkpt lat="43.47807" lon="5.45027">
        <ele>326</ele>
        <time>2017-03-22T11:02:51Z</time>
      </trkpt>
      <trkpt lat="43.47803" lon="5.45017">
        <ele>328</ele>
        <time>2017-03-22T11:02:58Z</time>
      </trkpt>
      <trkpt lat="43.47798" lon="5.45009">
        <ele>329</ele>
        <time>2017-03-22T11:03:09Z</time>
      </trkpt>
      <trkpt lat="43.4779" lon="5.45004">
        <ele>329</ele>
        <time>2017-03-22T11:03:18Z</time>
      </trkpt>
      <trkpt lat="43.47781" lon="5.45005">
        <ele>331</ele>
        <time>2017-03-22T11:03:27Z</time>
      </trkpt>
      <trkpt lat="43.47772" lon="5.45005">
        <ele>332</ele>
        <time>2017-03-22T11:03:36Z</time>
      </trkpt>
      <trkpt lat="43.47764" lon="5.45003">
        <ele>335</ele>
        <time>2017-03-22T11:03:44Z</time>
      </trkpt>
      <trkpt lat="43.47756" lon="5.45002">
        <ele>334</ele>
        <time>2017-03-22T11:03:51Z</time>
      </trkpt>
      <trkpt lat="43.47748" lon="5.45003">
        <ele>335</ele>
        <time>2017-03-22T11:04:00Z</time>
      </trkpt>
      <trkpt lat="43.47739" lon="5.45002">
        <ele>334</ele>
        <time>2017-03-22T11:04:09Z</time>
      </trkpt>
      <trkpt lat="43.4773" lon="5.45002">
        <ele>334</ele>
        <time>2017-03-22T11:04:17Z</time>
      </trkpt>
      <trkpt lat="43.47722" lon="5.44999">
        <ele>337</ele>
        <time>2017-03-22T11:04:24Z</time>
      </trkpt>
      <trkpt lat="43.47715" lon="5.44995">
        <ele>341</ele>
        <time>2017-03-22T11:04:33Z</time>
      </trkpt>
      <trkpt lat="43.47706" lon="5.44995">
        <ele>340</ele>
        <time>2017-03-22T11:04:41Z</time>
      </trkpt>
      <trkpt lat="43.47698" lon="5.44991">
        <ele>340</ele>
        <time>2017-03-22T11:04:49Z</time>
      </trkpt>
      <trkpt lat="43.47691" lon="5.44984">
        <ele>341</ele>
        <time>2017-03-22T11:04:57Z</time>
      </trkpt>
      <trkpt lat="43.47686" lon="5.44973">
        <ele>345</ele>
        <time>2017-03-22T11:05:06Z</time>
      </trkpt>
      <trkpt lat="43.47682" lon="5.44963">
        <ele>341</ele>
        <time>2017-03-22T11:05:14Z</time>
      </trkpt>
      <trkpt lat="43.47676" lon="5.44954">
        <ele>336</ele>
        <time>2017-03-22T11:05:22Z</time>
      </trkpt>
      <trkpt lat="43.47673" lon="5.44944">
        <ele>337</ele>
        <time>2017-03-22T11:05:29Z</time>
      </trkpt>
      <trkpt lat="43.47673" lon="5.44932">
        <ele>340</ele>
        <time>2017-03-22T11:05:36Z</time>
      </trkpt>
      <trkpt lat="43.47671" lon="5.4492">
        <ele>339</ele>
        <time>2017-03-22T11:05:45Z</time>
      </trkpt>
      <trkpt lat="43.4767" lon="5.44908">
        <ele>339</ele>
        <time>2017-03-22T11:05:53Z</time>
      </trkpt>
      <trkpt lat="43.47664" lon="5.449">
        <ele>331</ele>
        <time>2017-03-22T11:07:15Z</time>
      </trkpt>
      <trkpt lat="43.47662" lon="5.44888">
        <ele>333</ele>
        <time>2017-03-22T11:07:25Z</time>
      </trkpt>
      <trkpt lat="43.47661" lon="5.44876">
        <ele>333</ele>
        <time>2017-03-22T11:07:37Z</time>
      </trkpt>
      <trkpt lat="43.4766" lon="5.44865">
        <ele>334</ele>
        <time>2017-03-22T11:07:46Z</time>
      </trkpt>
      <trkpt lat="43.47659" lon="5.44854">
        <ele>333</ele>
        <time>2017-03-22T11:07:54Z</time>
      </trkpt>
      <trkpt lat="43.47659" lon="5.44843">
        <ele>333</ele>
        <time>2017-03-22T11:08:01Z</time>
      </trkpt>
      <trkpt lat="43.47659" lon="5.44832">
        <ele>331</ele>
        <time>2017-03-22T11:08:11Z</time>
      </trkpt>
      <trkpt lat="43.47659" lon="5.4482">
        <ele>329</ele>
        <time>2017-03-22T11:08:20Z</time>
      </trkpt>
      <trkpt lat="43.4766" lon="5.44809">
        <ele>329</ele>
        <time>2017-03-22T11:08:28Z</time>
      </trkpt>
      <trkpt lat="43.47658" lon="5.44798">
        <ele>330</ele>
        <time>2017-03-22T11:08:35Z</time>
      </trkpt>
      <trkpt lat="43.47658" lon="5.44787">
        <ele>330</ele>
        <time>2017-03-22T11:08:41Z</time>
      </trkpt>
      <trkpt lat="43.47658" lon="5.44776">
        <ele>329</ele>
        <time>2017-03-22T11:08:48Z</time>
      </trkpt>
      <trkpt lat="43.47659" lon="5.44765">
        <ele>327</ele>
        <time>2017-03-22T11:08:55Z</time>
      </trkpt>
      <trkpt lat="43.47658" lon="5.44754">
        <ele>328</ele>
        <time>2017-03-22T11:09:04Z</time>
      </trkpt>
      <trkpt lat="43.47655" lon="5.44743">
        <ele>331</ele>
        <time>2017-03-22T11:09:11Z</time>
      </trkpt>
      <trkpt lat="43.47655" lon="5.44732">
        <ele>331</ele>
        <time>2017-03-22T11:09:19Z</time>
      </trkpt>
      <trkpt lat="43.47655" lon="5.44721">
        <ele>331</ele>
        <time>2017-03-22T11:09:27Z</time>
      </trkpt>
      <trkpt lat="43.47656" lon="5.4471">
        <ele>335</ele>
        <time>2017-03-22T11:09:36Z</time>
      </trkpt>
      <trkpt lat="43.47657" lon="5.44698">
        <ele>337</ele>
        <time>2017-03-22T11:09:45Z</time>
      </trkpt>
      <trkpt lat="43.4766" lon="5.44687">
        <ele>338</ele>
        <time>2017-03-22T11:09:53Z</time>
      </trkpt>
      <trkpt lat="43.47661" lon="5.44676">
        <ele>337</ele>
        <time>2017-03-22T11:10:01Z</time>
      </trkpt>
      <trkpt lat="43.47663" lon="5.44665">
        <ele>338</ele>
        <time>2017-03-22T11:10:08Z</time>
      </trkpt>
      <trkpt lat="43.47664" lon="5.44653">
        <ele>338</ele>
        <time>2017-03-22T11:10:17Z</time>
      </trkpt>
      <trkpt lat="43.47665" lon="5.44641">
        <ele>339</ele>
        <time>2017-03-22T11:10:24Z</time>
      </trkpt>
      <trkpt lat="43.47667" lon="5.4463">
        <ele>339</ele>
        <time>2017-03-22T11:10:31Z</time>
      </trkpt>
      <trkpt lat="43.47671" lon="5.4462">
        <ele>339</ele>
        <time>2017-03-22T11:10:39Z</time>
      </trkpt>
      <trkpt lat="43.47675" lon="5.4461">
        <ele>340</ele>
        <time>2017-03-22T11:10:45Z</time>
      </trkpt>
      <trkpt lat="43.4768" lon="5.446">
        <ele>339</ele>
        <time>2017-03-22T11:10:53Z</time>
      </trkpt>
      <trkpt lat="43.47685" lon="5.4459">
        <ele>340</ele>
        <time>2017-03-22T11:11:01Z</time>
      </trkpt>
      <trkpt lat="43.47691" lon="5.44581">
        <ele>340</ele>
        <time>2017-03-22T11:11:08Z</time>
      </trkpt>
      <trkpt lat="43.47693" lon="5.4457">
        <ele>339</ele>
        <time>2017-03-22T11:11:18Z</time>
      </trkpt>
      <trkpt lat="43.47699" lon="5.44562">
        <ele>340</ele>
        <time>2017-03-22T11:11:25Z</time>
      </trkpt>
      <trkpt lat="43.47705" lon="5.44554">
        <ele>337</ele>
        <time>2017-03-22T11:11:31Z</time>
      </trkpt>
      <trkpt lat="43.4771" lon="5.44544">
        <ele>333</ele>
        <time>2017-03-22T11:11:40Z</time>
      </trkpt>
      <trkpt lat="43.47717" lon="5.44537">
        <ele>333</ele>
        <time>2017-03-22T11:11:48Z</time>
      </trkpt>
      <trkpt lat="43.47723" lon="5.44527">
        <ele>332</ele>
        <time>2017-03-22T11:11:56Z</time>
      </trkpt>
      <trkpt lat="43.47726" lon="5.44517">
        <ele>333</ele>
        <time>2017-03-22T11:12:04Z</time>
      </trkpt>
      <trkpt lat="43.47729" lon="5.44507">
        <ele>333</ele>
        <time>2017-03-22T11:12:10Z</time>
      </trkpt>
      <trkpt lat="43.47733" lon="5.44496">
        <ele>333</ele>
        <time>2017-03-22T11:12:17Z</time>
      </trkpt>
      <trkpt lat="43.47736" lon="5.44485">
        <ele>333</ele>
        <time>2017-03-22T11:12:25Z</time>
      </trkpt>
      <trkpt lat="43.47738" lon="5.44474">
        <ele>334</ele>
        <time>2017-03-22T11:12:33Z</time>
      </trkpt>
      <trkpt lat="43.47746" lon="5.44468">
        <ele>334</ele>
        <time>2017-03-22T11:12:42Z</time>
      </trkpt>
      <trkpt lat="43.47754" lon="5.44462">
        <ele>333</ele>
        <time>2017-03-22T11:12:50Z</time>
      </trkpt>
      <trkpt lat="43.47761" lon="5.44455">
        <ele>331</ele>
        <time>2017-03-22T11:12:59Z</time>
      </trkpt>
      <trkpt lat="43.47767" lon="5.44449">
        <ele>330</ele>
        <time>2017-03-22T11:13:06Z</time>
      </trkpt>
      <trkpt lat="43.47774" lon="5.44441">
        <ele>330</ele>
        <time>2017-03-22T11:13:15Z</time>
      </trkpt>
      <trkpt lat="43.4778" lon="5.44433">
        <ele>329</ele>
        <time>2017-03-22T11:13:25Z</time>
      </trkpt>
      <trkpt lat="43.47786" lon="5.44423">
        <ele>328</ele>
        <time>2017-03-22T11:13:33Z</time>
      </trkpt>
      <trkpt lat="43.47789" lon="5.44412">
        <ele>330</ele>
        <time>2017-03-22T11:13:43Z</time>
      </trkpt>
      <trkpt lat="43.47789" lon="5.44423">
        <ele>327</ele>
        <time>2017-03-22T11:14:12Z</time>
      </trkpt>
      <trkpt lat="43.47787" lon="5.44433">
        <ele>322</ele>
        <time>2017-03-22T11:14:22Z</time>
      </trkpt>
      <trkpt lat="43.47788" lon="5.44445">
        <ele>327</ele>
        <time>2017-03-22T11:14:29Z</time>
      </trkpt>
      <trkpt lat="43.47795" lon="5.44452">
        <ele>323</ele>
        <time>2017-03-22T11:14:36Z</time>
      </trkpt>
      <trkpt lat="43.47802" lon="5.44459">
        <ele>323</ele>
        <time>2017-03-22T11:14:43Z</time>
      </trkpt>
      <trkpt lat="43.47809" lon="5.44464">
        <ele>325</ele>
        <time>2017-03-22T11:14:52Z</time>
      </trkpt>
      <trkpt lat="43.47818" lon="5.44467">
        <ele>325</ele>
        <time>2017-03-22T11:15:01Z</time>
      </trkpt>
      <trkpt lat="43.47826" lon="5.4447">
        <ele>323</ele>
        <time>2017-03-22T11:15:24Z</time>
      </trkpt>
      <trkpt lat="43.47834" lon="5.4447">
        <ele>320</ele>
        <time>2017-03-22T11:15:35Z</time>
      </trkpt>
      <trkpt lat="43.47842" lon="5.44475">
        <ele>319</ele>
        <time>2017-03-22T11:15:43Z</time>
      </trkpt>
      <trkpt lat="43.4785" lon="5.44479">
        <ele>318</ele>
        <time>2017-03-22T11:15:52Z</time>
      </trkpt>
      <trkpt lat="43.47857" lon="5.44484">
        <ele>319</ele>
        <time>2017-03-22T11:16:05Z</time>
      </trkpt>
      <trkpt lat="43.47865" lon="5.44487">
        <ele>317</ele>
        <time>2017-03-22T11:16:21Z</time>
      </trkpt>
      <trkpt lat="43.47871" lon="5.44494">
        <ele>317</ele>
        <time>2017-03-22T11:16:34Z</time>
      </trkpt>
      <trkpt lat="43.47879" lon="5.44501">
        <ele>320</ele>
        <time>2017-03-22T11:17:04Z</time>
      </trkpt>
      <trkpt lat="43.47882" lon="5.4449">
        <ele>317</ele>
        <time>2017-03-22T11:17:14Z</time>
      </trkpt>
      <trkpt lat="43.47891" lon="5.44493">
        <ele>316</ele>
        <time>2017-03-22T11:17:45Z</time>
      </trkpt>
      <trkpt lat="43.47899" lon="5.44496">
        <ele>315</ele>
        <time>2017-03-22T11:17:53Z</time>
      </trkpt>
      <trkpt lat="43.47907" lon="5.44497">
        <ele>314</ele>
        <time>2017-03-22T11:18:06Z</time>
      </trkpt>
      <trkpt lat="43.47915" lon="5.44501">
        <ele>305</ele>
        <time>2017-03-22T11:18:23Z</time>
      </trkpt>
      <trkpt lat="43.47924" lon="5.44502">
        <ele>308</ele>
        <time>2017-03-22T11:18:35Z</time>
      </trkpt>
      <trkpt lat="43.47924" lon="5.44513">
        <ele>303</ele>
        <time>2017-03-22T11:20:08Z</time>
      </trkpt>
      <trkpt lat="43.47919" lon="5.44519">
        <ele>302</ele>
        <time>2017-03-22T11:38:36Z</time>
      </trkpt>
      <trkpt lat="43.47925" lon="5.44523">
        <ele>309</ele>
        <time>2017-03-22T11:45:48Z</time>
      </trkpt>
      <trkpt lat="43.47927" lon="5.44518">
        <ele>308</ele>
        <time>2017-03-22T11:46:47Z</time>
      </trkpt>
      <trkpt lat="43.47921" lon="5.4451">
        <ele>309</ele>
        <time>2017-03-22T11:46:52Z</time>
      </trkpt>
      <trkpt lat="43.47927" lon="5.44518">
        <ele>309</ele>
        <time>2017-03-22T11:47:25Z</time>
      </trkpt>
      <trkpt lat="43.47936" lon="5.44516">
        <ele>311</ele>
        <time>2017-03-22T11:49:36Z</time>
      </trkpt>
      <trkpt lat="43.47927" lon="5.44516">
        <ele>311</ele>
        <time>2017-03-22T12:13:22Z</time>
      </trkpt>
      <trkpt lat="43.47935" lon="5.44519">
        <ele>306</ele>
        <time>2017-03-22T12:15:06Z</time>
      </trkpt>
      <trkpt lat="43.47943" lon="5.44524">
        <ele>306</ele>
        <time>2017-03-22T12:15:18Z</time>
      </trkpt>
      <trkpt lat="43.47949" lon="5.44532">
        <ele>308</ele>
        <time>2017-03-22T12:15:28Z</time>
      </trkpt>
      <trkpt lat="43.4794" lon="5.44536">
        <ele>310</ele>
        <time>2017-03-22T12:16:23Z</time>
      </trkpt>
      <trkpt lat="43.47934" lon="5.44545">
        <ele>308</ele>
        <time>2017-03-22T12:16:32Z</time>
      </trkpt>
      <trkpt lat="43.47929" lon="5.44555">
        <ele>307</ele>
        <time>2017-03-22T12:16:44Z</time>
      </trkpt>
      <trkpt lat="43.47924" lon="5.44564">
        <ele>307</ele>
        <time>2017-03-22T12:16:57Z</time>
      </trkpt>
      <trkpt lat="43.4792" lon="5.44574">
        <ele>307</ele>
        <time>2017-03-22T12:17:08Z</time>
      </trkpt>
      <trkpt lat="43.47913" lon="5.4458">
        <ele>310</ele>
        <time>2017-03-22T12:17:18Z</time>
      </trkpt>
      <trkpt lat="43.47911" lon="5.4459">
        <ele>310</ele>
        <time>2017-03-22T12:17:25Z</time>
      </trkpt>
      <trkpt lat="43.47904" lon="5.44596">
        <ele>311</ele>
        <time>2017-03-22T12:17:30Z</time>
      </trkpt>
      <trkpt lat="43.479" lon="5.44605">
        <ele>315</ele>
        <time>2017-03-22T12:17:40Z</time>
      </trkpt>
      <trkpt lat="43.47897" lon="5.44616">
        <ele>316</ele>
        <time>2017-03-22T12:17:50Z</time>
      </trkpt>
      <trkpt lat="43.47895" lon="5.44627">
        <ele>313</ele>
        <time>2017-03-22T12:18:00Z</time>
      </trkpt>
      <trkpt lat="43.47896" lon="5.44639">
        <ele>317</ele>
        <time>2017-03-22T12:18:14Z</time>
      </trkpt>
      <trkpt lat="43.47893" lon="5.4465">
        <ele>314</ele>
        <time>2017-03-22T12:18:23Z</time>
      </trkpt>
      <trkpt lat="43.47893" lon="5.44662">
        <ele>314</ele>
        <time>2017-03-22T12:18:36Z</time>
      </trkpt>
      <trkpt lat="43.47892" lon="5.44674">
        <ele>313</ele>
        <time>2017-03-22T12:18:47Z</time>
      </trkpt>
      <trkpt lat="43.47888" lon="5.44685">
        <ele>314</ele>
        <time>2017-03-22T12:18:56Z</time>
      </trkpt>
      <trkpt lat="43.47888" lon="5.44696">
        <ele>316</ele>
        <time>2017-03-22T12:19:06Z</time>
      </trkpt>
      <trkpt lat="43.47887" lon="5.44708">
        <ele>316</ele>
        <time>2017-03-22T12:19:16Z</time>
      </trkpt>
      <trkpt lat="43.47887" lon="5.4472">
        <ele>317</ele>
        <time>2017-03-22T12:19:23Z</time>
      </trkpt>
      <trkpt lat="43.47883" lon="5.44731">
        <ele>315</ele>
        <time>2017-03-22T12:19:32Z</time>
      </trkpt>
      <trkpt lat="43.47881" lon="5.44742">
        <ele>316</ele>
        <time>2017-03-22T12:19:41Z</time>
      </trkpt>
      <trkpt lat="43.47879" lon="5.44753">
        <ele>316</ele>
        <time>2017-03-22T12:19:50Z</time>
      </trkpt>
      <trkpt lat="43.47879" lon="5.44765">
        <ele>317</ele>
        <time>2017-03-22T12:19:59Z</time>
      </trkpt>
      <trkpt lat="43.47876" lon="5.44776">
        <ele>318</ele>
        <time>2017-03-22T12:20:08Z</time>
      </trkpt>
      <trkpt lat="43.47873" lon="5.44787">
        <ele>317</ele>
        <time>2017-03-22T12:20:16Z</time>
      </trkpt>
      <trkpt lat="43.47874" lon="5.44799">
        <ele>314</ele>
        <time>2017-03-22T12:20:25Z</time>
      </trkpt>
      <trkpt lat="43.47871" lon="5.4481">
        <ele>317</ele>
        <time>2017-03-22T12:20:35Z</time>
      </trkpt>
      <trkpt lat="43.4787" lon="5.44821">
        <ele>317</ele>
        <time>2017-03-22T12:20:46Z</time>
      </trkpt>
      <trkpt lat="43.47866" lon="5.44832">
        <ele>316</ele>
        <time>2017-03-22T12:20:55Z</time>
      </trkpt>
      <trkpt lat="43.47865" lon="5.44844">
        <ele>317</ele>
        <time>2017-03-22T12:21:04Z</time>
      </trkpt>
      <trkpt lat="43.47864" lon="5.44855">
        <ele>318</ele>
        <time>2017-03-22T12:21:12Z</time>
      </trkpt>
      <trkpt lat="43.47863" lon="5.44866">
        <ele>319</ele>
        <time>2017-03-22T12:21:19Z</time>
      </trkpt>
      <trkpt lat="43.47862" lon="5.44877">
        <ele>321</ele>
        <time>2017-03-22T12:21:27Z</time>
      </trkpt>
      <trkpt lat="43.47859" lon="5.44888">
        <ele>322</ele>
        <time>2017-03-22T12:21:35Z</time>
      </trkpt>
      <trkpt lat="43.47854" lon="5.44898">
        <ele>325</ele>
        <time>2017-03-22T12:22:24Z</time>
      </trkpt>
      <trkpt lat="43.47848" lon="5.44904">
        <ele>325</ele>
        <time>2017-03-22T12:22:32Z</time>
      </trkpt>
      <trkpt lat="43.47842" lon="5.44912">
        <ele>326</ele>
        <time>2017-03-22T12:22:40Z</time>
      </trkpt>
      <trkpt lat="43.47836" lon="5.44919">
        <ele>327</ele>
        <time>2017-03-22T12:22:48Z</time>
      </trkpt>
      <trkpt lat="43.47831" lon="5.44928">
        <ele>326</ele>
        <time>2017-03-22T12:22:57Z</time>
      </trkpt>
      <trkpt lat="43.47824" lon="5.44936">
        <ele>327</ele>
        <time>2017-03-22T12:23:04Z</time>
      </trkpt>
      <trkpt lat="43.47817" lon="5.44944">
        <ele>327</ele>
        <time>2017-03-22T12:23:12Z</time>
      </trkpt>
      <trkpt lat="43.47811" lon="5.44952">
        <ele>326</ele>
        <time>2017-03-22T12:23:20Z</time>
      </trkpt>
      <trkpt lat="43.47806" lon="5.4496">
        <ele>327</ele>
        <time>2017-03-22T12:23:28Z</time>
      </trkpt>
      <trkpt lat="43.478" lon="5.44969">
        <ele>327</ele>
        <time>2017-03-22T12:23:36Z</time>
      </trkpt>
      <trkpt lat="43.47796" lon="5.44979">
        <ele>329</ele>
        <time>2017-03-22T12:23:43Z</time>
      </trkpt>
      <trkpt lat="43.47795" lon="5.4499">
        <ele>327</ele>
        <time>2017-03-22T12:23:50Z</time>
      </trkpt>
      <trkpt lat="43.47798" lon="5.45001">
        <ele>326</ele>
        <time>2017-03-22T12:23:57Z</time>
      </trkpt>
      <trkpt lat="43.47803" lon="5.4501">
        <ele>328</ele>
        <time>2017-03-22T12:24:04Z</time>
      </trkpt>
      <trkpt lat="43.47812" lon="5.45011">
        <ele>327</ele>
        <time>2017-03-22T12:24:12Z</time>
      </trkpt>
      <trkpt lat="43.47821" lon="5.45012">
        <ele>326</ele>
        <time>2017-03-22T12:24:23Z</time>
      </trkpt>
      <trkpt lat="43.47829" lon="5.45012">
        <ele>328</ele>
        <time>2017-03-22T12:24:31Z</time>
      </trkpt>
      <trkpt lat="43.47837" lon="5.45012">
        <ele>330</ele>
        <time>2017-03-22T12:24:45Z</time>
      </trkpt>
      <trkpt lat="43.47845" lon="5.45008">
        <ele>331</ele>
        <time>2017-03-22T12:24:52Z</time>
      </trkpt>
      <trkpt lat="43.47851" lon="5.45001">
        <ele>331</ele>
        <time>2017-03-22T12:25:00Z</time>
      </trkpt>
      <trkpt lat="43.47856" lon="5.44991">
        <ele>330</ele>
        <time>2017-03-22T12:25:07Z</time>
      </trkpt>
      <trkpt lat="43.4786" lon="5.44981">
        <ele>335</ele>
        <time>2017-03-22T12:25:15Z</time>
      </trkpt>
      <trkpt lat="43.47865" lon="5.44971">
        <ele>341</ele>
        <time>2017-03-22T12:25:23Z</time>
      </trkpt>
      <trkpt lat="43.47871" lon="5.44962">
        <ele>339</ele>
        <time>2017-03-22T12:25:30Z</time>
      </trkpt>
      <trkpt lat="43.47876" lon="5.44952">
        <ele>336</ele>
        <time>2017-03-22T12:25:41Z</time>
      </trkpt>
      <trkpt lat="43.47882" lon="5.44944">
        <ele>334</ele>
        <time>2017-03-22T12:25:57Z</time>
      </trkpt>
      <trkpt lat="43.4789" lon="5.44942">
        <ele>333</ele>
        <time>2017-03-22T12:26:09Z</time>
      </trkpt>
      <trkpt lat="43.47898" lon="5.44943">
        <ele>330</ele>
        <time>2017-03-22T12:26:17Z</time>
      </trkpt>
      <trkpt lat="43.47906" lon="5.44947">
        <ele>326</ele>
        <time>2017-03-22T12:26:27Z</time>
      </trkpt>
      <trkpt lat="43.47915" lon="5.44948">
        <ele>324</ele>
        <time>2017-03-22T12:26:34Z</time>
      </trkpt>
      <trkpt lat="43.47922" lon="5.44954">
        <ele>323</ele>
        <time>2017-03-22T12:26:46Z</time>
      </trkpt>
      <trkpt lat="43.47926" lon="5.44964">
        <ele>324</ele>
        <time>2017-03-22T12:26:57Z</time>
      </trkpt>
      <trkpt lat="43.47932" lon="5.44972">
        <ele>324</ele>
        <time>2017-03-22T12:27:08Z</time>
      </trkpt>
      <trkpt lat="43.4794" lon="5.44971">
        <ele>324</ele>
        <time>2017-03-22T12:27:13Z</time>
      </trkpt>
      <trkpt lat="43.47948" lon="5.44967">
        <ele>327</ele>
        <time>2017-03-22T12:27:20Z</time>
      </trkpt>
      <trkpt lat="43.47956" lon="5.4496">
        <ele>328</ele>
        <time>2017-03-22T12:27:28Z</time>
      </trkpt>
      <trkpt lat="43.47964" lon="5.44959">
        <ele>330</ele>
        <time>2017-03-22T12:27:37Z</time>
      </trkpt>
      <trkpt lat="43.47971" lon="5.44955">
        <ele>331</ele>
        <time>2017-03-22T12:27:44Z</time>
      </trkpt>
      <trkpt lat="43.47979" lon="5.44952">
        <ele>331</ele>
        <time>2017-03-22T12:27:55Z</time>
      </trkpt>
      <trkpt lat="43.47987" lon="5.4495">
        <ele>336</ele>
        <time>2017-03-22T12:28:05Z</time>
      </trkpt>
      <trkpt lat="43.47996" lon="5.44952">
        <ele>337</ele>
        <time>2017-03-22T12:28:17Z</time>
      </trkpt>
      <trkpt lat="43.48004" lon="5.44951">
        <ele>337</ele>
        <time>2017-03-22T12:28:30Z</time>
      </trkpt>
      <trkpt lat="43.48011" lon="5.44945">
        <ele>334</ele>
        <time>2017-03-22T12:28:37Z</time>
      </trkpt>
      <trkpt lat="43.48016" lon="5.44937">
        <ele>333</ele>
        <time>2017-03-22T12:28:43Z</time>
      </trkpt>
      <trkpt lat="43.48024" lon="5.4493">
        <ele>336</ele>
        <time>2017-03-22T12:28:50Z</time>
      </trkpt>
      <trkpt lat="43.48032" lon="5.44932">
        <ele>337</ele>
        <time>2017-03-22T12:29:00Z</time>
      </trkpt>
      <trkpt lat="43.4804" lon="5.44937">
        <ele>334</ele>
        <time>2017-03-22T12:29:16Z</time>
      </trkpt>
      <trkpt lat="43.48048" lon="5.44943">
        <ele>333</ele>
        <time>2017-03-22T12:29:28Z</time>
      </trkpt>
      <trkpt lat="43.48054" lon="5.44951">
        <ele>331</ele>
        <time>2017-03-22T12:29:36Z</time>
      </trkpt>
      <trkpt lat="43.48059" lon="5.4496">
        <ele>332</ele>
        <time>2017-03-22T12:29:49Z</time>
      </trkpt>
      <trkpt lat="43.48065" lon="5.44968">
        <ele>333</ele>
        <time>2017-03-22T12:29:56Z</time>
      </trkpt>
      <trkpt lat="43.48066" lon="5.44979">
        <ele>331</ele>
        <time>2017-03-22T12:30:06Z</time>
      </trkpt>
      <trkpt lat="43.48068" lon="5.4499">
        <ele>333</ele>
        <time>2017-03-22T12:30:14Z</time>
      </trkpt>
      <trkpt lat="43.4807" lon="5.45001">
        <ele>335</ele>
        <time>2017-03-22T12:30:24Z</time>
      </trkpt>
      <trkpt lat="43.48072" lon="5.45012">
        <ele>337</ele>
        <time>2017-03-22T12:30:35Z</time>
      </trkpt>
      <trkpt lat="43.48072" lon="5.45024">
        <ele>337</ele>
        <time>2017-03-22T12:30:46Z</time>
      </trkpt>
      <trkpt lat="43.48078" lon="5.45033">
        <ele>336</ele>
        <time>2017-03-22T12:30:54Z</time>
      </trkpt>
      <trkpt lat="43.48078" lon="5.45043">
        <ele>336</ele>
        <time>2017-03-22T12:31:00Z</time>
      </trkpt>
      <trkpt lat="43.48079" lon="5.45055">
        <ele>337</ele>
        <time>2017-03-22T12:31:08Z</time>
      </trkpt>
      <trkpt lat="43.4808" lon="5.45067">
        <ele>340</ele>
        <time>2017-03-22T12:31:14Z</time>
      </trkpt>
      <trkpt lat="43.48083" lon="5.45078">
        <ele>340</ele>
        <time>2017-03-22T12:31:23Z</time>
      </trkpt>
      <trkpt lat="43.48083" lon="5.45089">
        <ele>342</ele>
        <time>2017-03-22T12:31:30Z</time>
      </trkpt>
      <trkpt lat="43.48092" lon="5.45088">
        <ele>342</ele>
        <time>2017-03-22T12:32:03Z</time>
      </trkpt>
      <trkpt lat="43.48099" lon="5.4508">
        <ele>345</ele>
        <time>2017-03-22T12:32:13Z</time>
      </trkpt>
      <trkpt lat="43.48104" lon="5.45072">
        <ele>346</ele>
        <time>2017-03-22T12:32:26Z</time>
      </trkpt>
      <trkpt lat="43.4811" lon="5.45063">
        <ele>349</ele>
        <time>2017-03-22T12:32:37Z</time>
      </trkpt>
      <trkpt lat="43.48117" lon="5.45056">
        <ele>352</ele>
        <time>2017-03-22T12:32:45Z</time>
      </trkpt>
      <trkpt lat="43.48122" lon="5.45046">
        <ele>351</ele>
        <time>2017-03-22T12:32:56Z</time>
      </trkpt>
      <trkpt lat="43.48128" lon="5.45039">
        <ele>352</ele>
        <time>2017-03-22T12:33:08Z</time>
      </trkpt>
      <trkpt lat="43.48136" lon="5.45032">
        <ele>352</ele>
        <time>2017-03-22T12:33:21Z</time>
      </trkpt>
      <trkpt lat="43.48142" lon="5.45024">
        <ele>351</ele>
        <time>2017-03-22T12:33:29Z</time>
      </trkpt>
      <trkpt lat="43.48148" lon="5.45016">
        <ele>352</ele>
        <time>2017-03-22T12:33:36Z</time>
      </trkpt>
      <trkpt lat="43.48155" lon="5.45009">
        <ele>350</ele>
        <time>2017-03-22T12:33:46Z</time>
      </trkpt>
      <trkpt lat="43.48159" lon="5.44998">
        <ele>346</ele>
        <time>2017-03-22T12:33:54Z</time>
      </trkpt>
      <trkpt lat="43.48165" lon="5.44989">
        <ele>345</ele>
        <time>2017-03-22T12:34:07Z</time>
      </trkpt>
      <trkpt lat="43.48171" lon="5.4498">
        <ele>349</ele>
        <time>2017-03-22T12:34:16Z</time>
      </trkpt>
      <trkpt lat="43.48177" lon="5.44971">
        <ele>349</ele>
        <time>2017-03-22T12:34:26Z</time>
      </trkpt>
      <trkpt lat="43.48182" lon="5.44962">
        <ele>343</ele>
        <time>2017-03-22T12:34:38Z</time>
      </trkpt>
      <trkpt lat="43.48189" lon="5.44955">
        <ele>353</ele>
        <time>2017-03-22T12:34:47Z</time>
      </trkpt>
      <trkpt lat="43.48195" lon="5.44947">
        <ele>355</ele>
        <time>2017-03-22T12:34:57Z</time>
      </trkpt>
      <trkpt lat="43.48201" lon="5.44938">
        <ele>353</ele>
        <time>2017-03-22T12:35:05Z</time>
      </trkpt>
      <trkpt lat="43.48206" lon="5.44931">
        <ele>355</ele>
        <time>2017-03-22T12:35:13Z</time>
      </trkpt>
      <trkpt lat="43.48214" lon="5.44924">
        <ele>356</ele>
        <time>2017-03-22T12:35:21Z</time>
      </trkpt>
      <trkpt lat="43.48221" lon="5.44917">
        <ele>358</ele>
        <time>2017-03-22T12:35:29Z</time>
      </trkpt>
      <trkpt lat="43.48228" lon="5.44911">
        <ele>357</ele>
        <time>2017-03-22T12:35:36Z</time>
      </trkpt>
      <trkpt lat="43.48232" lon="5.449">
        <ele>359</ele>
        <time>2017-03-22T12:35:44Z</time>
      </trkpt>
      <trkpt lat="43.48238" lon="5.44892">
        <ele>361</ele>
        <time>2017-03-22T12:35:53Z</time>
      </trkpt>
      <trkpt lat="43.48244" lon="5.44884">
        <ele>362</ele>
        <time>2017-03-22T12:36:00Z</time>
      </trkpt>
      <trkpt lat="43.4825" lon="5.44875">
        <ele>360</ele>
        <time>2017-03-22T12:36:07Z</time>
      </trkpt>
      <trkpt lat="43.48254" lon="5.44866">
        <ele>361</ele>
        <time>2017-03-22T12:36:15Z</time>
      </trkpt>
      <trkpt lat="43.48259" lon="5.44855">
        <ele>357</ele>
        <time>2017-03-22T12:36:23Z</time>
      </trkpt>
      <trkpt lat="43.48266" lon="5.44849">
        <ele>355</ele>
        <time>2017-03-22T12:36:30Z</time>
      </trkpt>
      <trkpt lat="43.48272" lon="5.44843">
        <ele>355</ele>
        <time>2017-03-22T12:36:37Z</time>
      </trkpt>
      <trkpt lat="43.48278" lon="5.44835">
        <ele>355</ele>
        <time>2017-03-22T12:36:45Z</time>
      </trkpt>
      <trkpt lat="43.48285" lon="5.44826">
        <ele>356</ele>
        <time>2017-03-22T12:36:54Z</time>
      </trkpt>
      <trkpt lat="43.48289" lon="5.44817">
        <ele>352</ele>
        <time>2017-03-22T12:37:02Z</time>
      </trkpt>
      <trkpt lat="43.48295" lon="5.44809">
        <ele>354</ele>
        <time>2017-03-22T12:37:09Z</time>
      </trkpt>
      <trkpt lat="43.483" lon="5.44802">
        <ele>354</ele>
        <time>2017-03-22T12:37:16Z</time>
      </trkpt>
      <trkpt lat="43.48307" lon="5.44794">
        <ele>355</ele>
        <time>2017-03-22T12:37:23Z</time>
      </trkpt>
      <trkpt lat="43.48312" lon="5.44785">
        <ele>355</ele>
        <time>2017-03-22T12:37:31Z</time>
      </trkpt>
      <trkpt lat="43.48319" lon="5.44777">
        <ele>357</ele>
        <time>2017-03-22T12:37:38Z</time>
      </trkpt>
      <trkpt lat="43.48326" lon="5.4477">
        <ele>357</ele>
        <time>2017-03-22T12:37:45Z</time>
      </trkpt>
      <trkpt lat="43.48333" lon="5.44763">
        <ele>357</ele>
        <time>2017-03-22T12:37:54Z</time>
      </trkpt>
      <trkpt lat="43.4834" lon="5.44756">
        <ele>357</ele>
        <time>2017-03-22T12:38:03Z</time>
      </trkpt>
      <trkpt lat="43.48345" lon="5.44745">
        <ele>355</ele>
        <time>2017-03-22T12:38:12Z</time>
      </trkpt>
      <trkpt lat="43.4835" lon="5.44736">
        <ele>353</ele>
        <time>2017-03-22T12:38:22Z</time>
      </trkpt>
      <trkpt lat="43.48356" lon="5.44727">
        <ele>353</ele>
        <time>2017-03-22T12:38:35Z</time>
      </trkpt>
      <trkpt lat="43.48359" lon="5.44717">
        <ele>351</ele>
        <time>2017-03-22T12:38:42Z</time>
      </trkpt>
      <trkpt lat="43.48364" lon="5.44707">
        <ele>347</ele>
        <time>2017-03-22T12:38:51Z</time>
      </trkpt>
      <trkpt lat="43.48371" lon="5.44702">
        <ele>347</ele>
        <time>2017-03-22T12:39:04Z</time>
      </trkpt>
      <trkpt lat="43.48376" lon="5.44695">
        <ele>343</ele>
        <time>2017-03-22T12:39:21Z</time>
      </trkpt>
      <trkpt lat="43.48383" lon="5.44688">
        <ele>345</ele>
        <time>2017-03-22T12:39:29Z</time>
      </trkpt>
      <trkpt lat="43.48389" lon="5.4468">
        <ele>344</ele>
        <time>2017-03-22T12:39:36Z</time>
      </trkpt>
      <trkpt lat="43.48393" lon="5.44669">
        <ele>344</ele>
        <time>2017-03-22T12:39:43Z</time>
      </trkpt>
      <trkpt lat="43.48401" lon="5.44662">
        <ele>344</ele>
        <time>2017-03-22T12:40:06Z</time>
      </trkpt>
      <trkpt lat="43.48409" lon="5.44658">
        <ele>342</ele>
        <time>2017-03-22T12:40:19Z</time>
      </trkpt>
      <trkpt lat="43.48417" lon="5.44656">
        <ele>342</ele>
        <time>2017-03-22T12:40:28Z</time>
      </trkpt>
      <trkpt lat="43.48426" lon="5.44656">
        <ele>345</ele>
        <time>2017-03-22T12:40:36Z</time>
      </trkpt>
      <trkpt lat="43.48435" lon="5.44656">
        <ele>344</ele>
        <time>2017-03-22T12:40:45Z</time>
      </trkpt>
      <trkpt lat="43.48442" lon="5.44656">
        <ele>342</ele>
        <time>2017-03-22T12:40:53Z</time>
      </trkpt>
      <trkpt lat="43.48451" lon="5.44656">
        <ele>342</ele>
        <time>2017-03-22T12:41:01Z</time>
      </trkpt>
      <trkpt lat="43.48459" lon="5.44656">
        <ele>340</ele>
        <time>2017-03-22T12:41:11Z</time>
      </trkpt>
      <trkpt lat="43.48466" lon="5.44663">
        <ele>338</ele>
        <time>2017-03-22T12:41:25Z</time>
      </trkpt>
      <trkpt lat="43.48473" lon="5.44671">
        <ele>336</ele>
        <time>2017-03-22T12:41:36Z</time>
      </trkpt>
      <trkpt lat="43.4848" lon="5.44678">
        <ele>333</ele>
        <time>2017-03-22T12:41:44Z</time>
      </trkpt>
      <trkpt lat="43.48488" lon="5.44681">
        <ele>331</ele>
        <time>2017-03-22T12:41:53Z</time>
      </trkpt>
      <trkpt lat="43.48496" lon="5.44685">
        <ele>329</ele>
        <time>2017-03-22T12:42:13Z</time>
      </trkpt>
      <trkpt lat="43.48503" lon="5.44691">
        <ele>327</ele>
        <time>2017-03-22T12:42:26Z</time>
      </trkpt>
      <trkpt lat="43.48509" lon="5.44699">
        <ele>326</ele>
        <time>2017-03-22T12:42:35Z</time>
      </trkpt>
      <trkpt lat="43.48513" lon="5.4471">
        <ele>326</ele>
        <time>2017-03-22T12:42:45Z</time>
      </trkpt>
      <trkpt lat="43.48514" lon="5.44722">
        <ele>325</ele>
        <time>2017-03-22T12:42:57Z</time>
      </trkpt>
      <trkpt lat="43.4852" lon="5.44729">
        <ele>325</ele>
        <time>2017-03-22T12:43:07Z</time>
      </trkpt>
      <trkpt lat="43.48528" lon="5.44733">
        <ele>323</ele>
        <time>2017-03-22T12:43:16Z</time>
      </trkpt>
      <trkpt lat="43.48537" lon="5.44737">
        <ele>323</ele>
        <time>2017-03-22T12:43:25Z</time>
      </trkpt>
      <trkpt lat="43.48545" lon="5.44742">
        <ele>322</ele>
        <time>2017-03-22T12:43:37Z</time>
      </trkpt>
      <trkpt lat="43.48551" lon="5.44749">
        <ele>321</ele>
        <time>2017-03-22T12:43:48Z</time>
      </trkpt>
      <trkpt lat="43.48553" lon="5.44761">
        <ele>318</ele>
        <time>2017-03-22T12:43:58Z</time>
      </trkpt>
      <trkpt lat="43.48553" lon="5.44771">
        <ele>318</ele>
        <time>2017-03-22T12:44:05Z</time>
      </trkpt>
      <trkpt lat="43.48557" lon="5.44782">
        <ele>320</ele>
        <time>2017-03-22T12:44:14Z</time>
      </trkpt>
      <trkpt lat="43.48565" lon="5.44783">
        <ele>321</ele>
        <time>2017-03-22T12:44:23Z</time>
      </trkpt>
      <trkpt lat="43.48573" lon="5.44781">
        <ele>320</ele>
        <time>2017-03-22T12:44:33Z</time>
      </trkpt>
      <trkpt lat="43.48581" lon="5.44778">
        <ele>318</ele>
        <time>2017-03-22T12:44:45Z</time>
      </trkpt>
      <trkpt lat="43.48589" lon="5.44774">
        <ele>317</ele>
        <time>2017-03-22T12:44:56Z</time>
      </trkpt>
      <trkpt lat="43.48598" lon="5.44769">
        <ele>317</ele>
        <time>2017-03-22T12:45:05Z</time>
      </trkpt>
      <trkpt lat="43.48605" lon="5.44765">
        <ele>313</ele>
        <time>2017-03-22T12:45:15Z</time>
      </trkpt>
      <trkpt lat="43.48613" lon="5.44761">
        <ele>317</ele>
        <time>2017-03-22T12:45:24Z</time>
      </trkpt>
      <trkpt lat="43.48622" lon="5.44762">
        <ele>316</ele>
        <time>2017-03-22T12:45:35Z</time>
      </trkpt>
      <trkpt lat="43.4863" lon="5.44762">
        <ele>316</ele>
        <time>2017-03-22T12:45:44Z</time>
      </trkpt>
      <trkpt lat="43.48639" lon="5.44763">
        <ele>315</ele>
        <time>2017-03-22T12:45:53Z</time>
      </trkpt>
      <trkpt lat="43.48647" lon="5.44766">
        <ele>316</ele>
        <time>2017-03-22T12:46:02Z</time>
      </trkpt>
      <trkpt lat="43.48655" lon="5.44769">
        <ele>313</ele>
        <time>2017-03-22T12:46:15Z</time>
      </trkpt>
      <trkpt lat="43.48661" lon="5.44775">
        <ele>309</ele>
        <time>2017-03-22T12:46:25Z</time>
      </trkpt>
      <trkpt lat="43.48668" lon="5.44782">
        <ele>308</ele>
        <time>2017-03-22T12:46:34Z</time>
      </trkpt>
      <trkpt lat="43.48673" lon="5.44791">
        <ele>305</ele>
        <time>2017-03-22T12:46:44Z</time>
      </trkpt>
      <trkpt lat="43.48679" lon="5.44798">
        <ele>302</ele>
        <time>2017-03-22T12:46:53Z</time>
      </trkpt>
      <trkpt lat="43.48687" lon="5.44803">
        <ele>300</ele>
        <time>2017-03-22T12:47:02Z</time>
      </trkpt>
      <trkpt lat="43.48694" lon="5.44808">
        <ele>302</ele>
        <time>2017-03-22T12:47:11Z</time>
      </trkpt>
      <trkpt lat="43.48701" lon="5.44815">
        <ele>303</ele>
        <time>2017-03-22T12:47:22Z</time>
      </trkpt>
      <trkpt lat="43.48708" lon="5.44821">
        <ele>302</ele>
        <time>2017-03-22T12:47:32Z</time>
      </trkpt>
      <trkpt lat="43.48716" lon="5.44827">
        <ele>299</ele>
        <time>2017-03-22T12:47:45Z</time>
      </trkpt>
      <trkpt lat="43.48723" lon="5.44834">
        <ele>298</ele>
        <time>2017-03-22T12:47:56Z</time>
      </trkpt>
      <trkpt lat="43.4873" lon="5.44839">
        <ele>300</ele>
        <time>2017-03-22T12:48:06Z</time>
      </trkpt>
      <trkpt lat="43.48738" lon="5.44843">
        <ele>300</ele>
        <time>2017-03-22T12:48:14Z</time>
      </trkpt>
      <trkpt lat="43.48746" lon="5.44845">
        <ele>300</ele>
        <time>2017-03-22T12:48:23Z</time>
      </trkpt>
      <trkpt lat="43.48755" lon="5.44846">
        <ele>301</ele>
        <time>2017-03-22T12:48:32Z</time>
      </trkpt>
      <trkpt lat="43.48762" lon="5.44851">
        <ele>300</ele>
        <time>2017-03-22T12:48:41Z</time>
      </trkpt>
      <trkpt lat="43.4877" lon="5.44854">
        <ele>302</ele>
        <time>2017-03-22T12:48:51Z</time>
      </trkpt>
      <trkpt lat="43.48772" lon="5.44865">
        <ele>296</ele>
        <time>2017-03-22T12:52:46Z</time>
      </trkpt>
      <trkpt lat="43.48774" lon="5.44877">
        <ele>296</ele>
        <time>2017-03-22T12:52:55Z</time>
      </trkpt>
      <trkpt lat="43.48778" lon="5.44887">
        <ele>296</ele>
        <time>2017-03-22T12:53:06Z</time>
      </trkpt>
      <trkpt lat="43.4878" lon="5.44899">
        <ele>300</ele>
        <time>2017-03-22T12:53:31Z</time>
      </trkpt>
      <trkpt lat="43.48773" lon="5.44906">
        <ele>299</ele>
        <time>2017-03-22T12:53:43Z</time>
      </trkpt>
      <trkpt lat="43.48772" lon="5.44917">
        <ele>299</ele>
        <time>2017-03-22T12:53:53Z</time>
      </trkpt>
      <trkpt lat="43.48768" lon="5.44927">
        <ele>301</ele>
        <time>2017-03-22T12:54:02Z</time>
      </trkpt>
      <trkpt lat="43.48769" lon="5.44939">
        <ele>302</ele>
        <time>2017-03-22T12:54:11Z</time>
      </trkpt>
      <trkpt lat="43.48765" lon="5.44949">
        <ele>304</ele>
        <time>2017-03-22T12:54:20Z</time>
      </trkpt>
      <trkpt lat="43.48762" lon="5.44961">
        <ele>306</ele>
        <time>2017-03-22T12:54:35Z</time>
      </trkpt>
      <trkpt lat="43.4876" lon="5.44973">
        <ele>306</ele>
        <time>2017-03-22T12:54:53Z</time>
      </trkpt>
      <trkpt lat="43.48756" lon="5.44983">
        <ele>310</ele>
        <time>2017-03-22T12:55:14Z</time>
      </trkpt>
      <trkpt lat="43.48751" lon="5.44992">
        <ele>312</ele>
        <time>2017-03-22T12:55:26Z</time>
      </trkpt>
      <trkpt lat="43.48745" lon="5.45001">
        <ele>314</ele>
        <time>2017-03-22T12:55:44Z</time>
      </trkpt>
      <trkpt lat="43.48744" lon="5.45012">
        <ele>317</ele>
        <time>2017-03-22T12:56:19Z</time>
      </trkpt>
      <trkpt lat="43.4874" lon="5.45024">
        <ele>317</ele>
        <time>2017-03-22T12:56:30Z</time>
      </trkpt>
      <trkpt lat="43.48739" lon="5.45035">
        <ele>318</ele>
        <time>2017-03-22T12:56:42Z</time>
      </trkpt>
      <trkpt lat="43.48743" lon="5.45046">
        <ele>313</ele>
        <time>2017-03-22T12:57:18Z</time>
      </trkpt>
      <trkpt lat="43.48748" lon="5.45056">
        <ele>321</ele>
        <time>2017-03-22T12:57:37Z</time>
      </trkpt>
      <trkpt lat="43.48756" lon="5.45056">
        <ele>321</ele>
        <time>2017-03-22T12:57:47Z</time>
      </trkpt>
      <trkpt lat="43.48765" lon="5.45054">
        <ele>324</ele>
        <time>2017-03-22T12:57:56Z</time>
      </trkpt>
      <trkpt lat="43.48773" lon="5.45053">
        <ele>324</ele>
        <time>2017-03-22T12:58:04Z</time>
      </trkpt>
      <trkpt lat="43.48782" lon="5.45052">
        <ele>325</ele>
        <time>2017-03-22T12:58:12Z</time>
      </trkpt>
      <trkpt lat="43.48791" lon="5.45051">
        <ele>325</ele>
        <time>2017-03-22T12:58:22Z</time>
      </trkpt>
      <trkpt lat="43.48799" lon="5.45047">
        <ele>326</ele>
        <time>2017-03-22T12:58:32Z</time>
      </trkpt>
      <trkpt lat="43.48807" lon="5.45053">
        <ele>325</ele>
        <time>2017-03-22T12:58:52Z</time>
      </trkpt>
      <trkpt lat="43.48806" lon="5.45064">
        <ele>326</ele>
        <time>2017-03-22T12:59:02Z</time>
      </trkpt>
      <trkpt lat="43.48803" lon="5.45074">
        <ele>328</ele>
        <time>2017-03-22T12:59:11Z</time>
      </trkpt>
      <trkpt lat="43.48797" lon="5.45083">
        <ele>330</ele>
        <time>2017-03-22T12:59:19Z</time>
      </trkpt>
      <trkpt lat="43.4879" lon="5.4509">
        <ele>330</ele>
        <time>2017-03-22T12:59:30Z</time>
      </trkpt>
      <trkpt lat="43.48783" lon="5.45098">
        <ele>331</ele>
        <time>2017-03-22T12:59:40Z</time>
      </trkpt>
      <trkpt lat="43.48778" lon="5.45107">
        <ele>332</ele>
        <time>2017-03-22T13:00:04Z</time>
      </trkpt>
      <trkpt lat="43.48773" lon="5.45115">
        <ele>333</ele>
        <time>2017-03-22T13:00:11Z</time>
      </trkpt>
      <trkpt lat="43.48768" lon="5.45124">
        <ele>334</ele>
        <time>2017-03-22T13:00:18Z</time>
      </trkpt>
      <trkpt lat="43.48763" lon="5.45134">
        <ele>335</ele>
        <time>2017-03-22T13:00:25Z</time>
      </trkpt>
      <trkpt lat="43.48757" lon="5.45144">
        <ele>336</ele>
        <time>2017-03-22T13:00:34Z</time>
      </trkpt>
      <trkpt lat="43.48752" lon="5.45153">
        <ele>338</ele>
        <time>2017-03-22T13:00:44Z</time>
      </trkpt>
      <trkpt lat="43.48747" lon="5.45163">
        <ele>340</ele>
        <time>2017-03-22T13:00:54Z</time>
      </trkpt>
      <trkpt lat="43.48742" lon="5.45172">
        <ele>339</ele>
        <time>2017-03-22T13:01:02Z</time>
      </trkpt>
      <trkpt lat="43.48738" lon="5.45182">
        <ele>339</ele>
        <time>2017-03-22T13:01:13Z</time>
      </trkpt>
      <trkpt lat="43.48734" lon="5.45192">
        <ele>340</ele>
        <time>2017-03-22T13:01:22Z</time>
      </trkpt>
      <trkpt lat="43.48729" lon="5.45202">
        <ele>340</ele>
        <time>2017-03-22T13:01:32Z</time>
      </trkpt>
      <trkpt lat="43.48725" lon="5.45212">
        <ele>341</ele>
        <time>2017-03-22T13:01:40Z</time>
      </trkpt>
      <trkpt lat="43.48721" lon="5.45223">
        <ele>342</ele>
        <time>2017-03-22T13:01:48Z</time>
      </trkpt>
      <trkpt lat="43.48717" lon="5.45233">
        <ele>342</ele>
        <time>2017-03-22T13:02:09Z</time>
      </trkpt>
      <trkpt lat="43.48714" lon="5.45244">
        <ele>343</ele>
        <time>2017-03-22T13:02:17Z</time>
      </trkpt>
      <trkpt lat="43.48712" lon="5.45255">
        <ele>343</ele>
        <time>2017-03-22T13:02:31Z</time>
      </trkpt>
      <trkpt lat="43.48709" lon="5.45266">
        <ele>343</ele>
        <time>2017-03-22T13:02:38Z</time>
      </trkpt>
      <trkpt lat="43.48707" lon="5.45277">
        <ele>344</ele>
        <time>2017-03-22T13:02:44Z</time>
      </trkpt>
      <trkpt lat="43.48704" lon="5.45288">
        <ele>345</ele>
        <time>2017-03-22T13:02:50Z</time>
      </trkpt>
      <trkpt lat="43.48702" lon="5.45299">
        <ele>344</ele>
        <time>2017-03-22T13:02:56Z</time>
      </trkpt>
      <trkpt lat="43.487" lon="5.4531">
        <ele>345</ele>
        <time>2017-03-22T13:03:03Z</time>
      </trkpt>
      <trkpt lat="43.48697" lon="5.4532">
        <ele>344</ele>
        <time>2017-03-22T13:03:24Z</time>
      </trkpt>
      <trkpt lat="43.48695" lon="5.45331">
        <ele>345</ele>
        <time>2017-03-22T13:03:31Z</time>
      </trkpt>
      <trkpt lat="43.48694" lon="5.45343">
        <ele>346</ele>
        <time>2017-03-22T13:03:42Z</time>
      </trkpt>
      <trkpt lat="43.48691" lon="5.45353">
        <ele>347</ele>
        <time>2017-03-22T13:03:53Z</time>
      </trkpt>
      <trkpt lat="43.48689" lon="5.45364">
        <ele>348</ele>
        <time>2017-03-22T13:04:00Z</time>
      </trkpt>
      <trkpt lat="43.48687" lon="5.45376">
        <ele>348</ele>
        <time>2017-03-22T13:04:07Z</time>
      </trkpt>
      <trkpt lat="43.48686" lon="5.45387">
        <ele>350</ele>
        <time>2017-03-22T13:04:34Z</time>
      </trkpt>
      <trkpt lat="43.48685" lon="5.45399">
        <ele>350</ele>
        <time>2017-03-22T13:04:40Z</time>
      </trkpt>
      <trkpt lat="43.48683" lon="5.45411">
        <ele>350</ele>
        <time>2017-03-22T13:04:53Z</time>
      </trkpt>
      <trkpt lat="43.48681" lon="5.45422">
        <ele>351</ele>
        <time>2017-03-22T13:04:59Z</time>
      </trkpt>
      <trkpt lat="43.4868" lon="5.45434">
        <ele>351</ele>
        <time>2017-03-22T13:05:05Z</time>
      </trkpt>
      <trkpt lat="43.48679" lon="5.45444">
        <ele>351</ele>
        <time>2017-03-22T13:05:11Z</time>
      </trkpt>
      <trkpt lat="43.48679" lon="5.45455">
        <ele>350</ele>
        <time>2017-03-22T13:05:17Z</time>
      </trkpt>
      <trkpt lat="43.48678" lon="5.45467">
        <ele>350</ele>
        <time>2017-03-22T13:05:23Z</time>
      </trkpt>
      <trkpt lat="43.48676" lon="5.45478">
        <ele>351</ele>
        <time>2017-03-22T13:05:29Z</time>
      </trkpt>
      <trkpt lat="43.48674" lon="5.45489">
        <ele>351</ele>
        <time>2017-03-22T13:05:35Z</time>
      </trkpt>
      <trkpt lat="43.48673" lon="5.455">
        <ele>351</ele>
        <time>2017-03-22T13:05:41Z</time>
      </trkpt>
      <trkpt lat="43.48671" lon="5.45511">
        <ele>351</ele>
        <time>2017-03-22T13:05:48Z</time>
      </trkpt>
      <trkpt lat="43.48671" lon="5.45523">
        <ele>352</ele>
        <time>2017-03-22T13:05:56Z</time>
      </trkpt>
      <trkpt lat="43.48674" lon="5.45534">
        <ele>352</ele>
        <time>2017-03-22T13:06:03Z</time>
      </trkpt>
      <trkpt lat="43.48679" lon="5.45544">
        <ele>353</ele>
        <time>2017-03-22T13:06:33Z</time>
      </trkpt>
      <trkpt lat="43.48685" lon="5.45553">
        <ele>354</ele>
        <time>2017-03-22T13:06:41Z</time>
      </trkpt>
      <trkpt lat="43.48689" lon="5.45563">
        <ele>354</ele>
        <time>2017-03-22T13:06:49Z</time>
      </trkpt>
      <trkpt lat="43.48695" lon="5.4557">
        <ele>357</ele>
        <time>2017-03-22T13:06:55Z</time>
      </trkpt>
      <trkpt lat="43.48701" lon="5.45578">
        <ele>355</ele>
        <time>2017-03-22T13:07:03Z</time>
      </trkpt>
      <trkpt lat="43.48708" lon="5.45586">
        <ele>355</ele>
        <time>2017-03-22T13:07:12Z</time>
      </trkpt>
      <trkpt lat="43.48715" lon="5.45592">
        <ele>354</ele>
        <time>2017-03-22T13:07:22Z</time>
      </trkpt>
      <trkpt lat="43.48723" lon="5.45596">
        <ele>355</ele>
        <time>2017-03-22T13:07:30Z</time>
      </trkpt>
      <trkpt lat="43.48731" lon="5.45598">
        <ele>356</ele>
        <time>2017-03-22T13:07:39Z</time>
      </trkpt>
      <trkpt lat="43.48739" lon="5.45596">
        <ele>355</ele>
        <time>2017-03-22T13:07:49Z</time>
      </trkpt>
      <trkpt lat="43.48748" lon="5.45592">
        <ele>358</ele>
        <time>2017-03-22T13:07:57Z</time>
      </trkpt>
      <trkpt lat="43.48754" lon="5.45584">
        <ele>355</ele>
        <time>2017-03-22T13:08:07Z</time>
      </trkpt>
      <trkpt lat="43.4876" lon="5.45576">
        <ele>354</ele>
        <time>2017-03-22T13:08:16Z</time>
      </trkpt>
      <trkpt lat="43.48768" lon="5.45569">
        <ele>355</ele>
        <time>2017-03-22T13:08:25Z</time>
      </trkpt>
      <trkpt lat="43.48775" lon="5.45561">
        <ele>354</ele>
        <time>2017-03-22T13:08:34Z</time>
      </trkpt>
      <trkpt lat="43.4878" lon="5.45552">
        <ele>353</ele>
        <time>2017-03-22T13:08:42Z</time>
      </trkpt>
      <trkpt lat="43.48787" lon="5.45545">
        <ele>353</ele>
        <time>2017-03-22T13:08:49Z</time>
      </trkpt>
      <trkpt lat="43.48793" lon="5.45537">
        <ele>354</ele>
        <time>2017-03-22T13:08:58Z</time>
      </trkpt>
      <trkpt lat="43.48799" lon="5.45529">
        <ele>354</ele>
        <time>2017-03-22T13:09:07Z</time>
      </trkpt>
      <trkpt lat="43.48804" lon="5.45519">
        <ele>356</ele>
        <time>2017-03-22T13:09:16Z</time>
      </trkpt>
      <trkpt lat="43.48811" lon="5.45511">
        <ele>356</ele>
        <time>2017-03-22T13:09:25Z</time>
      </trkpt>
      <trkpt lat="43.48817" lon="5.45502">
        <ele>355</ele>
        <time>2017-03-22T13:09:34Z</time>
      </trkpt>
      <trkpt lat="43.48825" lon="5.45496">
        <ele>354</ele>
        <time>2017-03-22T13:09:42Z</time>
      </trkpt>
      <trkpt lat="43.48832" lon="5.45491">
        <ele>354</ele>
        <time>2017-03-22T13:09:49Z</time>
      </trkpt>
      <trkpt lat="43.48839" lon="5.45486">
        <ele>355</ele>
        <time>2017-03-22T13:09:57Z</time>
      </trkpt>
      <trkpt lat="43.48847" lon="5.45483">
        <ele>354</ele>
        <time>2017-03-22T13:10:05Z</time>
      </trkpt>
      <trkpt lat="43.48855" lon="5.45479">
        <ele>355</ele>
        <time>2017-03-22T13:10:12Z</time>
      </trkpt>
      <trkpt lat="43.48863" lon="5.45475">
        <ele>354</ele>
        <time>2017-03-22T13:10:21Z</time>
      </trkpt>
      <trkpt lat="43.48871" lon="5.45471">
        <ele>354</ele>
        <time>2017-03-22T13:10:29Z</time>
      </trkpt>
      <trkpt lat="43.48879" lon="5.45467">
        <ele>353</ele>
        <time>2017-03-22T13:10:39Z</time>
      </trkpt>
      <trkpt lat="43.48887" lon="5.45462">
        <ele>352</ele>
        <time>2017-03-22T13:10:47Z</time>
      </trkpt>
      <trkpt lat="43.48894" lon="5.45456">
        <ele>353</ele>
        <time>2017-03-22T13:10:54Z</time>
      </trkpt>
      <trkpt lat="43.489" lon="5.45448">
        <ele>351</ele>
        <time>2017-03-22T13:11:03Z</time>
      </trkpt>
      <trkpt lat="43.48907" lon="5.4544">
        <ele>349</ele>
        <time>2017-03-22T13:11:11Z</time>
      </trkpt>
      <trkpt lat="43.48913" lon="5.45433">
        <ele>350</ele>
        <time>2017-03-22T13:11:17Z</time>
      </trkpt>
      <trkpt lat="43.4892" lon="5.45427">
        <ele>350</ele>
        <time>2017-03-22T13:11:25Z</time>
      </trkpt>
      <trkpt lat="43.48926" lon="5.45421">
        <ele>350</ele>
        <time>2017-03-22T13:11:31Z</time>
      </trkpt>
      <trkpt lat="43.48933" lon="5.45415">
        <ele>351</ele>
        <time>2017-03-22T13:11:37Z</time>
      </trkpt>
      <trkpt lat="43.48939" lon="5.45408">
        <ele>351</ele>
        <time>2017-03-22T13:11:43Z</time>
      </trkpt>
      <trkpt lat="43.48944" lon="5.45398">
        <ele>350</ele>
        <time>2017-03-22T13:11:50Z</time>
      </trkpt>
      <trkpt lat="43.4895" lon="5.45391">
        <ele>351</ele>
        <time>2017-03-22T13:11:55Z</time>
      </trkpt>
      <trkpt lat="43.48955" lon="5.45383">
        <ele>350</ele>
        <time>2017-03-22T13:12:01Z</time>
      </trkpt>
      <trkpt lat="43.48961" lon="5.45376">
        <ele>351</ele>
        <time>2017-03-22T13:12:08Z</time>
      </trkpt>
      <trkpt lat="43.48967" lon="5.45367">
        <ele>350</ele>
        <time>2017-03-22T13:12:17Z</time>
      </trkpt>
      <trkpt lat="43.48973" lon="5.4536">
        <ele>348</ele>
        <time>2017-03-22T13:12:24Z</time>
      </trkpt>
      <trkpt lat="43.48978" lon="5.45351">
        <ele>349</ele>
        <time>2017-03-22T13:12:32Z</time>
      </trkpt>
      <trkpt lat="43.48985" lon="5.45343">
        <ele>350</ele>
        <time>2017-03-22T13:12:39Z</time>
      </trkpt>
      <trkpt lat="43.48992" lon="5.45337">
        <ele>350</ele>
        <time>2017-03-22T13:12:48Z</time>
      </trkpt>
      <trkpt lat="43.48999" lon="5.4533">
        <ele>350</ele>
        <time>2017-03-22T13:12:56Z</time>
      </trkpt>
      <trkpt lat="43.49006" lon="5.45323">
        <ele>349</ele>
        <time>2017-03-22T13:13:04Z</time>
      </trkpt>
      <trkpt lat="43.49013" lon="5.45317">
        <ele>350</ele>
        <time>2017-03-22T13:13:12Z</time>
      </trkpt>
      <trkpt lat="43.4902" lon="5.4531">
        <ele>349</ele>
        <time>2017-03-22T13:13:20Z</time>
      </trkpt>
      <trkpt lat="43.49027" lon="5.45303">
        <ele>349</ele>
        <time>2017-03-22T13:13:29Z</time>
      </trkpt>
      <trkpt lat="43.49032" lon="5.45295">
        <ele>348</ele>
        <time>2017-03-22T13:13:36Z</time>
      </trkpt>
      <trkpt lat="43.4904" lon="5.45289">
        <ele>349</ele>
        <time>2017-03-22T13:13:43Z</time>
      </trkpt>
      <trkpt lat="43.49047" lon="5.45282">
        <ele>350</ele>
        <time>2017-03-22T13:13:51Z</time>
      </trkpt>
      <trkpt lat="43.49053" lon="5.45275">
        <ele>349</ele>
        <time>2017-03-22T13:13:59Z</time>
      </trkpt>
      <trkpt lat="43.49061" lon="5.45268">
        <ele>349</ele>
        <time>2017-03-22T13:14:07Z</time>
      </trkpt>
      <trkpt lat="43.49068" lon="5.45262">
        <ele>350</ele>
        <time>2017-03-22T13:14:14Z</time>
      </trkpt>
      <trkpt lat="43.49074" lon="5.45254">
        <ele>350</ele>
        <time>2017-03-22T13:14:22Z</time>
      </trkpt>
      <trkpt lat="43.49081" lon="5.45247">
        <ele>350</ele>
        <time>2017-03-22T13:14:29Z</time>
      </trkpt>
      <trkpt lat="43.49088" lon="5.4524">
        <ele>349</ele>
        <time>2017-03-22T13:14:38Z</time>
      </trkpt>
      <trkpt lat="43.49096" lon="5.45233">
        <ele>349</ele>
        <time>2017-03-22T13:14:46Z</time>
      </trkpt>
      <trkpt lat="43.49104" lon="5.45228">
        <ele>349</ele>
        <time>2017-03-22T13:14:54Z</time>
      </trkpt>
      <trkpt lat="43.4911" lon="5.45221">
        <ele>348</ele>
        <time>2017-03-22T13:15:01Z</time>
      </trkpt>
      <trkpt lat="43.49118" lon="5.45218">
        <ele>349</ele>
        <time>2017-03-22T13:15:08Z</time>
      </trkpt>
      <trkpt lat="43.49126" lon="5.45214">
        <ele>348</ele>
        <time>2017-03-22T13:15:15Z</time>
      </trkpt>
      <trkpt lat="43.49135" lon="5.4521">
        <ele>349</ele>
        <time>2017-03-22T13:15:23Z</time>
      </trkpt>
      <trkpt lat="43.49143" lon="5.45205">
        <ele>348</ele>
        <time>2017-03-22T13:15:32Z</time>
      </trkpt>
      <trkpt lat="43.4915" lon="5.45198">
        <ele>347</ele>
        <time>2017-03-22T13:15:42Z</time>
      </trkpt>
      <trkpt lat="43.49157" lon="5.45193">
        <ele>347</ele>
        <time>2017-03-22T13:15:49Z</time>
      </trkpt>
      <trkpt lat="43.49164" lon="5.45187">
        <ele>347</ele>
        <time>2017-03-22T13:15:57Z</time>
      </trkpt>
      <trkpt lat="43.49172" lon="5.45182">
        <ele>347</ele>
        <time>2017-03-22T13:16:05Z</time>
      </trkpt>
      <trkpt lat="43.4918" lon="5.45178">
        <ele>346</ele>
        <time>2017-03-22T13:16:14Z</time>
      </trkpt>
      <trkpt lat="43.49188" lon="5.45174">
        <ele>347</ele>
        <time>2017-03-22T13:16:22Z</time>
      </trkpt>
      <trkpt lat="43.49195" lon="5.45169">
        <ele>346</ele>
        <time>2017-03-22T13:16:30Z</time>
      </trkpt>
      <trkpt lat="43.49203" lon="5.45164">
        <ele>347</ele>
        <time>2017-03-22T13:16:37Z</time>
      </trkpt>
      <trkpt lat="43.49211" lon="5.4516">
        <ele>345</ele>
        <time>2017-03-22T13:16:46Z</time>
      </trkpt>
      <trkpt lat="43.49219" lon="5.45157">
        <ele>345</ele>
        <time>2017-03-22T13:16:54Z</time>
      </trkpt>
      <trkpt lat="43.49227" lon="5.45153">
        <ele>345</ele>
        <time>2017-03-22T13:17:02Z</time>
      </trkpt>
      <trkpt lat="43.49235" lon="5.45149">
        <ele>345</ele>
        <time>2017-03-22T13:17:10Z</time>
      </trkpt>
      <trkpt lat="43.49243" lon="5.45147">
        <ele>346</ele>
        <time>2017-03-22T13:17:18Z</time>
      </trkpt>
      <trkpt lat="43.49251" lon="5.45143">
        <ele>346</ele>
        <time>2017-03-22T13:17:25Z</time>
      </trkpt>
      <trkpt lat="43.49259" lon="5.45139">
        <ele>345</ele>
        <time>2017-03-22T13:17:33Z</time>
      </trkpt>
      <trkpt lat="43.49267" lon="5.45136">
        <ele>344</ele>
        <time>2017-03-22T13:17:41Z</time>
      </trkpt>
      <trkpt lat="43.49274" lon="5.45137">
        <ele>346</ele>
        <time>2017-03-22T13:17:47Z</time>
      </trkpt>
      <trkpt lat="43.49282" lon="5.45131">
        <ele>345</ele>
        <time>2017-03-22T13:17:56Z</time>
      </trkpt>
      <trkpt lat="43.49288" lon="5.45125">
        <ele>347</ele>
        <time>2017-03-22T13:18:04Z</time>
      </trkpt>
      <trkpt lat="43.49295" lon="5.45117">
        <ele>344</ele>
        <time>2017-03-22T13:18:12Z</time>
      </trkpt>
      <trkpt lat="43.49302" lon="5.45111">
        <ele>343</ele>
        <time>2017-03-22T13:18:20Z</time>
      </trkpt>
      <trkpt lat="43.4931" lon="5.45106">
        <ele>342</ele>
        <time>2017-03-22T13:18:28Z</time>
      </trkpt>
      <trkpt lat="43.49317" lon="5.45098">
        <ele>340</ele>
        <time>2017-03-22T13:18:39Z</time>
      </trkpt>
      <trkpt lat="43.49325" lon="5.45094">
        <ele>339</ele>
        <time>2017-03-22T13:18:47Z</time>
      </trkpt>
      <trkpt lat="43.49333" lon="5.4509">
        <ele>338</ele>
        <time>2017-03-22T13:18:54Z</time>
      </trkpt>
      <trkpt lat="43.4934" lon="5.45085">
        <ele>338</ele>
        <time>2017-03-22T13:19:02Z</time>
      </trkpt>
      <trkpt lat="43.49347" lon="5.45077">
        <ele>338</ele>
        <time>2017-03-22T13:19:10Z</time>
      </trkpt>
      <trkpt lat="43.49354" lon="5.45069">
        <ele>336</ele>
        <time>2017-03-22T13:19:19Z</time>
      </trkpt>
      <trkpt lat="43.49361" lon="5.45065">
        <ele>336</ele>
        <time>2017-03-22T13:21:36Z</time>
      </trkpt>
      <trkpt lat="43.49369" lon="5.45062">
        <ele>336</ele>
        <time>2017-03-22T13:21:47Z</time>
      </trkpt>
      <trkpt lat="43.49377" lon="5.45061">
        <ele>337</ele>
        <time>2017-03-22T13:21:57Z</time>
      </trkpt>
      <trkpt lat="43.49386" lon="5.45057">
        <ele>335</ele>
        <time>2017-03-22T13:22:06Z</time>
      </trkpt>
      <trkpt lat="43.49394" lon="5.45056">
        <ele>334</ele>
        <time>2017-03-22T13:22:15Z</time>
      </trkpt>
      <trkpt lat="43.49402" lon="5.45056">
        <ele>333</ele>
        <time>2017-03-22T13:22:23Z</time>
      </trkpt>
      <trkpt lat="43.4941" lon="5.45057">
        <ele>332</ele>
        <time>2017-03-22T13:22:33Z</time>
      </trkpt>
      <trkpt lat="43.49419" lon="5.45055">
        <ele>330</ele>
        <time>2017-03-22T13:22:42Z</time>
      </trkpt>
      <trkpt lat="43.49427" lon="5.45059">
        <ele>329</ele>
        <time>2017-03-22T13:22:51Z</time>
      </trkpt>
      <trkpt lat="43.49436" lon="5.45058">
        <ele>327</ele>
        <time>2017-03-22T13:23:00Z</time>
      </trkpt>
      <trkpt lat="43.49444" lon="5.45058">
        <ele>327</ele>
        <time>2017-03-22T13:23:09Z</time>
      </trkpt>
      <trkpt lat="43.49452" lon="5.45054">
        <ele>325</ele>
        <time>2017-03-22T13:23:20Z</time>
      </trkpt>
      <trkpt lat="43.4946" lon="5.45052">
        <ele>326</ele>
        <time>2017-03-22T13:23:29Z</time>
      </trkpt>
      <trkpt lat="43.49469" lon="5.4505">
        <ele>326</ele>
        <time>2017-03-22T13:23:37Z</time>
      </trkpt>
      <trkpt lat="43.49477" lon="5.45049">
        <ele>326</ele>
        <time>2017-03-22T13:23:45Z</time>
      </trkpt>
      <trkpt lat="43.49486" lon="5.45048">
        <ele>324</ele>
        <time>2017-03-22T13:23:56Z</time>
      </trkpt>
      <trkpt lat="43.49494" lon="5.45046">
        <ele>322</ele>
        <time>2017-03-22T13:24:05Z</time>
      </trkpt>
      <trkpt lat="43.49503" lon="5.45044">
        <ele>321</ele>
        <time>2017-03-22T13:24:15Z</time>
      </trkpt>
      <trkpt lat="43.49512" lon="5.45043">
        <ele>321</ele>
        <time>2017-03-22T13:24:24Z</time>
      </trkpt>
      <trkpt lat="43.4952" lon="5.45044">
        <ele>321</ele>
        <time>2017-03-22T13:24:32Z</time>
      </trkpt>
      <trkpt lat="43.49529" lon="5.45043">
        <ele>320</ele>
        <time>2017-03-22T13:24:42Z</time>
      </trkpt>
      <trkpt lat="43.49538" lon="5.45043">
        <ele>319</ele>
        <time>2017-03-22T13:24:51Z</time>
      </trkpt>
      <trkpt lat="43.49546" lon="5.45044">
        <ele>316</ele>
        <time>2017-03-22T13:25:00Z</time>
      </trkpt>
      <trkpt lat="43.49554" lon="5.45045">
        <ele>315</ele>
        <time>2017-03-22T13:25:08Z</time>
      </trkpt>
      <trkpt lat="43.49563" lon="5.45044">
        <ele>313</ele>
        <time>2017-03-22T13:25:18Z</time>
      </trkpt>
      <trkpt lat="43.49572" lon="5.45044">
        <ele>314</ele>
        <time>2017-03-22T13:25:27Z</time>
      </trkpt>
      <trkpt lat="43.4958" lon="5.45044">
        <ele>314</ele>
        <time>2017-03-22T13:25:35Z</time>
      </trkpt>
      <trkpt lat="43.49588" lon="5.45041">
        <ele>312</ele>
        <time>2017-03-22T13:25:43Z</time>
      </trkpt>
      <trkpt lat="43.49596" lon="5.45038">
        <ele>311</ele>
        <time>2017-03-22T13:25:51Z</time>
      </trkpt>
      <trkpt lat="43.49605" lon="5.45036">
        <ele>308</ele>
        <time>2017-03-22T13:26:03Z</time>
      </trkpt>
      <trkpt lat="43.49613" lon="5.45032">
        <ele>306</ele>
        <time>2017-03-22T13:26:12Z</time>
      </trkpt>
      <trkpt lat="43.49621" lon="5.45031">
        <ele>308</ele>
        <time>2017-03-22T13:26:20Z</time>
      </trkpt>
      <trkpt lat="43.49629" lon="5.45026">
        <ele>307</ele>
        <time>2017-03-22T13:26:27Z</time>
      </trkpt>
      <trkpt lat="43.49637" lon="5.45022">
        <ele>308</ele>
        <time>2017-03-22T13:26:35Z</time>
      </trkpt>
      <trkpt lat="43.49645" lon="5.45017">
        <ele>305</ele>
        <time>2017-03-22T13:26:45Z</time>
      </trkpt>
      <trkpt lat="43.49653" lon="5.45012">
        <ele>304</ele>
        <time>2017-03-22T13:26:54Z</time>
      </trkpt>
      <trkpt lat="43.4966" lon="5.45007">
        <ele>302</ele>
        <time>2017-03-22T13:27:02Z</time>
      </trkpt>
      <trkpt lat="43.49667" lon="5.45">
        <ele>301</ele>
        <time>2017-03-22T13:27:10Z</time>
      </trkpt>
      <trkpt lat="43.49674" lon="5.44994">
        <ele>299</ele>
        <time>2017-03-22T13:27:19Z</time>
      </trkpt>
      <trkpt lat="43.49683" lon="5.44989">
        <ele>298</ele>
        <time>2017-03-22T13:27:28Z</time>
      </trkpt>
      <trkpt lat="43.4969" lon="5.44985">
        <ele>297</ele>
        <time>2017-03-22T13:27:35Z</time>
      </trkpt>
      <trkpt lat="43.49696" lon="5.4498">
        <ele>294</ele>
        <time>2017-03-22T13:27:42Z</time>
      </trkpt>
      <trkpt lat="43.49704" lon="5.44979">
        <ele>296</ele>
        <time>2017-03-22T13:27:49Z</time>
      </trkpt>
      <trkpt lat="43.49712" lon="5.44973">
        <ele>296</ele>
        <time>2017-03-22T13:27:58Z</time>
      </trkpt>
      <trkpt lat="43.49717" lon="5.44965">
        <ele>293</ele>
        <time>2017-03-22T13:28:07Z</time>
      </trkpt>
      <trkpt lat="43.49724" lon="5.44959">
        <ele>293</ele>
        <time>2017-03-22T13:28:17Z</time>
      </trkpt>
      <trkpt lat="43.49731" lon="5.44954">
        <ele>293</ele>
        <time>2017-03-22T13:28:24Z</time>
      </trkpt>
      <trkpt lat="43.49739" lon="5.4495">
        <ele>294</ele>
        <time>2017-03-22T13:28:32Z</time>
      </trkpt>
      <trkpt lat="43.49744" lon="5.44941">
        <ele>290</ele>
        <time>2017-03-22T13:28:40Z</time>
      </trkpt>
      <trkpt lat="43.4975" lon="5.44932">
        <ele>290</ele>
        <time>2017-03-22T13:28:48Z</time>
      </trkpt>
      <trkpt lat="43.49758" lon="5.44929">
        <ele>289</ele>
        <time>2017-03-22T13:28:56Z</time>
      </trkpt>
      <trkpt lat="43.49766" lon="5.44926">
        <ele>288</ele>
        <time>2017-03-22T13:29:04Z</time>
      </trkpt>
      <trkpt lat="43.49773" lon="5.44921">
        <ele>288</ele>
        <time>2017-03-22T13:29:12Z</time>
      </trkpt>
      <trkpt lat="43.4978" lon="5.44919">
        <ele>289</ele>
        <time>2017-03-22T13:29:19Z</time>
      </trkpt>
      <trkpt lat="43.49789" lon="5.44917">
        <ele>289</ele>
        <time>2017-03-22T13:29:27Z</time>
      </trkpt>
      <trkpt lat="43.49797" lon="5.44913">
        <ele>287</ele>
        <time>2017-03-22T13:29:35Z</time>
      </trkpt>
      <trkpt lat="43.49804" lon="5.44906">
        <ele>285</ele>
        <time>2017-03-22T13:29:45Z</time>
      </trkpt>
      <trkpt lat="43.49811" lon="5.44902">
        <ele>287</ele>
        <time>2017-03-22T13:29:55Z</time>
      </trkpt>
      <trkpt lat="43.49817" lon="5.44893">
        <ele>286</ele>
        <time>2017-03-22T13:30:02Z</time>
      </trkpt>
      <trkpt lat="43.49823" lon="5.44884">
        <ele>283</ele>
        <time>2017-03-22T13:30:09Z</time>
      </trkpt>
      <trkpt lat="43.49828" lon="5.44874">
        <ele>283</ele>
        <time>2017-03-22T13:30:18Z</time>
      </trkpt>
      <trkpt lat="43.49833" lon="5.44865">
        <ele>285</ele>
        <time>2017-03-22T13:30:26Z</time>
      </trkpt>
      <trkpt lat="43.49838" lon="5.44855">
        <ele>282</ele>
        <time>2017-03-22T13:30:34Z</time>
      </trkpt>
      <trkpt lat="43.49842" lon="5.44847">
        <ele>282</ele>
        <time>2017-03-22T13:30:43Z</time>
      </trkpt>
      <trkpt lat="43.49847" lon="5.44837">
        <ele>278</ele>
        <time>2017-03-22T13:30:52Z</time>
      </trkpt>
      <trkpt lat="43.49852" lon="5.44827">
        <ele>277</ele>
        <time>2017-03-22T13:31:02Z</time>
      </trkpt>
      <trkpt lat="43.49858" lon="5.44822">
        <ele>277</ele>
        <time>2017-03-22T13:31:09Z</time>
      </trkpt>
      <trkpt lat="43.49865" lon="5.44816">
        <ele>275</ele>
        <time>2017-03-22T13:31:16Z</time>
      </trkpt>
      <trkpt lat="43.49871" lon="5.44807">
        <ele>274</ele>
        <time>2017-03-22T13:31:25Z</time>
      </trkpt>
      <trkpt lat="43.49878" lon="5.448">
        <ele>273</ele>
        <time>2017-03-22T13:31:33Z</time>
      </trkpt>
      <trkpt lat="43.49884" lon="5.44792">
        <ele>271</ele>
        <time>2017-03-22T13:31:41Z</time>
      </trkpt>
      <trkpt lat="43.49891" lon="5.44785">
        <ele>271</ele>
        <time>2017-03-22T13:31:49Z</time>
      </trkpt>
      <trkpt lat="43.49898" lon="5.4478">
        <ele>272</ele>
        <time>2017-03-22T13:31:57Z</time>
      </trkpt>
      <trkpt lat="43.49905" lon="5.44771">
        <ele>271</ele>
        <time>2017-03-22T13:32:05Z</time>
      </trkpt>
      <trkpt lat="43.49908" lon="5.4476">
        <ele>269</ele>
        <time>2017-03-22T13:32:13Z</time>
      </trkpt>
      <trkpt lat="43.4991" lon="5.4475">
        <ele>266</ele>
        <time>2017-03-22T13:32:20Z</time>
      </trkpt>
      <trkpt lat="43.49914" lon="5.4474">
        <ele>266</ele>
        <time>2017-03-22T13:32:26Z</time>
      </trkpt>
      <trkpt lat="43.49917" lon="5.4473">
        <ele>265</ele>
        <time>2017-03-22T13:32:32Z</time>
      </trkpt>
      <trkpt lat="43.49922" lon="5.4472">
        <ele>263</ele>
        <time>2017-03-22T13:32:41Z</time>
      </trkpt>
      <trkpt lat="43.49923" lon="5.44709">
        <ele>261</ele>
        <time>2017-03-22T13:32:51Z</time>
      </trkpt>
      <trkpt lat="43.49926" lon="5.44698">
        <ele>260</ele>
        <time>2017-03-22T13:33:00Z</time>
      </trkpt>
      <trkpt lat="43.49929" lon="5.44689">
        <ele>259</ele>
        <time>2017-03-22T13:33:06Z</time>
      </trkpt>
      <trkpt lat="43.49932" lon="5.44678">
        <ele>259</ele>
        <time>2017-03-22T13:33:13Z</time>
      </trkpt>
      <trkpt lat="43.49937" lon="5.44669">
        <ele>255</ele>
        <time>2017-03-22T13:33:22Z</time>
      </trkpt>
      <trkpt lat="43.49939" lon="5.44658">
        <ele>254</ele>
        <time>2017-03-22T13:33:29Z</time>
      </trkpt>
      <trkpt lat="43.49944" lon="5.44647">
        <ele>253</ele>
        <time>2017-03-22T13:33:38Z</time>
      </trkpt>
      <trkpt lat="43.49947" lon="5.44636">
        <ele>251</ele>
        <time>2017-03-22T13:33:47Z</time>
      </trkpt>
      <trkpt lat="43.4995" lon="5.44627">
        <ele>250</ele>
        <time>2017-03-22T13:33:53Z</time>
      </trkpt>
      <trkpt lat="43.49954" lon="5.44617">
        <ele>249</ele>
        <time>2017-03-22T13:34:00Z</time>
      </trkpt>
      <trkpt lat="43.49959" lon="5.44609">
        <ele>249</ele>
        <time>2017-03-22T13:34:07Z</time>
      </trkpt>
      <trkpt lat="43.49963" lon="5.44599">
        <ele>246</ele>
        <time>2017-03-22T13:34:17Z</time>
      </trkpt>
      <trkpt lat="43.49968" lon="5.4459">
        <ele>247</ele>
        <time>2017-03-22T13:34:23Z</time>
      </trkpt>
      <trkpt lat="43.49972" lon="5.4458">
        <ele>245</ele>
        <time>2017-03-22T13:34:30Z</time>
      </trkpt>
      <trkpt lat="43.49977" lon="5.44572">
        <ele>246</ele>
        <time>2017-03-22T13:34:59Z</time>
      </trkpt>
      <trkpt lat="43.49984" lon="5.44563">
        <ele>247</ele>
        <time>2017-03-22T13:35:17Z</time>
      </trkpt>
      <trkpt lat="43.4999" lon="5.44556">
        <ele>250</ele>
        <time>2017-03-22T13:36:23Z</time>
      </trkpt>
      <trkpt lat="43.49995" lon="5.44547">
        <ele>245</ele>
        <time>2017-03-22T13:37:04Z</time>
      </trkpt>
      <trkpt lat="43.50004" lon="5.44542">
        <ele>246</ele>
        <time>2017-03-22T13:37:15Z</time>
      </trkpt>
      <trkpt lat="43.50011" lon="5.44539">
        <ele>246</ele>
        <time>2017-03-22T13:37:23Z</time>
      </trkpt>
      <trkpt lat="43.50019" lon="5.44534">
        <ele>246</ele>
        <time>2017-03-22T13:37:30Z</time>
      </trkpt>
      <trkpt lat="43.50027" lon="5.44529">
        <ele>245</ele>
        <time>2017-03-22T13:37:39Z</time>
      </trkpt>
      <trkpt lat="43.50035" lon="5.44523">
        <ele>244</ele>
        <time>2017-03-22T13:37:46Z</time>
      </trkpt>
      <trkpt lat="43.50041" lon="5.44515">
        <ele>242</ele>
        <time>2017-03-22T13:37:55Z</time>
      </trkpt>
      <trkpt lat="43.50041" lon="5.44503">
        <ele>246</ele>
        <time>2017-03-22T13:38:32Z</time>
      </trkpt>
      <trkpt lat="43.50049" lon="5.44504">
        <ele>251</ele>
        <time>2017-03-22T13:39:10Z</time>
      </trkpt>
      <trkpt lat="43.50055" lon="5.44497">
        <ele>249</ele>
        <time>2017-03-22T13:39:16Z</time>
      </trkpt>
      <trkpt lat="43.50062" lon="5.44491">
        <ele>241</ele>
        <time>2017-03-22T13:40:09Z</time>
      </trkpt>
      <trkpt lat="43.50061" lon="5.44478">
        <ele>238</ele>
        <time>2017-03-22T13:40:21Z</time>
      </trkpt>
      <trkpt lat="43.50063" lon="5.44467">
        <ele>240</ele>
        <time>2017-03-22T13:40:29Z</time>
      </trkpt>
      <trkpt lat="43.50062" lon="5.44455">
        <ele>243</ele>
        <time>2017-03-22T13:40:37Z</time>
      </trkpt>
      <trkpt lat="43.50061" lon="5.44444">
        <ele>243</ele>
        <time>2017-03-22T13:40:47Z</time>
      </trkpt>
      <trkpt lat="43.50061" lon="5.44432">
        <ele>243</ele>
        <time>2017-03-22T13:40:57Z</time>
      </trkpt>
      <trkpt lat="43.5006" lon="5.44421">
        <ele>241</ele>
        <time>2017-03-22T13:41:07Z</time>
      </trkpt>
      <trkpt lat="43.50057" lon="5.44412">
        <ele>242</ele>
        <time>2017-03-22T13:41:21Z</time>
      </trkpt>
      <trkpt lat="43.5005" lon="5.44404">
        <ele>242</ele>
        <time>2017-03-22T13:41:26Z</time>
      </trkpt>
      <trkpt lat="43.50045" lon="5.44397">
        <ele>239</ele>
        <time>2017-03-22T13:41:31Z</time>
      </trkpt>
      <trkpt lat="43.50041" lon="5.44387">
        <ele>242</ele>
        <time>2017-03-22T13:41:36Z</time>
      </trkpt>
      <trkpt lat="43.50036" lon="5.44377">
        <ele>245</ele>
        <time>2017-03-22T13:41:40Z</time>
      </trkpt>
      <trkpt lat="43.50037" lon="5.44365">
        <ele>244</ele>
        <time>2017-03-22T13:41:49Z</time>
      </trkpt>
      <trkpt lat="43.50034" lon="5.44355">
        <ele>245</ele>
        <time>2017-03-22T13:41:58Z</time>
      </trkpt>
      <trkpt lat="43.50032" lon="5.44343">
        <ele>246</ele>
        <time>2017-03-22T13:42:06Z</time>
      </trkpt>
      <trkpt lat="43.50033" lon="5.44332">
        <ele>247</ele>
        <time>2017-03-22T13:42:14Z</time>
      </trkpt>
      <trkpt lat="43.50028" lon="5.44323">
        <ele>245</ele>
        <time>2017-03-22T13:42:22Z</time>
      </trkpt>
      <trkpt lat="43.50027" lon="5.4431">
        <ele>247</ele>
        <time>2017-03-22T13:42:31Z</time>
      </trkpt>
      <trkpt lat="43.50035" lon="5.44308">
        <ele>246</ele>
        <time>2017-03-22T13:42:48Z</time>
      </trkpt>
      <trkpt lat="43.50044" lon="5.44312">
        <ele>244</ele>
        <time>2017-03-22T13:42:57Z</time>
      </trkpt>
      <trkpt lat="43.50051" lon="5.44315">
        <ele>243</ele>
        <time>2017-03-22T13:43:05Z</time>
      </trkpt>
      <trkpt lat="43.5006" lon="5.44319">
        <ele>239</ele>
        <time>2017-03-22T13:43:15Z</time>
      </trkpt>
      <trkpt lat="43.50068" lon="5.44322">
        <ele>240</ele>
        <time>2017-03-22T13:43:23Z</time>
      </trkpt>
      <trkpt lat="43.50075" lon="5.44326">
        <ele>238</ele>
        <time>2017-03-22T13:43:30Z</time>
      </trkpt>
      <trkpt lat="43.50084" lon="5.44329">
        <ele>236</ele>
        <time>2017-03-22T13:43:38Z</time>
      </trkpt>
      <trkpt lat="43.50092" lon="5.44332">
        <ele>236</ele>
        <time>2017-03-22T13:43:45Z</time>
      </trkpt>
      <trkpt lat="43.50099" lon="5.44337">
        <ele>236</ele>
        <time>2017-03-22T13:43:52Z</time>
      </trkpt>
      <trkpt lat="43.50107" lon="5.4434">
        <ele>233</ele>
        <time>2017-03-22T13:44:01Z</time>
      </trkpt>
      <trkpt lat="43.50115" lon="5.44345">
        <ele>236</ele>
        <time>2017-03-22T13:44:09Z</time>
      </trkpt>
      <trkpt lat="43.50123" lon="5.44347">
        <ele>234</ele>
        <time>2017-03-22T13:44:16Z</time>
      </trkpt>
      <trkpt lat="43.5013" lon="5.44355">
        <ele>236</ele>
        <time>2017-03-22T13:44:25Z</time>
      </trkpt>
      <trkpt lat="43.50137" lon="5.4436">
        <ele>237</ele>
        <time>2017-03-22T13:44:33Z</time>
      </trkpt>
      <trkpt lat="43.50145" lon="5.44364">
        <ele>232</ele>
        <time>2017-03-22T13:44:40Z</time>
      </trkpt>
      <trkpt lat="43.50152" lon="5.44369">
        <ele>231</ele>
        <time>2017-03-22T13:44:50Z</time>
      </trkpt>
      <trkpt lat="43.50159" lon="5.44374">
        <ele>230</ele>
        <time>2017-03-22T13:44:57Z</time>
      </trkpt>
      <trkpt lat="43.50166" lon="5.4438">
        <ele>230</ele>
        <time>2017-03-22T13:45:04Z</time>
      </trkpt>
      <trkpt lat="43.50174" lon="5.44384">
        <ele>230</ele>
        <time>2017-03-22T13:45:12Z</time>
      </trkpt>
      <trkpt lat="43.50182" lon="5.44389">
        <ele>227</ele>
        <time>2017-03-22T13:45:20Z</time>
      </trkpt>
      <trkpt lat="43.5019" lon="5.44393">
        <ele>223</ele>
        <time>2017-03-22T13:45:30Z</time>
      </trkpt>
      <trkpt lat="43.50198" lon="5.44399">
        <ele>220</ele>
        <time>2017-03-22T13:45:38Z</time>
      </trkpt>
      <trkpt lat="43.50206" lon="5.44404">
        <ele>221</ele>
        <time>2017-03-22T13:45:45Z</time>
      </trkpt>
      <trkpt lat="43.50212" lon="5.4441">
        <ele>219</ele>
        <time>2017-03-22T13:45:52Z</time>
      </trkpt>
      <trkpt lat="43.5022" lon="5.44413">
        <ele>219</ele>
        <time>2017-03-22T13:45:59Z</time>
      </trkpt>
      <trkpt lat="43.50227" lon="5.4442">
        <ele>219</ele>
        <time>2017-03-22T13:46:09Z</time>
      </trkpt>
      <trkpt lat="43.50234" lon="5.44426">
        <ele>219</ele>
        <time>2017-03-22T13:46:17Z</time>
      </trkpt>
      <trkpt lat="43.50241" lon="5.44434">
        <ele>218</ele>
        <time>2017-03-22T13:46:25Z</time>
      </trkpt>
      <trkpt lat="43.50248" lon="5.4444">
        <ele>216</ele>
        <time>2017-03-22T13:46:34Z</time>
      </trkpt>
      <trkpt lat="43.50255" lon="5.44447">
        <ele>214</ele>
        <time>2017-03-22T13:46:42Z</time>
      </trkpt>
      <trkpt lat="43.50261" lon="5.44455">
        <ele>212</ele>
        <time>2017-03-22T13:46:49Z</time>
      </trkpt>
      <trkpt lat="43.50267" lon="5.44464">
        <ele>208</ele>
        <time>2017-03-22T13:46:58Z</time>
      </trkpt>
      <trkpt lat="43.50271" lon="5.44473">
        <ele>206</ele>
        <time>2017-03-22T13:47:05Z</time>
      </trkpt>
      <trkpt lat="43.50276" lon="5.44482">
        <ele>210</ele>
        <time>2017-03-22T13:47:11Z</time>
      </trkpt>
      <trkpt lat="43.50281" lon="5.44492">
        <ele>212</ele>
        <time>2017-03-22T13:47:19Z</time>
      </trkpt>
      <trkpt lat="43.50287" lon="5.445">
        <ele>210</ele>
        <time>2017-03-22T13:47:28Z</time>
      </trkpt>
      <trkpt lat="43.50293" lon="5.44509">
        <ele>208</ele>
        <time>2017-03-22T13:47:38Z</time>
      </trkpt>
      <trkpt lat="43.50296" lon="5.44521">
        <ele>213</ele>
        <time>2017-03-22T13:47:45Z</time>
      </trkpt>
      <trkpt lat="43.50302" lon="5.44528">
        <ele>210</ele>
        <time>2017-03-22T13:47:51Z</time>
      </trkpt>
      <trkpt lat="43.50308" lon="5.44536">
        <ele>212</ele>
        <time>2017-03-22T13:47:56Z</time>
      </trkpt>
      <trkpt lat="43.50316" lon="5.44542">
        <ele>211</ele>
        <time>2017-03-22T13:48:04Z</time>
      </trkpt>
      <trkpt lat="43.50324" lon="5.4454">
        <ele>207</ele>
        <time>2017-03-22T13:48:11Z</time>
      </trkpt>
      <trkpt lat="43.50332" lon="5.44539">
        <ele>207</ele>
        <time>2017-03-22T13:48:17Z</time>
      </trkpt>
      <trkpt lat="43.50339" lon="5.44537">
        <ele>206</ele>
        <time>2017-03-22T13:48:25Z</time>
      </trkpt>
      <trkpt lat="43.50347" lon="5.44538">
        <ele>212</ele>
        <time>2017-03-22T13:48:37Z</time>
      </trkpt>
      <trkpt lat="43.50355" lon="5.44538">
        <ele>210</ele>
        <time>2017-03-22T13:48:46Z</time>
      </trkpt>
      <trkpt lat="43.50364" lon="5.44537">
        <ele>212</ele>
        <time>2017-03-22T13:48:51Z</time>
      </trkpt>
      <trkpt lat="43.50372" lon="5.44535">
        <ele>212</ele>
        <time>2017-03-22T13:48:57Z</time>
      </trkpt>
      <trkpt lat="43.5038" lon="5.44533">
        <ele>211</ele>
        <time>2017-03-22T13:49:04Z</time>
      </trkpt>
      <trkpt lat="43.50387" lon="5.4453">
        <ele>208</ele>
        <time>2017-03-22T13:49:12Z</time>
      </trkpt>
      <trkpt lat="43.50395" lon="5.44531">
        <ele>210</ele>
        <time>2017-03-22T13:49:22Z</time>
      </trkpt>
      <trkpt lat="43.50403" lon="5.44528">
        <ele>207</ele>
        <time>2017-03-22T13:49:29Z</time>
      </trkpt>
      <trkpt lat="43.50411" lon="5.44525">
        <ele>204</ele>
        <time>2017-03-22T13:49:35Z</time>
      </trkpt>
      <trkpt lat="43.5042" lon="5.44525">
        <ele>206</ele>
        <time>2017-03-22T13:49:40Z</time>
      </trkpt>
      <trkpt lat="43.50427" lon="5.44529">
        <ele>208</ele>
        <time>2017-03-22T13:49:46Z</time>
      </trkpt>
      <trkpt lat="43.50431" lon="5.44539">
        <ele>209</ele>
        <time>2017-03-22T13:50:00Z</time>
      </trkpt>
      <trkpt lat="43.50435" lon="5.44549">
        <ele>208</ele>
        <time>2017-03-22T13:50:08Z</time>
      </trkpt>
      <trkpt lat="43.50438" lon="5.4456">
        <ele>208</ele>
        <time>2017-03-22T13:50:15Z</time>
      </trkpt>
      <trkpt lat="43.5044" lon="5.44572">
        <ele>208</ele>
        <time>2017-03-22T13:50:24Z</time>
      </trkpt>
      <trkpt lat="43.50444" lon="5.44583">
        <ele>208</ele>
        <time>2017-03-22T13:50:32Z</time>
      </trkpt>
      <trkpt lat="43.50448" lon="5.44594">
        <ele>211</ele>
        <time>2017-03-22T13:50:41Z</time>
      </trkpt>
      <trkpt lat="43.50452" lon="5.44605">
        <ele>212</ele>
        <time>2017-03-22T13:50:48Z</time>
      </trkpt>
      <trkpt lat="43.50455" lon="5.44614">
        <ele>214</ele>
        <time>2017-03-22T13:50:56Z</time>
      </trkpt>
      <trkpt lat="43.50462" lon="5.44622">
        <ele>212</ele>
        <time>2017-03-22T13:51:05Z</time>
      </trkpt>
      <trkpt lat="43.50464" lon="5.44633">
        <ele>211</ele>
        <time>2017-03-22T13:51:14Z</time>
      </trkpt>
      <trkpt lat="43.5047" lon="5.44641">
        <ele>211</ele>
        <time>2017-03-22T13:51:21Z</time>
      </trkpt>
      <trkpt lat="43.50476" lon="5.44647">
        <ele>211</ele>
        <time>2017-03-22T13:51:30Z</time>
      </trkpt>
      <trkpt lat="43.50482" lon="5.44655">
        <ele>207</ele>
        <time>2017-03-22T13:51:41Z</time>
      </trkpt>
      <trkpt lat="43.50488" lon="5.44664">
        <ele>207</ele>
        <time>2017-03-22T13:51:49Z</time>
      </trkpt>
      <trkpt lat="43.50495" lon="5.4467">
        <ele>207</ele>
        <time>2017-03-22T13:51:58Z</time>
      </trkpt>
      <trkpt lat="43.50503" lon="5.44675">
        <ele>207</ele>
        <time>2017-03-22T13:52:06Z</time>
      </trkpt>
      <trkpt lat="43.50509" lon="5.44683">
        <ele>207</ele>
        <time>2017-03-22T13:52:13Z</time>
      </trkpt>
      <trkpt lat="43.50516" lon="5.44689">
        <ele>208</ele>
        <time>2017-03-22T13:52:23Z</time>
      </trkpt>
      <trkpt lat="43.50524" lon="5.44693">
        <ele>207</ele>
        <time>2017-03-22T13:52:32Z</time>
      </trkpt>
      <trkpt lat="43.5053" lon="5.44701">
        <ele>206</ele>
        <time>2017-03-22T13:52:40Z</time>
      </trkpt>
      <trkpt lat="43.50536" lon="5.44709">
        <ele>206</ele>
        <time>2017-03-22T13:52:48Z</time>
      </trkpt>
      <trkpt lat="43.50544" lon="5.44715">
        <ele>207</ele>
        <time>2017-03-22T13:52:55Z</time>
      </trkpt>
      <trkpt lat="43.5055" lon="5.44723">
        <ele>207</ele>
        <time>2017-03-22T13:53:03Z</time>
      </trkpt>
      <trkpt lat="43.50556" lon="5.44731">
        <ele>209</ele>
        <time>2017-03-22T13:53:10Z</time>
      </trkpt>
      <trkpt lat="43.50564" lon="5.44737">
        <ele>209</ele>
        <time>2017-03-22T13:53:18Z</time>
      </trkpt>
      <trkpt lat="43.5057" lon="5.44743">
        <ele>207</ele>
        <time>2017-03-22T13:53:25Z</time>
      </trkpt>
      <trkpt lat="43.50578" lon="5.44747">
        <ele>208</ele>
        <time>2017-03-22T13:53:34Z</time>
      </trkpt>
      <trkpt lat="43.50585" lon="5.44751">
        <ele>209</ele>
        <time>2017-03-22T13:53:41Z</time>
      </trkpt>
      <trkpt lat="43.50594" lon="5.44755">
        <ele>210</ele>
        <time>2017-03-22T13:53:49Z</time>
      </trkpt>
      <trkpt lat="43.50601" lon="5.44759">
        <ele>210</ele>
        <time>2017-03-22T13:53:57Z</time>
      </trkpt>
      <trkpt lat="43.50609" lon="5.44762">
        <ele>210</ele>
        <time>2017-03-22T13:54:05Z</time>
      </trkpt>
      <trkpt lat="43.50618" lon="5.44763">
        <ele>210</ele>
        <time>2017-03-22T13:54:13Z</time>
      </trkpt>
      <trkpt lat="43.50626" lon="5.44763">
        <ele>209</ele>
        <time>2017-03-22T13:54:21Z</time>
      </trkpt>
      <trkpt lat="43.50634" lon="5.44763">
        <ele>211</ele>
        <time>2017-03-22T13:54:29Z</time>
      </trkpt>
      <trkpt lat="43.50643" lon="5.44761">
        <ele>211</ele>
        <time>2017-03-22T13:54:37Z</time>
      </trkpt>
      <trkpt lat="43.5065" lon="5.44753">
        <ele>209</ele>
        <time>2017-03-22T13:54:45Z</time>
      </trkpt>
      <trkpt lat="43.50656" lon="5.44746">
        <ele>209</ele>
        <time>2017-03-22T13:54:52Z</time>
      </trkpt>
      <trkpt lat="43.50662" lon="5.44739">
        <ele>210</ele>
        <time>2017-03-22T13:54:58Z</time>
      </trkpt>
      <trkpt lat="43.50669" lon="5.44734">
        <ele>210</ele>
        <time>2017-03-22T13:55:05Z</time>
      </trkpt>
      <trkpt lat="43.50676" lon="5.44727">
        <ele>209</ele>
        <time>2017-03-22T13:55:13Z</time>
      </trkpt>
      <trkpt lat="43.50683" lon="5.44719">
        <ele>206</ele>
        <time>2017-03-22T13:55:23Z</time>
      </trkpt>
      <trkpt lat="43.5069" lon="5.44712">
        <ele>205</ele>
        <time>2017-03-22T13:55:31Z</time>
      </trkpt>
      <trkpt lat="43.50697" lon="5.44706">
        <ele>205</ele>
        <time>2017-03-22T13:55:39Z</time>
      </trkpt>
      <trkpt lat="43.50704" lon="5.447">
        <ele>205</ele>
        <time>2017-03-22T13:55:47Z</time>
      </trkpt>
      <trkpt lat="43.50711" lon="5.44694">
        <ele>206</ele>
        <time>2017-03-22T13:55:54Z</time>
      </trkpt>
      <trkpt lat="43.50718" lon="5.44687">
        <ele>205</ele>
        <time>2017-03-22T13:56:02Z</time>
      </trkpt>
      <trkpt lat="43.50725" lon="5.44682">
        <ele>205</ele>
        <time>2017-03-22T13:56:14Z</time>
      </trkpt>
      <trkpt lat="43.50733" lon="5.44683">
        <ele>204</ele>
        <time>2017-03-22T13:56:22Z</time>
      </trkpt>
      <trkpt lat="43.50742" lon="5.44684">
        <ele>202</ele>
        <time>2017-03-22T13:56:30Z</time>
      </trkpt>
      <trkpt lat="43.5075" lon="5.44686">
        <ele>200</ele>
        <time>2017-03-22T13:56:38Z</time>
      </trkpt>
      <trkpt lat="43.50759" lon="5.44687">
        <ele>199</ele>
        <time>2017-03-22T13:56:47Z</time>
      </trkpt>
      <trkpt lat="43.50767" lon="5.44688">
        <ele>197</ele>
        <time>2017-03-22T13:56:56Z</time>
      </trkpt>
      <trkpt lat="43.50775" lon="5.4469">
        <ele>198</ele>
        <time>2017-03-22T13:57:04Z</time>
      </trkpt>
      <trkpt lat="43.50784" lon="5.44694">
        <ele>198</ele>
        <time>2017-03-22T13:57:13Z</time>
      </trkpt>
      <trkpt lat="43.50792" lon="5.44695">
        <ele>197</ele>
        <time>2017-03-22T13:57:20Z</time>
      </trkpt>
      <trkpt lat="43.508" lon="5.44696">
        <ele>195</ele>
        <time>2017-03-22T13:57:27Z</time>
      </trkpt>
      <trkpt lat="43.50808" lon="5.44699">
        <ele>197</ele>
        <time>2017-03-22T13:57:34Z</time>
      </trkpt>
      <trkpt lat="43.50816" lon="5.44699">
        <ele>197</ele>
        <time>2017-03-22T13:57:41Z</time>
      </trkpt>
      <trkpt lat="43.50825" lon="5.44701">
        <ele>197</ele>
        <time>2017-03-22T13:57:49Z</time>
      </trkpt>
      <trkpt lat="43.50833" lon="5.44703">
        <ele>196</ele>
        <time>2017-03-22T13:57:57Z</time>
      </trkpt>
      <trkpt lat="43.50841" lon="5.44707">
        <ele>198</ele>
        <time>2017-03-22T13:58:04Z</time>
      </trkpt>
      <trkpt lat="43.50849" lon="5.4471">
        <ele>199</ele>
        <time>2017-03-22T13:58:11Z</time>
      </trkpt>
      <trkpt lat="43.50858" lon="5.44708">
        <ele>193</ele>
        <time>2017-03-22T13:58:24Z</time>
      </trkpt>
      <trkpt lat="43.50866" lon="5.44708">
        <ele>194</ele>
        <time>2017-03-22T13:58:36Z</time>
      </trkpt>
      <trkpt lat="43.50874" lon="5.44709">
        <ele>193</ele>
        <time>2017-03-22T13:58:46Z</time>
      </trkpt>
      <trkpt lat="43.50882" lon="5.44708">
        <ele>191</ele>
        <time>2017-03-22T13:58:59Z</time>
      </trkpt>
      <trkpt lat="43.50891" lon="5.44708">
        <ele>191</ele>
        <time>2017-03-22T13:59:06Z</time>
      </trkpt>
      <trkpt lat="43.509" lon="5.44708">
        <ele>191</ele>
        <time>2017-03-22T13:59:13Z</time>
      </trkpt>
      <trkpt lat="43.50909" lon="5.44706">
        <ele>194</ele>
        <time>2017-03-22T13:59:23Z</time>
      </trkpt>
      <trkpt lat="43.50917" lon="5.44703">
        <ele>194</ele>
        <time>2017-03-22T13:59:32Z</time>
      </trkpt>
      <trkpt lat="43.50926" lon="5.44706">
        <ele>196</ele>
        <time>2017-03-22T13:59:39Z</time>
      </trkpt>
      <trkpt lat="43.50934" lon="5.44705">
        <ele>197</ele>
        <time>2017-03-22T13:59:48Z</time>
      </trkpt>
      <trkpt lat="43.50943" lon="5.44702">
        <ele>196</ele>
        <time>2017-03-22T13:59:56Z</time>
      </trkpt>
      <trkpt lat="43.50951" lon="5.44698">
        <ele>196</ele>
        <time>2017-03-22T14:00:04Z</time>
      </trkpt>
      <trkpt lat="43.50959" lon="5.44692">
        <ele>194</ele>
        <time>2017-03-22T14:00:12Z</time>
      </trkpt>
      <trkpt lat="43.50966" lon="5.44686">
        <ele>192</ele>
        <time>2017-03-22T14:00:19Z</time>
      </trkpt>
      <trkpt lat="43.50972" lon="5.44677">
        <ele>189</ele>
        <time>2017-03-22T14:00:26Z</time>
      </trkpt>
      <trkpt lat="43.50981" lon="5.44678">
        <ele>188</ele>
        <time>2017-03-22T14:00:45Z</time>
      </trkpt>
      <trkpt lat="43.50986" lon="5.44688">
        <ele>182</ele>
        <time>2017-03-22T14:02:39Z</time>
      </trkpt>
      <trkpt lat="43.50995" lon="5.4469">
        <ele>182</ele>
        <time>2017-03-22T14:02:48Z</time>
      </trkpt>
      <trkpt lat="43.51003" lon="5.44694">
        <ele>184</ele>
        <time>2017-03-22T14:02:56Z</time>
      </trkpt>
      <trkpt lat="43.51011" lon="5.44697">
        <ele>187</ele>
        <time>2017-03-22T14:03:01Z</time>
      </trkpt>
      <trkpt lat="43.51018" lon="5.44704">
        <ele>188</ele>
        <time>2017-03-22T14:03:12Z</time>
      </trkpt>
      <trkpt lat="43.51026" lon="5.44705">
        <ele>186</ele>
        <time>2017-03-22T14:03:20Z</time>
      </trkpt>
      <trkpt lat="43.51018" lon="5.44711">
        <ele>180</ele>
        <time>2017-03-22T14:03:56Z</time>
      </trkpt>
      <trkpt lat="43.51012" lon="5.44718">
        <ele>175</ele>
        <time>2017-03-22T14:04:02Z</time>
      </trkpt>
      <trkpt lat="43.51007" lon="5.44728">
        <ele>178</ele>
        <time>2017-03-22T14:04:10Z</time>
      </trkpt>
      <trkpt lat="43.51002" lon="5.44738">
        <ele>183</ele>
        <time>2017-03-22T14:04:19Z</time>
      </trkpt>
      <trkpt lat="43.50997" lon="5.44747">
        <ele>183</ele>
        <time>2017-03-22T14:04:27Z</time>
      </trkpt>
      <trkpt lat="43.50993" lon="5.44757">
        <ele>185</ele>
        <time>2017-03-22T14:04:33Z</time>
      </trkpt>
      <trkpt lat="43.50992" lon="5.4477">
        <ele>186</ele>
        <time>2017-03-22T14:04:38Z</time>
      </trkpt>
      <trkpt lat="43.50992" lon="5.44782">
        <ele>189</ele>
        <time>2017-03-22T14:04:45Z</time>
      </trkpt>
      <trkpt lat="43.50994" lon="5.44791">
        <ele>189</ele>
        <time>2017-03-22T14:04:50Z</time>
      </trkpt>
      <trkpt lat="43.50995" lon="5.44802">
        <ele>188</ele>
        <time>2017-03-22T14:04:56Z</time>
      </trkpt>
      <trkpt lat="43.50994" lon="5.44814">
        <ele>187</ele>
        <time>2017-03-22T14:05:01Z</time>
      </trkpt>
      <trkpt lat="43.50995" lon="5.44824">
        <ele>189</ele>
        <time>2017-03-22T14:05:06Z</time>
      </trkpt>
      <trkpt lat="43.50998" lon="5.44835">
        <ele>189</ele>
        <time>2017-03-22T14:05:12Z</time>
      </trkpt>
      <trkpt lat="43.51001" lon="5.44845">
        <ele>191</ele>
        <time>2017-03-22T14:05:18Z</time>
      </trkpt>
      <trkpt lat="43.51009" lon="5.44851">
        <ele>187</ele>
        <time>2017-03-22T14:05:25Z</time>
      </trkpt>
      <trkpt lat="43.51015" lon="5.44857">
        <ele>186</ele>
        <time>2017-03-22T14:05:33Z</time>
      </trkpt>
      <trkpt lat="43.51019" lon="5.44866">
        <ele>186</ele>
        <time>2017-03-22T14:05:39Z</time>
      </trkpt>
      <trkpt lat="43.51023" lon="5.44876">
        <ele>189</ele>
        <time>2017-03-22T14:05:45Z</time>
      </trkpt>
      <trkpt lat="43.51032" lon="5.44879">
        <ele>185</ele>
        <time>2017-03-22T14:05:53Z</time>
      </trkpt>
      <trkpt lat="43.51038" lon="5.44886">
        <ele>188</ele>
        <time>2017-03-22T14:06:05Z</time>
      </trkpt>
      <trkpt lat="43.51045" lon="5.44893">
        <ele>189</ele>
        <time>2017-03-22T14:06:12Z</time>
      </trkpt>
      <trkpt lat="43.51054" lon="5.44895">
        <ele>185</ele>
        <time>2017-03-22T14:06:20Z</time>
      </trkpt>
      <trkpt lat="43.51062" lon="5.44897">
        <ele>186</ele>
        <time>2017-03-22T14:06:27Z</time>
      </trkpt>
      <trkpt lat="43.51071" lon="5.44894">
        <ele>186</ele>
        <time>2017-03-22T14:06:31Z</time>
      </trkpt>
      <trkpt lat="43.51075" lon="5.44904">
        <ele>185</ele>
        <time>2017-03-22T14:06:43Z</time>
      </trkpt>
      <trkpt lat="43.51081" lon="5.44913">
        <ele>185</ele>
        <time>2017-03-22T14:06:52Z</time>
      </trkpt>
      <trkpt lat="43.51089" lon="5.44913">
        <ele>186</ele>
        <time>2017-03-22T14:06:59Z</time>
      </trkpt>
      <trkpt lat="43.51095" lon="5.44918">
        <ele>189</ele>
        <time>2017-03-22T14:07:21Z</time>
      </trkpt>
      <trkpt lat="43.51102" lon="5.44925">
        <ele>189</ele>
        <time>2017-03-22T14:07:25Z</time>
      </trkpt>
      <trkpt lat="43.51107" lon="5.44932">
        <ele>185</ele>
        <time>2017-03-22T14:07:32Z</time>
      </trkpt>
      <trkpt lat="43.51114" lon="5.4494">
        <ele>184</ele>
        <time>2017-03-22T14:07:38Z</time>
      </trkpt>
      <trkpt lat="43.51116" lon="5.4495">
        <ele>184</ele>
        <time>2017-03-22T14:07:44Z</time>
      </trkpt>
      <trkpt lat="43.51121" lon="5.44959">
        <ele>186</ele>
        <time>2017-03-22T14:07:50Z</time>
      </trkpt>
      <trkpt lat="43.51127" lon="5.44967">
        <ele>185</ele>
        <time>2017-03-22T14:07:57Z</time>
      </trkpt>
      <trkpt lat="43.51134" lon="5.44973">
        <ele>184</ele>
        <time>2017-03-22T14:08:06Z</time>
      </trkpt>
      <trkpt lat="43.51138" lon="5.44984">
        <ele>182</ele>
        <time>2017-03-22T14:08:15Z</time>
      </trkpt>
      <trkpt lat="43.51139" lon="5.44994">
        <ele>181</ele>
        <time>2017-03-22T14:08:24Z</time>
      </trkpt>
      <trkpt lat="43.51141" lon="5.45003">
        <ele>181</ele>
        <time>2017-03-22T14:08:29Z</time>
      </trkpt>
      <trkpt lat="43.51141" lon="5.45014">
        <ele>182</ele>
        <time>2017-03-22T14:08:34Z</time>
      </trkpt>
      <trkpt lat="43.51144" lon="5.45026">
        <ele>183</ele>
        <time>2017-03-22T14:08:44Z</time>
      </trkpt>
      <trkpt lat="43.51144" lon="5.45037">
        <ele>182</ele>
        <time>2017-03-22T14:08:51Z</time>
      </trkpt>
      <trkpt lat="43.51144" lon="5.45049">
        <ele>184</ele>
        <time>2017-03-22T14:08:58Z</time>
      </trkpt>
      <trkpt lat="43.51147" lon="5.4506">
        <ele>180</ele>
        <time>2017-03-22T14:09:06Z</time>
      </trkpt>
      <trkpt lat="43.51146" lon="5.45072">
        <ele>181</ele>
        <time>2017-03-22T14:09:12Z</time>
      </trkpt>
      <trkpt lat="43.51145" lon="5.45084">
        <ele>182</ele>
        <time>2017-03-22T14:09:19Z</time>
      </trkpt>
      <trkpt lat="43.51145" lon="5.45096">
        <ele>184</ele>
        <time>2017-03-22T14:09:25Z</time>
      </trkpt>
      <trkpt lat="43.51147" lon="5.45106">
        <ele>181</ele>
        <time>2017-03-22T14:09:34Z</time>
      </trkpt>
      <trkpt lat="43.51152" lon="5.4511">
        <ele>182</ele>
        <time>2017-03-22T14:09:41Z</time>
      </trkpt>
      <trkpt lat="43.51148" lon="5.45126">
        <ele>183</ele>
        <time>2017-03-22T14:09:46Z</time>
      </trkpt>
      <trkpt lat="43.51149" lon="5.45137">
        <ele>184</ele>
        <time>2017-03-22T14:09:50Z</time>
      </trkpt>
      <trkpt lat="43.51151" lon="5.45148">
        <ele>184</ele>
        <time>2017-03-22T14:09:57Z</time>
      </trkpt>
      <trkpt lat="43.51152" lon="5.45158">
        <ele>184</ele>
        <time>2017-03-22T14:10:05Z</time>
      </trkpt>
      <trkpt lat="43.51154" lon="5.4517">
        <ele>181</ele>
        <time>2017-03-22T14:10:13Z</time>
      </trkpt>
      <trkpt lat="43.51154" lon="5.45182">
        <ele>181</ele>
        <time>2017-03-22T14:10:21Z</time>
      </trkpt>
      <trkpt lat="43.51156" lon="5.45193">
        <ele>178</ele>
        <time>2017-03-22T14:10:29Z</time>
      </trkpt>
      <trkpt lat="43.51157" lon="5.45204">
        <ele>177</ele>
        <time>2017-03-22T14:10:40Z</time>
      </trkpt>
      <trkpt lat="43.51153" lon="5.45212">
        <ele>179</ele>
        <time>2017-03-22T14:10:45Z</time>
      </trkpt>
      <trkpt lat="43.51146" lon="5.45218">
        <ele>185</ele>
        <time>2017-03-22T14:11:17Z</time>
      </trkpt>
      <trkpt lat="43.5114" lon="5.45211">
        <ele>181</ele>
        <time>2017-03-22T14:11:25Z</time>
      </trkpt>
      <trkpt lat="43.51132" lon="5.45204">
        <ele>182</ele>
        <time>2017-03-22T14:11:33Z</time>
      </trkpt>
      <trkpt lat="43.51124" lon="5.45207">
        <ele>181</ele>
        <time>2017-03-22T14:11:41Z</time>
      </trkpt>
      <trkpt lat="43.51118" lon="5.45215">
        <ele>180</ele>
        <time>2017-03-22T14:11:51Z</time>
      </trkpt>
      <trkpt lat="43.51115" lon="5.45223">
        <ele>181</ele>
        <time>2017-03-22T14:11:57Z</time>
      </trkpt>
      <trkpt lat="43.51114" lon="5.45234">
        <ele>178</ele>
        <time>2017-03-22T14:12:03Z</time>
      </trkpt>
      <trkpt lat="43.51107" lon="5.4524">
        <ele>179</ele>
        <time>2017-03-22T14:12:11Z</time>
      </trkpt>
      <trkpt lat="43.51105" lon="5.45252">
        <ele>179</ele>
        <time>2017-03-22T14:12:20Z</time>
      </trkpt>
      <trkpt lat="43.51097" lon="5.45257">
        <ele>179</ele>
        <time>2017-03-22T14:12:26Z</time>
      </trkpt>
      <trkpt lat="43.5109" lon="5.45264">
        <ele>181</ele>
        <time>2017-03-22T14:12:37Z</time>
      </trkpt>
      <trkpt lat="43.51085" lon="5.45274">
        <ele>183</ele>
        <time>2017-03-22T14:12:45Z</time>
      </trkpt>
      <trkpt lat="43.51079" lon="5.45281">
        <ele>180</ele>
        <time>2017-03-22T14:12:52Z</time>
      </trkpt>
      <trkpt lat="43.51073" lon="5.45289">
        <ele>181</ele>
        <time>2017-03-22T14:12:58Z</time>
      </trkpt>
      <trkpt lat="43.51069" lon="5.45298">
        <ele>181</ele>
        <time>2017-03-22T14:13:07Z</time>
      </trkpt>
      <trkpt lat="43.51061" lon="5.45304">
        <ele>182</ele>
        <time>2017-03-22T14:13:15Z</time>
      </trkpt>
      <trkpt lat="43.51054" lon="5.4531">
        <ele>180</ele>
        <time>2017-03-22T14:13:25Z</time>
      </trkpt>
      <trkpt lat="43.51046" lon="5.45316">
        <ele>183</ele>
        <time>2017-03-22T14:13:36Z</time>
      </trkpt>
      <trkpt lat="43.51039" lon="5.45323">
        <ele>181</ele>
        <time>2017-03-22T14:13:45Z</time>
      </trkpt>
      <trkpt lat="43.51033" lon="5.45331">
        <ele>182</ele>
        <time>2017-03-22T14:13:53Z</time>
      </trkpt>
      <trkpt lat="43.51025" lon="5.45338">
        <ele>184</ele>
        <time>2017-03-22T14:14:00Z</time>
      </trkpt>
      <trkpt lat="43.51018" lon="5.45343">
        <ele>186</ele>
        <time>2017-03-22T14:14:08Z</time>
      </trkpt>
      <trkpt lat="43.51013" lon="5.45352">
        <ele>186</ele>
        <time>2017-03-22T14:14:17Z</time>
      </trkpt>
      <trkpt lat="43.51006" lon="5.45361">
        <ele>186</ele>
        <time>2017-03-22T14:14:24Z</time>
      </trkpt>
      <trkpt lat="43.51002" lon="5.4537">
        <ele>187</ele>
        <time>2017-03-22T14:14:32Z</time>
      </trkpt>
      <trkpt lat="43.51" lon="5.4538">
        <ele>186</ele>
        <time>2017-03-22T14:14:44Z</time>
      </trkpt>
      <trkpt lat="43.50994" lon="5.45389">
        <ele>186</ele>
        <time>2017-03-22T14:14:51Z</time>
      </trkpt>
      <trkpt lat="43.50989" lon="5.45399">
        <ele>186</ele>
        <time>2017-03-22T14:14:59Z</time>
      </trkpt>
      <trkpt lat="43.50986" lon="5.45407">
        <ele>183</ele>
        <time>2017-03-22T14:15:05Z</time>
      </trkpt>
      <trkpt lat="43.50982" lon="5.45418">
        <ele>182</ele>
        <time>2017-03-22T14:15:15Z</time>
      </trkpt>
      <trkpt lat="43.50985" lon="5.4543">
        <ele>180</ele>
        <time>2017-03-22T14:15:21Z</time>
      </trkpt>
      <trkpt lat="43.50983" lon="5.45441">
        <ele>186</ele>
        <time>2017-03-22T14:15:30Z</time>
      </trkpt>
      <trkpt lat="43.50983" lon="5.4545">
        <ele>186</ele>
        <time>2017-03-22T14:15:38Z</time>
      </trkpt>
      <trkpt lat="43.50982" lon="5.4546">
        <ele>189</ele>
        <time>2017-03-22T14:15:43Z</time>
      </trkpt>
      <trkpt lat="43.50981" lon="5.45472">
        <ele>188</ele>
        <time>2017-03-22T14:15:52Z</time>
      </trkpt>
      <trkpt lat="43.50982" lon="5.45483">
        <ele>187</ele>
        <time>2017-03-22T14:15:57Z</time>
      </trkpt>
      <trkpt lat="43.50987" lon="5.45491">
        <ele>183</ele>
        <time>2017-03-22T14:16:04Z</time>
      </trkpt>
      <trkpt lat="43.50986" lon="5.45502">
        <ele>184</ele>
        <time>2017-03-22T14:16:14Z</time>
      </trkpt>
      <trkpt lat="43.50987" lon="5.45513">
        <ele>183</ele>
        <time>2017-03-22T14:16:21Z</time>
      </trkpt>
      <trkpt lat="43.50989" lon="5.45525">
        <ele>185</ele>
        <time>2017-03-22T14:16:29Z</time>
      </trkpt>
      <trkpt lat="43.50987" lon="5.45538">
        <ele>189</ele>
        <time>2017-03-22T14:16:34Z</time>
      </trkpt>
      <trkpt lat="43.50989" lon="5.45549">
        <ele>189</ele>
        <time>2017-03-22T14:16:41Z</time>
      </trkpt>
      <trkpt lat="43.50991" lon="5.4556">
        <ele>186</ele>
        <time>2017-03-22T14:16:48Z</time>
      </trkpt>
      <trkpt lat="43.50991" lon="5.45572">
        <ele>185</ele>
        <time>2017-03-22T14:16:55Z</time>
      </trkpt>
      <trkpt lat="43.50994" lon="5.45582">
        <ele>189</ele>
        <time>2017-03-22T14:17:01Z</time>
      </trkpt>
      <trkpt lat="43.50996" lon="5.45593">
        <ele>192</ele>
        <time>2017-03-22T14:17:07Z</time>
      </trkpt>
      <trkpt lat="43.50997" lon="5.45603">
        <ele>191</ele>
        <time>2017-03-22T14:17:17Z</time>
      </trkpt>
      <trkpt lat="43.50997" lon="5.45615">
        <ele>186</ele>
        <time>2017-03-22T14:17:25Z</time>
      </trkpt>
      <trkpt lat="43.50996" lon="5.45627">
        <ele>188</ele>
        <time>2017-03-22T14:17:34Z</time>
      </trkpt>
      <trkpt lat="43.50998" lon="5.45638">
        <ele>187</ele>
        <time>2017-03-22T14:17:39Z</time>
      </trkpt>
      <trkpt lat="43.50998" lon="5.45649">
        <ele>189</ele>
        <time>2017-03-22T14:17:44Z</time>
      </trkpt>
      <trkpt lat="43.51001" lon="5.4566">
        <ele>188</ele>
        <time>2017-03-22T14:17:50Z</time>
      </trkpt>
      <trkpt lat="43.51003" lon="5.45671">
        <ele>189</ele>
        <time>2017-03-22T14:18:00Z</time>
      </trkpt>
      <trkpt lat="43.51005" lon="5.4568">
        <ele>189</ele>
        <time>2017-03-22T14:18:07Z</time>
      </trkpt>
      <trkpt lat="43.51008" lon="5.45691">
        <ele>185</ele>
        <time>2017-03-22T14:18:13Z</time>
      </trkpt>
      <trkpt lat="43.51012" lon="5.45701">
        <ele>185</ele>
        <time>2017-03-22T14:18:20Z</time>
      </trkpt>
      <trkpt lat="43.51013" lon="5.45712">
        <ele>184</ele>
        <time>2017-03-22T14:18:28Z</time>
      </trkpt>
      <trkpt lat="43.51016" lon="5.45724">
        <ele>181</ele>
        <time>2017-03-22T14:18:37Z</time>
      </trkpt>
      <trkpt lat="43.51016" lon="5.45734">
        <ele>181</ele>
        <time>2017-03-22T14:18:42Z</time>
      </trkpt>
      <trkpt lat="43.51014" lon="5.45744">
        <ele>182</ele>
        <time>2017-03-22T14:18:49Z</time>
      </trkpt>
      <trkpt lat="43.51013" lon="5.45756">
        <ele>182</ele>
        <time>2017-03-22T14:18:55Z</time>
      </trkpt>
      <trkpt lat="43.51014" lon="5.45768">
        <ele>183</ele>
        <time>2017-03-22T14:19:06Z</time>
      </trkpt>
      <trkpt lat="43.51012" lon="5.45779">
        <ele>184</ele>
        <time>2017-03-22T14:19:13Z</time>
      </trkpt>
      <trkpt lat="43.5101" lon="5.4579">
        <ele>185</ele>
        <time>2017-03-22T14:19:19Z</time>
      </trkpt>
      <trkpt lat="43.51009" lon="5.45802">
        <ele>186</ele>
        <time>2017-03-22T14:19:27Z</time>
      </trkpt>
      <trkpt lat="43.51007" lon="5.45813">
        <ele>188</ele>
        <time>2017-03-22T14:19:34Z</time>
      </trkpt>
      <trkpt lat="43.51006" lon="5.45823">
        <ele>190</ele>
        <time>2017-03-22T14:19:40Z</time>
      </trkpt>
      <trkpt lat="43.51002" lon="5.45834">
        <ele>191</ele>
        <time>2017-03-22T14:19:47Z</time>
      </trkpt>
      <trkpt lat="43.51001" lon="5.45844">
        <ele>190</ele>
        <time>2017-03-22T14:19:53Z</time>
      </trkpt>
      <trkpt lat="43.51001" lon="5.45856">
        <ele>184</ele>
        <time>2017-03-22T14:20:01Z</time>
      </trkpt>
      <trkpt lat="43.50997" lon="5.45866">
        <ele>184</ele>
        <time>2017-03-22T14:20:07Z</time>
      </trkpt>
      <trkpt lat="43.50993" lon="5.45877">
        <ele>184</ele>
        <time>2017-03-22T14:20:14Z</time>
      </trkpt>
      <trkpt lat="43.50989" lon="5.45888">
        <ele>184</ele>
        <time>2017-03-22T14:20:21Z</time>
      </trkpt>
      <trkpt lat="43.50985" lon="5.45898">
        <ele>183</ele>
        <time>2017-03-22T14:20:27Z</time>
      </trkpt>
      <trkpt lat="43.5098" lon="5.45907">
        <ele>185</ele>
        <time>2017-03-22T14:20:33Z</time>
      </trkpt>
      <trkpt lat="43.50976" lon="5.45916">
        <ele>187</ele>
        <time>2017-03-22T14:20:41Z</time>
      </trkpt>
      <trkpt lat="43.5097" lon="5.45924">
        <ele>189</ele>
        <time>2017-03-22T14:20:48Z</time>
      </trkpt>
      <trkpt lat="43.50965" lon="5.45933">
        <ele>189</ele>
        <time>2017-03-22T14:20:54Z</time>
      </trkpt>
      <trkpt lat="43.50964" lon="5.45944">
        <ele>186</ele>
        <time>2017-03-22T14:21:00Z</time>
      </trkpt>
      <trkpt lat="43.5096" lon="5.45954">
        <ele>187</ele>
        <time>2017-03-22T14:21:07Z</time>
      </trkpt>
      <trkpt lat="43.50955" lon="5.45963">
        <ele>186</ele>
        <time>2017-03-22T14:21:15Z</time>
      </trkpt>
      <trkpt lat="43.5095" lon="5.45973">
        <ele>187</ele>
        <time>2017-03-22T14:21:21Z</time>
      </trkpt>
      <trkpt lat="43.50944" lon="5.45981">
        <ele>189</ele>
        <time>2017-03-22T14:21:29Z</time>
      </trkpt>
      <trkpt lat="43.50939" lon="5.4599">
        <ele>191</ele>
        <time>2017-03-22T14:21:35Z</time>
      </trkpt>
      <trkpt lat="43.50935" lon="5.46001">
        <ele>189</ele>
        <time>2017-03-22T14:21:47Z</time>
      </trkpt>
      <trkpt lat="43.50927" lon="5.46007">
        <ele>191</ele>
        <time>2017-03-22T14:21:54Z</time>
      </trkpt>
      <trkpt lat="43.50922" lon="5.46015">
        <ele>193</ele>
        <time>2017-03-22T14:22:02Z</time>
      </trkpt>
      <trkpt lat="43.50916" lon="5.46021">
        <ele>193</ele>
        <time>2017-03-22T14:22:07Z</time>
      </trkpt>
      <trkpt lat="43.50909" lon="5.46027">
        <ele>195</ele>
        <time>2017-03-22T14:22:13Z</time>
      </trkpt>
      <trkpt lat="43.50905" lon="5.46038">
        <ele>192</ele>
        <time>2017-03-22T14:22:21Z</time>
      </trkpt>
      <trkpt lat="43.50899" lon="5.46047">
        <ele>191</ele>
        <time>2017-03-22T14:22:27Z</time>
      </trkpt>
      <trkpt lat="43.50892" lon="5.46053">
        <ele>189</ele>
        <time>2017-03-22T14:22:34Z</time>
      </trkpt>
      <trkpt lat="43.50885" lon="5.4606">
        <ele>188</ele>
        <time>2017-03-22T14:22:43Z</time>
      </trkpt>
      <trkpt lat="43.50876" lon="5.46059">
        <ele>185</ele>
        <time>2017-03-22T14:22:51Z</time>
      </trkpt>
      <trkpt lat="43.50868" lon="5.4606">
        <ele>181</ele>
        <time>2017-03-22T14:23:00Z</time>
      </trkpt>
      <trkpt lat="43.50861" lon="5.46059">
        <ele>182</ele>
        <time>2017-03-22T14:23:05Z</time>
      </trkpt>
      <trkpt lat="43.50853" lon="5.46056">
        <ele>184</ele>
        <time>2017-03-22T14:23:11Z</time>
      </trkpt>
      <trkpt lat="43.50847" lon="5.46065">
        <ele>178</ele>
        <time>2017-03-22T14:23:35Z</time>
      </trkpt>
      <trkpt lat="43.50839" lon="5.4607">
        <ele>181</ele>
        <time>2017-03-22T14:24:37Z</time>
      </trkpt>
      <trkpt lat="43.50832" lon="5.46076">
        <ele>181</ele>
        <time>2017-03-22T14:24:44Z</time>
      </trkpt>
      <trkpt lat="43.50824" lon="5.4608">
        <ele>183</ele>
        <time>2017-03-22T14:24:51Z</time>
      </trkpt>
      <trkpt lat="43.50818" lon="5.46088">
        <ele>186</ele>
        <time>2017-03-22T14:25:00Z</time>
      </trkpt>
      <trkpt lat="43.50813" lon="5.46097">
        <ele>189</ele>
        <time>2017-03-22T14:25:10Z</time>
      </trkpt>
      <trkpt lat="43.5081" lon="5.46107">
        <ele>188</ele>
        <time>2017-03-22T14:25:16Z</time>
      </trkpt>
      <trkpt lat="43.50813" lon="5.46117">
        <ele>184</ele>
        <time>2017-03-22T14:25:23Z</time>
      </trkpt>
      <trkpt lat="43.50818" lon="5.46126">
        <ele>184</ele>
        <time>2017-03-22T14:25:29Z</time>
      </trkpt>
      <trkpt lat="43.50814" lon="5.46134">
        <ele>177</ele>
        <time>2017-03-22T14:25:43Z</time>
      </trkpt>
      <trkpt lat="43.50807" lon="5.4614">
        <ele>179</ele>
        <time>2017-03-22T14:25:48Z</time>
      </trkpt>
      <trkpt lat="43.508" lon="5.46145">
        <ele>179</ele>
        <time>2017-03-22T14:25:54Z</time>
      </trkpt>
      <trkpt lat="43.50795" lon="5.46154">
        <ele>174</ele>
        <time>2017-03-22T14:26:05Z</time>
      </trkpt>
      <trkpt lat="43.5079" lon="5.46162">
        <ele>175</ele>
        <time>2017-03-22T14:26:12Z</time>
      </trkpt>
      <trkpt lat="43.50784" lon="5.46171">
        <ele>176</ele>
        <time>2017-03-22T14:26:20Z</time>
      </trkpt>
      <trkpt lat="43.50777" lon="5.46177">
        <ele>178</ele>
        <time>2017-03-22T14:26:26Z</time>
      </trkpt>
      <trkpt lat="43.50772" lon="5.46185">
        <ele>183</ele>
        <time>2017-03-22T14:26:32Z</time>
      </trkpt>
      <trkpt lat="43.50766" lon="5.46195">
        <ele>187</ele>
        <time>2017-03-22T14:26:41Z</time>
      </trkpt>
      <trkpt lat="43.50764" lon="5.46205">
        <ele>188</ele>
        <time>2017-03-22T14:26:49Z</time>
      </trkpt>
      <trkpt lat="43.50762" lon="5.46216">
        <ele>185</ele>
        <time>2017-03-22T14:26:57Z</time>
      </trkpt>
      <trkpt lat="43.50761" lon="5.46226">
        <ele>182</ele>
        <time>2017-03-22T14:27:05Z</time>
      </trkpt>
      <trkpt lat="43.50756" lon="5.46236">
        <ele>183</ele>
        <time>2017-03-22T14:27:13Z</time>
      </trkpt>
      <trkpt lat="43.50751" lon="5.46246">
        <ele>183</ele>
        <time>2017-03-22T14:27:20Z</time>
      </trkpt>
      <trkpt lat="43.50745" lon="5.46254">
        <ele>184</ele>
        <time>2017-03-22T14:27:28Z</time>
      </trkpt>
      <trkpt lat="43.50737" lon="5.46256">
        <ele>189</ele>
        <time>2017-03-22T14:27:35Z</time>
      </trkpt>
      <trkpt lat="43.50732" lon="5.46263">
        <ele>190</ele>
        <time>2017-03-22T14:27:40Z</time>
      </trkpt>
      <trkpt lat="43.5073" lon="5.46275">
        <ele>188</ele>
        <time>2017-03-22T14:27:46Z</time>
      </trkpt>
      <trkpt lat="43.50731" lon="5.46286">
        <ele>188</ele>
        <time>2017-03-22T14:27:53Z</time>
      </trkpt>
      <trkpt lat="43.50726" lon="5.46296">
        <ele>187</ele>
        <time>2017-03-22T14:28:01Z</time>
      </trkpt>
      <trkpt lat="43.50722" lon="5.46305">
        <ele>183</ele>
        <time>2017-03-22T14:28:08Z</time>
      </trkpt>
      <trkpt lat="43.5072" lon="5.46315">
        <ele>185</ele>
        <time>2017-03-22T14:28:15Z</time>
      </trkpt>
      <trkpt lat="43.50715" lon="5.46325">
        <ele>184</ele>
        <time>2017-03-22T14:28:23Z</time>
      </trkpt>
      <trkpt lat="43.50711" lon="5.46335">
        <ele>184</ele>
        <time>2017-03-22T14:28:30Z</time>
      </trkpt>
      <trkpt lat="43.50709" lon="5.46345">
        <ele>186</ele>
        <time>2017-03-22T14:28:37Z</time>
      </trkpt>
      <trkpt lat="43.50708" lon="5.46357">
        <ele>185</ele>
        <time>2017-03-22T14:28:42Z</time>
      </trkpt>
      <trkpt lat="43.50705" lon="5.46368">
        <ele>184</ele>
        <time>2017-03-22T14:28:51Z</time>
      </trkpt>
      <trkpt lat="43.50701" lon="5.46379">
        <ele>187</ele>
        <time>2017-03-22T14:28:57Z</time>
      </trkpt>
      <trkpt lat="43.50696" lon="5.46388">
        <ele>189</ele>
        <time>2017-03-22T14:29:06Z</time>
      </trkpt>
      <trkpt lat="43.50692" lon="5.46397">
        <ele>189</ele>
        <time>2017-03-22T14:29:13Z</time>
      </trkpt>
      <trkpt lat="43.5069" lon="5.46408">
        <ele>191</ele>
        <time>2017-03-22T14:29:18Z</time>
      </trkpt>
      <trkpt lat="43.50687" lon="5.46419">
        <ele>192</ele>
        <time>2017-03-22T14:29:26Z</time>
      </trkpt>
      <trkpt lat="43.50687" lon="5.4643">
        <ele>188</ele>
        <time>2017-03-22T14:29:35Z</time>
      </trkpt>
      <trkpt lat="43.50687" lon="5.46442">
        <ele>187</ele>
        <time>2017-03-22T14:29:41Z</time>
      </trkpt>
      <trkpt lat="43.50687" lon="5.46453">
        <ele>185</ele>
        <time>2017-03-22T14:29:48Z</time>
      </trkpt>
      <trkpt lat="43.50687" lon="5.46465">
        <ele>187</ele>
        <time>2017-03-22T14:29:55Z</time>
      </trkpt>
      <trkpt lat="43.50687" lon="5.46477">
        <ele>182</ele>
        <time>2017-03-22T14:30:02Z</time>
      </trkpt>
      <trkpt lat="43.50685" lon="5.46488">
        <ele>184</ele>
        <time>2017-03-22T14:30:08Z</time>
      </trkpt>
      <trkpt lat="43.50682" lon="5.46497">
        <ele>187</ele>
        <time>2017-03-22T14:30:16Z</time>
      </trkpt>
      <trkpt lat="43.50682" lon="5.46508">
        <ele>187</ele>
        <time>2017-03-22T14:30:21Z</time>
      </trkpt>
      <trkpt lat="43.50682" lon="5.4652">
        <ele>187</ele>
        <time>2017-03-22T14:30:27Z</time>
      </trkpt>
      <trkpt lat="43.50682" lon="5.46532">
        <ele>188</ele>
        <time>2017-03-22T14:30:35Z</time>
      </trkpt>
      <trkpt lat="43.50683" lon="5.46542">
        <ele>190</ele>
        <time>2017-03-22T14:30:43Z</time>
      </trkpt>
      <trkpt lat="43.50682" lon="5.46555">
        <ele>194</ele>
        <time>2017-03-22T14:30:49Z</time>
      </trkpt>
      <trkpt lat="43.50683" lon="5.46565">
        <ele>192</ele>
        <time>2017-03-22T14:30:54Z</time>
      </trkpt>
      <trkpt lat="43.50687" lon="5.46576">
        <ele>188</ele>
        <time>2017-03-22T14:31:05Z</time>
      </trkpt>
      <trkpt lat="43.50691" lon="5.46587">
        <ele>188</ele>
        <time>2017-03-22T14:31:12Z</time>
      </trkpt>
      <trkpt lat="43.50692" lon="5.46598">
        <ele>192</ele>
        <time>2017-03-22T14:31:18Z</time>
      </trkpt>
      <trkpt lat="43.50694" lon="5.46609">
        <ele>191</ele>
        <time>2017-03-22T14:31:25Z</time>
      </trkpt>
      <trkpt lat="43.50696" lon="5.46621">
        <ele>192</ele>
        <time>2017-03-22T14:31:31Z</time>
      </trkpt>
      <trkpt lat="43.50692" lon="5.46632">
        <ele>190</ele>
        <time>2017-03-22T14:31:41Z</time>
      </trkpt>
      <trkpt lat="43.50689" lon="5.46643">
        <ele>192</ele>
        <time>2017-03-22T14:31:52Z</time>
      </trkpt>
      <trkpt lat="43.50689" lon="5.46655">
        <ele>191</ele>
        <time>2017-03-22T14:31:57Z</time>
      </trkpt>
      <trkpt lat="43.50691" lon="5.46667">
        <ele>186</ele>
        <time>2017-03-22T14:32:03Z</time>
      </trkpt>
      <trkpt lat="43.50692" lon="5.46679">
        <ele>183</ele>
        <time>2017-03-22T14:32:12Z</time>
      </trkpt>
      <trkpt lat="43.50692" lon="5.46691">
        <ele>185</ele>
        <time>2017-03-22T14:32:19Z</time>
      </trkpt>
      <trkpt lat="43.50696" lon="5.46702">
        <ele>183</ele>
        <time>2017-03-22T14:32:27Z</time>
      </trkpt>
      <trkpt lat="43.507" lon="5.46711">
        <ele>182</ele>
        <time>2017-03-22T14:32:34Z</time>
      </trkpt>
      <trkpt lat="43.50703" lon="5.4672">
        <ele>181</ele>
        <time>2017-03-22T14:32:39Z</time>
      </trkpt>
      <trkpt lat="43.50703" lon="5.46732">
        <ele>187</ele>
        <time>2017-03-22T14:32:46Z</time>
      </trkpt>
      <trkpt lat="43.50708" lon="5.46741">
        <ele>188</ele>
        <time>2017-03-22T14:32:51Z</time>
      </trkpt>
      <trkpt lat="43.50711" lon="5.46752">
        <ele>189</ele>
        <time>2017-03-22T14:32:57Z</time>
      </trkpt>
      <trkpt lat="43.50713" lon="5.46763">
        <ele>190</ele>
        <time>2017-03-22T14:33:04Z</time>
      </trkpt>
      <trkpt lat="43.50717" lon="5.46773">
        <ele>188</ele>
        <time>2017-03-22T14:33:10Z</time>
      </trkpt>
      <trkpt lat="43.50722" lon="5.46783">
        <ele>189</ele>
        <time>2017-03-22T14:33:17Z</time>
      </trkpt>
      <trkpt lat="43.50728" lon="5.46792">
        <ele>189</ele>
        <time>2017-03-22T14:33:26Z</time>
      </trkpt>
      <trkpt lat="43.50734" lon="5.46799">
        <ele>188</ele>
        <time>2017-03-22T14:33:32Z</time>
      </trkpt>
      <trkpt lat="43.5074" lon="5.46808">
        <ele>188</ele>
        <time>2017-03-22T14:33:38Z</time>
      </trkpt>
      <trkpt lat="43.50744" lon="5.46819">
        <ele>191</ele>
        <time>2017-03-22T14:33:44Z</time>
      </trkpt>
      <trkpt lat="43.50749" lon="5.46828">
        <ele>192</ele>
        <time>2017-03-22T14:33:50Z</time>
      </trkpt>
      <trkpt lat="43.50755" lon="5.46834">
        <ele>191</ele>
        <time>2017-03-22T14:33:56Z</time>
      </trkpt>
      <trkpt lat="43.50763" lon="5.46837">
        <ele>192</ele>
        <time>2017-03-22T14:34:03Z</time>
      </trkpt>
      <trkpt lat="43.50772" lon="5.46832">
        <ele>193</ele>
        <time>2017-03-22T14:34:09Z</time>
      </trkpt>
      <trkpt lat="43.5078" lon="5.46828">
        <ele>195</ele>
        <time>2017-03-22T14:34:19Z</time>
      </trkpt>
      <trkpt lat="43.50788" lon="5.46831">
        <ele>197</ele>
        <time>2017-03-22T14:34:28Z</time>
      </trkpt>
      <trkpt lat="43.50795" lon="5.46839">
        <ele>197</ele>
        <time>2017-03-22T14:34:42Z</time>
      </trkpt>
      <trkpt lat="43.50799" lon="5.46828">
        <ele>195</ele>
        <time>2017-03-22T14:37:33Z</time>
      </trkpt>
      <trkpt lat="43.50792" lon="5.46829">
        <ele>192</ele>
        <time>2017-03-22T14:39:54Z</time>
      </trkpt>
      <trkpt lat="43.50801" lon="5.4683">
        <ele>187</ele>
        <time>2017-03-22T14:40:56Z</time>
      </trkpt>
      <trkpt lat="43.50804" lon="5.4682">
        <ele>196</ele>
        <time>2017-03-22T14:43:49Z</time>
      </trkpt>
      <trkpt lat="43.50795" lon="5.4682">
        <ele>184</ele>
        <time>2017-03-22T15:05:47Z</time>
      </trkpt>
      <trkpt lat="43.50804" lon="5.4682">
        <ele>190</ele>
        <time>2017-03-22T15:08:50Z</time>
      </trkpt>
      <trkpt lat="43.50808" lon="5.4681">
        <ele>191</ele>
        <time>2017-03-22T15:09:28Z</time>
      </trkpt>
      <trkpt lat="43.50816" lon="5.46806">
        <ele>193</ele>
        <time>2017-03-22T15:09:39Z</time>
      </trkpt>
      <trkpt lat="43.50824" lon="5.46803">
        <ele>194</ele>
        <time>2017-03-22T15:09:47Z</time>
      </trkpt>
      <trkpt lat="43.50832" lon="5.468">
        <ele>194</ele>
        <time>2017-03-22T15:09:56Z</time>
      </trkpt>
      <trkpt lat="43.5084" lon="5.46796">
        <ele>192</ele>
        <time>2017-03-22T15:10:09Z</time>
      </trkpt>
      <trkpt lat="43.50847" lon="5.46789">
        <ele>192</ele>
        <time>2017-03-22T15:10:19Z</time>
      </trkpt>
      <trkpt lat="43.50851" lon="5.46779">
        <ele>194</ele>
        <time>2017-03-22T15:10:28Z</time>
      </trkpt>
      <trkpt lat="43.50857" lon="5.46771">
        <ele>194</ele>
        <time>2017-03-22T15:10:39Z</time>
      </trkpt>
      <trkpt lat="43.50865" lon="5.46767">
        <ele>193</ele>
        <time>2017-03-22T15:10:49Z</time>
      </trkpt>
      <trkpt lat="43.50874" lon="5.46764">
        <ele>192</ele>
        <time>2017-03-22T15:10:58Z</time>
      </trkpt>
      <trkpt lat="43.50882" lon="5.4676">
        <ele>192</ele>
        <time>2017-03-22T15:11:07Z</time>
      </trkpt>
      <trkpt lat="43.50884" lon="5.46749">
        <ele>190</ele>
        <time>2017-03-22T15:11:18Z</time>
      </trkpt>
      <trkpt lat="43.50884" lon="5.46738">
        <ele>191</ele>
        <time>2017-03-22T15:11:26Z</time>
      </trkpt>
      <trkpt lat="43.50887" lon="5.46727">
        <ele>192</ele>
        <time>2017-03-22T15:11:34Z</time>
      </trkpt>
      <trkpt lat="43.50888" lon="5.46716">
        <ele>193</ele>
        <time>2017-03-22T15:11:41Z</time>
      </trkpt>
      <trkpt lat="43.50886" lon="5.46705">
        <ele>193</ele>
        <time>2017-03-22T15:11:49Z</time>
      </trkpt>
      <trkpt lat="43.50883" lon="5.46695">
        <ele>192</ele>
        <time>2017-03-22T15:12:00Z</time>
      </trkpt>
      <trkpt lat="43.50878" lon="5.46685">
        <ele>190</ele>
        <time>2017-03-22T15:12:07Z</time>
      </trkpt>
      <trkpt lat="43.50875" lon="5.46675">
        <ele>191</ele>
        <time>2017-03-22T15:12:19Z</time>
      </trkpt>
      <trkpt lat="43.50874" lon="5.46663">
        <ele>191</ele>
        <time>2017-03-22T15:12:28Z</time>
      </trkpt>
      <trkpt lat="43.50874" lon="5.4665">
        <ele>193</ele>
        <time>2017-03-22T15:12:38Z</time>
      </trkpt>
      <trkpt lat="43.50873" lon="5.46639">
        <ele>193</ele>
        <time>2017-03-22T15:12:49Z</time>
      </trkpt>
      <trkpt lat="43.50875" lon="5.46628">
        <ele>194</ele>
        <time>2017-03-22T15:12:59Z</time>
      </trkpt>
      <trkpt lat="43.50868" lon="5.46621">
        <ele>195</ele>
        <time>2017-03-22T15:14:49Z</time>
      </trkpt>
      <trkpt lat="43.50867" lon="5.46619">
        <ele>191</ele>
        <time>2017-03-22T15:15:08Z</time>
      </trkpt>
      <trkpt lat="43.50867" lon="5.46619">
        <ele>191</ele>
        <time>2017-03-22T15:15:09Z</time>
      </trkpt>
    </trkseg>
  </trk>
</gpx>